Wetterdaten: Donnerstag, 04.04.2019
Datum Zeit Temp. A. Feuchte A. Luftdruck Regen Wind Richtung Richtung Sonnenschein ET UV Solar Taupunkt Windchill Windböen
04.04.2019 00:00 4,8 °C 83 % 998,6 hPa 0,0 mm 2,7 km/h (1 Bft) W-SW 253 ° 0 min 0,000 mm 0,0 UV-I 0 W/m² 2,2 °C 4,8 °C 6,4 km/h (2 Bft)
04.04.2019 00:01 4,8 °C 83 % 998,7 hPa 0,0 mm 0,5 km/h (0 Bft) W-SW 253 ° 0 min 0,000 mm 0,0 UV-I 0 W/m² 2,2 °C 4,8 °C 3,2 km/h (1 Bft)
04.04.2019 00:02 4,8 °C 83 % 998,7 hPa 0,0 mm 2,1 km/h (1 Bft) W-SW 253 ° 0 min 0,000 mm 0,0 UV-I 0 W/m² 2,2 °C 4,8 °C 4,8 km/h (1 Bft)
04.04.2019 00:03 4,8 °C 83 % 998,7 hPa 0,0 mm 6,0 km/h (2 Bft) W 265 ° 0 min 0,000 mm 0,0 UV-I 0 W/m² 2,2 °C 3,5 °C 11,3 km/h (2 Bft)
04.04.2019 00:04 4,8 °C 83 % 998,7 hPa 0,0 mm 4,5 km/h (1 Bft) W-SW 254 ° 0 min 0,000 mm 0,0 UV-I 0 W/m² 2,2 °C 4,8 °C 6,4 km/h (2 Bft)
04.04.2019 00:05 4,8 °C 83 % 998,7 hPa 0,0 mm 5,8 km/h (2 Bft) W 259 ° 0 min 0,000 mm 0,0 UV-I 0 W/m² 2,2 °C 3,6 °C 11,3 km/h (2 Bft)
04.04.2019 00:06 4,8 °C 83 % 998,6 hPa 0,0 mm 2,5 km/h (1 Bft) W 273 ° 0 min 0,000 mm 0,0 UV-I 0 W/m² 2,2 °C 4,8 °C 4,8 km/h (1 Bft)
04.04.2019 00:07 4,8 °C 83 % 998,5 hPa 0,0 mm 2,8 km/h (1 Bft) W-NW 289 ° 0 min 0,000 mm 0,0 UV-I 0 W/m² 2,2 °C 4,8 °C 4,8 km/h (1 Bft)
04.04.2019 00:08 4,8 °C 83 % 998,5 hPa 0,0 mm 1,7 km/h (1 Bft) W-NW 288 ° 0 min 0,000 mm 0,0 UV-I 0 W/m² 2,2 °C 4,8 °C 3,2 km/h (1 Bft)
04.04.2019 00:09 4,8 °C 83 % 998,4 hPa 0,0 mm 1,4 km/h (1 Bft) W-NW 289 ° 0 min 0,000 mm 0,0 UV-I 0 W/m² 2,2 °C 4,8 °C 3,2 km/h (1 Bft)
04.04.2019 00:10 4,8 °C 83 % 998,5 hPa 0,0 mm 1,8 km/h (1 Bft) W 279 ° 0 min 0,000 mm 0,0 UV-I 0 W/m² 2,2 °C 4,8 °C 4,8 km/h (1 Bft)
04.04.2019 00:11 4,8 °C 83 % 998,5 hPa 0,0 mm 0,1 km/h (0 Bft) NW 308 ° 0 min 0,000 mm 0,0 UV-I 0 W/m² 2,2 °C 4,8 °C 3,2 km/h (1 Bft)
04.04.2019 00:12 4,7 °C 83 % 998,6 hPa 0,0 mm 2,3 km/h (1 Bft) W-NW 290 ° 0 min 0,000 mm 0,0 UV-I 0 W/m² 2,1 °C 4,7 °C 6,4 km/h (2 Bft)
04.04.2019 00:13 4,8 °C 83 % 998,7 hPa 0,0 mm 0,5 km/h (0 Bft) W-NW 290 ° 0 min 0,000 mm 0,0 UV-I 0 W/m² 2,2 °C 4,8 °C 1,6 km/h (1 Bft)
04.04.2019 00:14 4,8 °C 83 % 998,7 hPa 0,0 mm 1,1 km/h (1 Bft) W-NW 284 ° 0 min 0,000 mm 0,0 UV-I 0 W/m² 2,2 °C 4,8 °C 3,2 km/h (1 Bft)
04.04.2019 00:15 4,8 °C 83 % 998,7 hPa 0,0 mm 3,8 km/h (1 Bft) W 273 ° 0 min 0,000 mm 0,0 UV-I 0 W/m² 2,2 °C 4,8 °C 6,4 km/h (2 Bft)
04.04.2019 00:16 4,7 °C 83 % 998,6 hPa 0,0 mm 4,9 km/h (1 Bft) W-NW 291 ° 0 min 0,000 mm 0,0 UV-I 0 W/m² 2,1 °C 3,8 °C 6,4 km/h (2 Bft)
04.04.2019 00:17 4,7 °C 83 % 998,5 hPa 0,0 mm 1,1 km/h (1 Bft) W-NW 291 ° 0 min 0,000 mm 0,0 UV-I 0 W/m² 2,1 °C 4,7 °C 3,2 km/h (1 Bft)
04.04.2019 00:18 4,7 °C 83 % 998,6 hPa 0,0 mm 2,8 km/h (1 Bft) W-NW 292 ° 0 min 0,000 mm 0,0 UV-I 0 W/m² 2,1 °C 4,7 °C 4,8 km/h (1 Bft)
04.04.2019 00:19 4,7 °C 83 % 998,6 hPa 0,0 mm 1,9 km/h (1 Bft) W-NW 301 ° 0 min 0,000 mm 0,0 UV-I 0 W/m² 2,1 °C 4,7 °C 6,4 km/h (2 Bft)
04.04.2019 00:20 4,7 °C 83 % 998,6 hPa 0,0 mm 1,8 km/h (1 Bft) W 271 ° 0 min 0,000 mm 0,0 UV-I 0 W/m² 2,1 °C 4,7 °C 3,2 km/h (1 Bft)
04.04.2019 00:21 4,7 °C 83 % 998,6 hPa 0,0 mm 0,0 km/h (0 Bft) W 271 ° 0 min 0,000 mm 0,0 UV-I 0 W/m² 2,1 °C 4,7 °C 0,0 km/h (0 Bft)
04.04.2019 00:22 4,7 °C 83 % 998,6 hPa 0,0 mm 1,4 km/h (1 Bft) W 279 ° 0 min 0,000 mm 0,0 UV-I 0 W/m² 2,1 °C 4,7 °C 4,8 km/h (1 Bft)
04.04.2019 00:23 4,7 °C 83 % 998,5 hPa 0,0 mm 3,0 km/h (1 Bft) W-NW 294 ° 0 min 0,000 mm 0,0 UV-I 0 W/m² 2,1 °C 4,7 °C 4,8 km/h (1 Bft)
04.04.2019 00:24 4,7 °C 83 % 998,6 hPa 0,0 mm 2,3 km/h (1 Bft) NW 304 ° 0 min 0,000 mm 0,0 UV-I 0 W/m² 2,1 °C 4,7 °C 6,4 km/h (2 Bft)
04.04.2019 00:25 4,7 °C 83 % 998,5 hPa 0,0 mm 2,5 km/h (1 Bft) W-NW 302 ° 0 min 0,000 mm 0,0 UV-I 0 W/m² 2,1 °C 4,7 °C 6,4 km/h (2 Bft)
04.04.2019 00:26 4,7 °C 83 % 998,6 hPa 0,0 mm 2,8 km/h (1 Bft) W-NW 302 ° 0 min 0,000 mm 0,0 UV-I 0 W/m² 2,1 °C 4,7 °C 4,8 km/h (1 Bft)
04.04.2019 00:27 4,7 °C 83 % 998,6 hPa 0,0 mm 2,2 km/h (1 Bft) W-NW 301 ° 0 min 0,000 mm 0,0 UV-I 0 W/m² 2,1 °C 4,7 °C 3,2 km/h (1 Bft)
04.04.2019 00:28 4,7 °C 83 % 998,6 hPa 0,0 mm 0,7 km/h (0 Bft) W-NW 301 ° 0 min 0,000 mm 0,0 UV-I 0 W/m² 2,1 °C 4,7 °C 3,2 km/h (1 Bft)
04.04.2019 00:29 4,7 °C 83 % 998,6 hPa 0,0 mm 1,1 km/h (1 Bft) W-NW 301 ° 0 min 0,000 mm 0,0 UV-I 0 W/m² 2,1 °C 4,7 °C 3,2 km/h (1 Bft)
04.04.2019 00:30 4,7 °C 83 % 998,6 hPa 0,0 mm 2,2 km/h (1 Bft) W-NW 301 ° 0 min 0,000 mm 0,0 UV-I 0 W/m² 2,1 °C 4,7 °C 3,2 km/h (1 Bft)
04.04.2019 00:31 4,6 °C 83 % 998,6 hPa 0,0 mm 1,1 km/h (1 Bft) W-NW 301 ° 0 min 0,000 mm 0,0 UV-I 0 W/m² 2,0 °C 4,6 °C 3,2 km/h (1 Bft)
04.04.2019 00:32 4,7 °C 83 % 998,5 hPa 0,0 mm 1,9 km/h (1 Bft) W-NW 302 ° 0 min 0,000 mm 0,0 UV-I 0 W/m² 2,1 °C 4,7 °C 4,8 km/h (1 Bft)
04.04.2019 00:33 4,6 °C 83 % 998,5 hPa 0,0 mm 1,3 km/h (1 Bft) W-NW 302 ° 0 min 0,000 mm 0,0 UV-I 0 W/m² 2,0 °C 4,6 °C 3,2 km/h (1 Bft)
04.04.2019 00:34 4,6 °C 83 % 998,5 hPa 0,0 mm 2,7 km/h (1 Bft) W-NW 301 ° 0 min 0,000 mm 0,0 UV-I 0 W/m² 2,0 °C 4,6 °C 4,8 km/h (1 Bft)
04.04.2019 00:35 4,6 °C 83 % 998,4 hPa 0,0 mm 3,2 km/h (1 Bft) W-NW 293 ° 0 min 0,000 mm 0,0 UV-I 0 W/m² 2,0 °C 4,6 °C 6,4 km/h (2 Bft)
04.04.2019 00:36 4,6 °C 83 % 998,4 hPa 0,0 mm 2,2 km/h (1 Bft) W-NW 294 ° 0 min 0,000 mm 0,0 UV-I 0 W/m² 2,0 °C 4,6 °C 6,4 km/h (2 Bft)
04.04.2019 00:37 4,7 °C 83 % 998,4 hPa 0,0 mm 1,5 km/h (1 Bft) W-NW 294 ° 0 min 0,000 mm 0,0 UV-I 0 W/m² 2,1 °C 4,7 °C 3,2 km/h (1 Bft)
04.04.2019 00:38 4,6 °C 83 % 998,3 hPa 0,0 mm 3,9 km/h (1 Bft) W-NW 298 ° 0 min 0,000 mm 0,0 UV-I 0 W/m² 2,0 °C 4,6 °C 4,8 km/h (1 Bft)
04.04.2019 00:39 4,6 °C 83 % 998,3 hPa 0,0 mm 1,3 km/h (1 Bft) NW 313 ° 0 min 0,000 mm 0,0 UV-I 0 W/m² 2,0 °C 4,6 °C 3,2 km/h (1 Bft)
04.04.2019 00:40 4,6 °C 83 % 998,3 hPa 0,0 mm 0,3 km/h (0 Bft) NW 313 ° 0 min 0,000 mm 0,0 UV-I 0 W/m² 2,0 °C 4,6 °C 1,6 km/h (1 Bft)
04.04.2019 00:41 4,6 °C 83 % 998,2 hPa 0,0 mm 3,5 km/h (1 Bft) NW 313 ° 0 min 0,000 mm 0,0 UV-I 0 W/m² 2,0 °C 4,6 °C 6,4 km/h (2 Bft)
04.04.2019 00:42 4,6 °C 83 % 998,2 hPa 0,0 mm 2,5 km/h (1 Bft) N-NW 329 ° 0 min 0,000 mm 0,0 UV-I 0 W/m² 2,0 °C 4,6 °C 4,8 km/h (1 Bft)
04.04.2019 00:43 4,6 °C 83 % 998,1 hPa 0,0 mm 0,0 km/h (0 Bft) N-NW 329 ° 0 min 0,000 mm 0,0 UV-I 0 W/m² 2,0 °C 4,6 °C 0,0 km/h (0 Bft)
04.04.2019 00:44 4,6 °C 83 % 998,1 hPa 0,0 mm 3,4 km/h (1 Bft) NW 324 ° 0 min 0,000 mm 0,0 UV-I 0 W/m² 2,0 °C 4,6 °C 6,4 km/h (2 Bft)
04.04.2019 00:45 4,6 °C 83 % 998,2 hPa 0,0 mm 2,2 km/h (1 Bft) NW 324 ° 0 min 0,000 mm 0,0 UV-I 0 W/m² 2,0 °C 4,6 °C 4,8 km/h (1 Bft)
04.04.2019 00:46 4,5 °C 83 % 998,2 hPa 0,0 mm 2,8 km/h (1 Bft) NW 326 ° 0 min 0,000 mm 0,0 UV-I 0 W/m² 1,9 °C 4,5 °C 6,4 km/h (2 Bft)
04.04.2019 00:47 4,5 °C 83 % 998,2 hPa 0,0 mm 0,7 km/h (0 Bft) NW 326 ° 0 min 0,000 mm 0,0 UV-I 0 W/m² 1,9 °C 4,5 °C 3,2 km/h (1 Bft)
04.04.2019 00:48 4,5 °C 83 % 998,3 hPa 0,0 mm 1,9 km/h (1 Bft) NW 326 ° 0 min 0,000 mm 0,0 UV-I 0 W/m² 1,9 °C 4,5 °C 3,2 km/h (1 Bft)
04.04.2019 00:49 4,5 °C 83 % 998,2 hPa 0,0 mm 2,8 km/h (1 Bft) NW 304 ° 0 min 0,000 mm 0,0 UV-I 0 W/m² 1,9 °C 4,5 °C 4,8 km/h (1 Bft)
04.04.2019 00:50 4,5 °C 83 % 998,3 hPa 0,0 mm 1,5 km/h (1 Bft) NW 304 ° 0 min 0,000 mm 0,0 UV-I 0 W/m² 1,9 °C 4,5 °C 3,2 km/h (1 Bft)
04.04.2019 00:51 4,5 °C 83 % 998,3 hPa 0,0 mm 0,7 km/h (0 Bft) NW 304 ° 0 min 0,000 mm 0,0 UV-I 0 W/m² 1,9 °C 4,5 °C 4,8 km/h (1 Bft)
04.04.2019 00:52 4,4 °C 83 % 998,3 hPa 0,0 mm 0,3 km/h (0 Bft) N-NW 339 ° 0 min 0,000 mm 0,0 UV-I 0 W/m² 1,8 °C 4,4 °C 3,2 km/h (1 Bft)
04.04.2019 00:53 4,5 °C 83 % 998,2 hPa 0,0 mm 0,0 km/h (0 Bft) N-NW 338 ° 0 min 0,000 mm 0,0 UV-I 0 W/m² 1,9 °C 4,5 °C 0,0 km/h (0 Bft)
04.04.2019 00:54 4,4 °C 83 % 998,2 hPa 0,0 mm 0,0 km/h (0 Bft) N-NW 338 ° 0 min 0,000 mm 0,0 UV-I 0 W/m² 1,8 °C 4,4 °C 0,0 km/h (0 Bft)
04.04.2019 00:55 4,4 °C 83 % 998,2 hPa 0,0 mm 0,0 km/h (0 Bft) N-NW 338 ° 0 min 0,000 mm 0,0 UV-I 0 W/m² 1,8 °C 4,4 °C 0,0 km/h (0 Bft)
04.04.2019 00:56 4,4 °C 83 % 998,2 hPa 0,0 mm 0,0 km/h (0 Bft) N-NW 338 ° 0 min 0,000 mm 0,0 UV-I 0 W/m² 1,8 °C 4,4 °C 0,0 km/h (0 Bft)
04.04.2019 00:57 4,4 °C 83 % 998,2 hPa 0,0 mm 0,0 km/h (0 Bft) N-NW 338 ° 0 min 0,000 mm 0,0 UV-I 0 W/m² 1,8 °C 4,4 °C 0,0 km/h (0 Bft)
04.04.2019 00:58 4,4 °C 83 % 998,2 hPa 0,0 mm 0,0 km/h (0 Bft) N-NW 338 ° 0 min 0,000 mm 0,0 UV-I 0 W/m² 1,8 °C 4,4 °C 0,0 km/h (0 Bft)
04.04.2019 00:59 4,4 °C 83 % 998,2 hPa 0,0 mm 0,0 km/h (0 Bft) N-NW 338 ° 0 min 0,000 mm 0,0 UV-I 0 W/m² 1,8 °C 4,4 °C 0,0 km/h (0 Bft)
04.04.2019 01:00 4,4 °C 83 % 998,3 hPa 0,0 mm 0,0 km/h (0 Bft) N-NW 338 ° 0 min 0,000 mm 0,0 UV-I 0 W/m² 1,8 °C 4,4 °C 0,0 km/h (0 Bft)
04.04.2019 01:01 4,4 °C 83 % 998,2 hPa 0,0 mm 0,0 km/h (0 Bft) N-NW 338 ° 0 min 0,000 mm 0,0 UV-I 0 W/m² 1,8 °C 4,4 °C 0,0 km/h (0 Bft)
04.04.2019 01:02 4,4 °C 83 % 998,2 hPa 0,0 mm 0,0 km/h (0 Bft) N-NW 338 ° 0 min 0,000 mm 0,0 UV-I 0 W/m² 1,8 °C 4,4 °C 0,0 km/h (0 Bft)
04.04.2019 01:03 4,4 °C 83 % 998,3 hPa 0,0 mm 0,0 km/h (0 Bft) N-NW 338 ° 0 min 0,000 mm 0,0 UV-I 0 W/m² 1,8 °C 4,4 °C 0,0 km/h (0 Bft)
04.04.2019 01:04 4,4 °C 83 % 998,3 hPa 0,0 mm 0,0 km/h (0 Bft) N-NW 338 ° 0 min 0,000 mm 0,0 UV-I 0 W/m² 1,8 °C 4,4 °C 0,0 km/h (0 Bft)
04.04.2019 01:05 4,4 °C 83 % 998,3 hPa 0,0 mm 0,0 km/h (0 Bft) N-NW 338 ° 0 min 0,000 mm 0,0 UV-I 0 W/m² 1,8 °C 4,4 °C 0,0 km/h (0 Bft)
04.04.2019 01:06 4,4 °C 83 % 998,2 hPa 0,0 mm 0,0 km/h (0 Bft) N-NW 338 ° 0 min 0,000 mm 0,0 UV-I 0 W/m² 1,8 °C 4,4 °C 0,0 km/h (0 Bft)
04.04.2019 01:07 4,4 °C 83 % 998,2 hPa 0,0 mm 0,0 km/h (0 Bft) N-NW 338 ° 0 min 0,000 mm 0,0 UV-I 0 W/m² 1,8 °C 4,4 °C 0,0 km/h (0 Bft)
04.04.2019 01:08 4,4 °C 83 % 998,3 hPa 0,0 mm 0,1 km/h (0 Bft) NW 326 ° 0 min 0,000 mm 0,0 UV-I 0 W/m² 1,8 °C 4,4 °C 1,6 km/h (1 Bft)
04.04.2019 01:09 4,4 °C 83 % 998,3 hPa 0,0 mm 2,7 km/h (1 Bft) NW 326 ° 0 min 0,000 mm 0,0 UV-I 0 W/m² 1,8 °C 4,4 °C 3,2 km/h (1 Bft)
04.04.2019 01:10 4,4 °C 83 % 998,3 hPa 0,0 mm 0,9 km/h (0 Bft) NW 326 ° 0 min 0,000 mm 0,0 UV-I 0 W/m² 1,8 °C 4,4 °C 3,2 km/h (1 Bft)
04.04.2019 01:11 4,4 °C 83 % 998,3 hPa 0,0 mm 0,0 km/h (0 Bft) NW 326 ° 0 min 0,000 mm 0,0 UV-I 0 W/m² 1,8 °C 4,4 °C 0,0 km/h (0 Bft)
04.04.2019 01:12 4,4 °C 83 % 998,3 hPa 0,0 mm 0,0 km/h (0 Bft) NW 326 ° 0 min 0,000 mm 0,0 UV-I 0 W/m² 1,8 °C 4,4 °C 0,0 km/h (0 Bft)
04.04.2019 01:13 4,4 °C 83 % 998,3 hPa 0,0 mm 0,3 km/h (0 Bft) NW 326 ° 0 min 0,000 mm 0,0 UV-I 0 W/m² 1,8 °C 4,4 °C 1,6 km/h (1 Bft)
04.04.2019 01:14 4,4 °C 83 % 998,2 hPa 0,0 mm 0,2 km/h (0 Bft) NW 326 ° 0 min 0,000 mm 0,0 UV-I 0 W/m² 1,8 °C 4,4 °C 3,2 km/h (1 Bft)
04.04.2019 01:15 4,4 °C 83 % 998,2 hPa 0,0 mm 2,8 km/h (1 Bft) N-NW 327 ° 0 min 0,000 mm 0,0 UV-I 0 W/m² 1,8 °C 4,4 °C 4,8 km/h (1 Bft)
04.04.2019 01:16 4,4 °C 83 % 998,1 hPa 0,0 mm 2,3 km/h (1 Bft) N-NW 327 ° 0 min 0,000 mm 0,0 UV-I 0 W/m² 1,8 °C 4,4 °C 4,8 km/h (1 Bft)
04.04.2019 01:17 4,4 °C 84 % 998,1 hPa 0,0 mm 2,7 km/h (1 Bft) N-NW 327 ° 0 min 0,000 mm 0,0 UV-I 0 W/m² 1,9 °C 4,4 °C 4,8 km/h (1 Bft)
04.04.2019 01:18 4,4 °C 84 % 998,2 hPa 0,0 mm 1,8 km/h (1 Bft) N-NW 327 ° 0 min 0,000 mm 0,0 UV-I 0 W/m² 1,9 °C 4,4 °C 3,2 km/h (1 Bft)
04.04.2019 01:19 4,4 °C 84 % 998,1 hPa 0,0 mm 2,6 km/h (1 Bft) NW 311 ° 0 min 0,000 mm 0,0 UV-I 0 W/m² 1,9 °C 4,4 °C 4,8 km/h (1 Bft)
04.04.2019 01:20 4,3 °C 83 % 998,1 hPa 0,0 mm 4,4 km/h (1 Bft) NW 316 ° 0 min 0,000 mm 0,0 UV-I 0 W/m² 1,7 °C 4,3 °C 6,4 km/h (2 Bft)
04.04.2019 01:21 4,3 °C 83 % 998,1 hPa 0,0 mm 1,6 km/h (1 Bft) NW 316 ° 0 min 0,000 mm 0,0 UV-I 0 W/m² 1,7 °C 4,3 °C 3,2 km/h (1 Bft)
04.04.2019 01:22 4,3 °C 83 % 998,1 hPa 0,0 mm 0,0 km/h (0 Bft) NW 316 ° 0 min 0,000 mm 0,0 UV-I 0 W/m² 1,7 °C 4,3 °C 0,0 km/h (0 Bft)
04.04.2019 01:23 4,3 °C 83 % 998,2 hPa 0,0 mm 0,0 km/h (0 Bft) NW 316 ° 0 min 0,000 mm 0,0 UV-I 0 W/m² 1,7 °C 4,3 °C 0,0 km/h (0 Bft)
04.04.2019 01:24 4,3 °C 83 % 998,1 hPa 0,0 mm 0,1 km/h (0 Bft) NW 316 ° 0 min 0,000 mm 0,0 UV-I 0 W/m² 1,7 °C 4,3 °C 1,6 km/h (1 Bft)
04.04.2019 01:25 4,3 °C 84 % 998,1 hPa 0,0 mm 0,0 km/h (0 Bft) NW 316 ° 0 min 0,000 mm 0,0 UV-I 0 W/m² 1,8 °C 4,3 °C 0,0 km/h (0 Bft)
04.04.2019 01:26 4,3 °C 84 % 998,1 hPa 0,0 mm 0,5 km/h (0 Bft) NW 316 ° 0 min 0,000 mm 0,0 UV-I 0 W/m² 1,8 °C 4,3 °C 1,6 km/h (1 Bft)
04.04.2019 01:27 4,3 °C 84 % 998,1 hPa 0,0 mm 0,0 km/h (0 Bft) NW 316 ° 0 min 0,000 mm 0,0 UV-I 0 W/m² 1,8 °C 4,3 °C 0,0 km/h (0 Bft)
04.04.2019 01:28 4,3 °C 83 % 998,1 hPa 0,0 mm 0,0 km/h (0 Bft) NW 316 ° 0 min 0,000 mm 0,0 UV-I 0 W/m² 1,7 °C 4,3 °C 0,0 km/h (0 Bft)
04.04.2019 01:29 4,3 °C 83 % 998,1 hPa 0,0 mm 0,0 km/h (0 Bft) NW 316 ° 0 min 0,000 mm 0,0 UV-I 0 W/m² 1,7 °C 4,3 °C 0,0 km/h (0 Bft)
04.04.2019 01:30 4,3 °C 83 % 998,1 hPa 0,0 mm 0,0 km/h (0 Bft) NW 316 ° 0 min 0,000 mm 0,0 UV-I 0 W/m² 1,7 °C 4,3 °C 0,0 km/h (0 Bft)
04.04.2019 01:31 4,3 °C 83 % 998,0 hPa 0,0 mm 0,0 km/h (0 Bft) NW 316 ° 0 min 0,000 mm 0,0 UV-I 0 W/m² 1,7 °C 4,3 °C 0,0 km/h (0 Bft)
04.04.2019 01:32 4,2 °C 83 % 998,0 hPa 0,0 mm 0,7 km/h (0 Bft) NW 316 ° 0 min 0,000 mm 0,0 UV-I 0 W/m² 1,6 °C 4,2 °C 3,2 km/h (1 Bft)
04.04.2019 01:33 4,3 °C 83 % 998,0 hPa 0,0 mm 0,9 km/h (0 Bft) NW 316 ° 0 min 0,000 mm 0,0 UV-I 0 W/m² 1,7 °C 4,3 °C 3,2 km/h (1 Bft)
04.04.2019 01:34 4,2 °C 83 % 998,0 hPa 0,0 mm 4,1 km/h (1 Bft) N 360 ° 0 min 0,000 mm 0,0 UV-I 0 W/m² 1,6 °C 4,2 °C 6,4 km/h (2 Bft)
04.04.2019 01:35 4,2 °C 83 % 998,0 hPa 0,0 mm 3,4 km/h (1 Bft) N 355 ° 0 min 0,000 mm 0,0 UV-I 0 W/m² 1,6 °C 4,2 °C 4,8 km/h (1 Bft)
04.04.2019 01:36 4,2 °C 83 % 998,0 hPa 0,0 mm 0,2 km/h (0 Bft) N 355 ° 0 min 0,000 mm 0,0 UV-I 0 W/m² 1,6 °C 4,2 °C 1,6 km/h (1 Bft)
04.04.2019 01:37 4,2 °C 83 % 998,0 hPa 0,0 mm 3,2 km/h (1 Bft) N-NO 30 ° 0 min 0,000 mm 0,0 UV-I 0 W/m² 1,6 °C 4,2 °C 4,8 km/h (1 Bft)
04.04.2019 01:38 4,2 °C 83 % 998,0 hPa 0,0 mm 0,1 km/h (0 Bft) N-NO 30 ° 0 min 0,000 mm 0,0 UV-I 0 W/m² 1,6 °C 4,2 °C 1,6 km/h (1 Bft)
04.04.2019 01:39 4,2 °C 83 % 997,9 hPa 0,0 mm 0,1 km/h (0 Bft) N-NO 30 ° 0 min 0,000 mm 0,0 UV-I 0 W/m² 1,6 °C 4,2 °C 1,6 km/h (1 Bft)
04.04.2019 01:40 4,2 °C 83 % 997,9 hPa 0,0 mm 0,0 km/h (0 Bft) N-NO 30 ° 0 min 0,000 mm 0,0 UV-I 0 W/m² 1,6 °C 4,2 °C 0,0 km/h (0 Bft)
04.04.2019 01:41 4,2 °C 83 % 997,9 hPa 0,0 mm 0,0 km/h (0 Bft) N-NO 30 ° 0 min 0,000 mm 0,0 UV-I 0 W/m² 1,6 °C 4,2 °C 0,0 km/h (0 Bft)
04.04.2019 01:42 4,2 °C 83 % 997,9 hPa 0,0 mm 0,5 km/h (0 Bft) N-NO 30 ° 0 min 0,000 mm 0,0 UV-I 0 W/m² 1,6 °C 4,2 °C 3,2 km/h (1 Bft)
04.04.2019 01:43 4,2 °C 83 % 997,9 hPa 0,0 mm 1,2 km/h (1 Bft) N-NO 30 ° 0 min 0,000 mm 0,0 UV-I 0 W/m² 1,6 °C 4,2 °C 3,2 km/h (1 Bft)
04.04.2019 01:44 4,1 °C 83 % 997,9 hPa 0,0 mm 0,2 km/h (0 Bft) N-NO 30 ° 0 min 0,000 mm 0,0 UV-I 0 W/m² 1,5 °C 4,1 °C 1,6 km/h (1 Bft)
04.04.2019 01:45 4,1 °C 83 % 997,9 hPa 0,0 mm 0,0 km/h (0 Bft) N-NO 30 ° 0 min 0,000 mm 0,0 UV-I 0 W/m² 1,5 °C 4,1 °C 0,0 km/h (0 Bft)
04.04.2019 01:46 4,1 °C 83 % 997,8 hPa 0,0 mm 0,0 km/h (0 Bft) N-NO 30 ° 0 min 0,000 mm 0,0 UV-I 0 W/m² 1,5 °C 4,1 °C 0,0 km/h (0 Bft)
04.04.2019 01:47 4,1 °C 83 % 997,8 hPa 0,0 mm 0,8 km/h (0 Bft) N-NO 30 ° 0 min 0,000 mm 0,0 UV-I 0 W/m² 1,5 °C 4,1 °C 3,2 km/h (1 Bft)
04.04.2019 01:48 4,1 °C 83 % 997,8 hPa 0,0 mm 0,7 km/h (0 Bft) N-NO 29 ° 0 min 0,000 mm 0,0 UV-I 0 W/m² 1,5 °C 4,1 °C 3,2 km/h (1 Bft)
04.04.2019 01:49 4,1 °C 83 % 997,8 hPa 0,0 mm 1,7 km/h (1 Bft) N-NW 348 ° 0 min 0,000 mm 0,0 UV-I 0 W/m² 1,5 °C 4,1 °C 4,8 km/h (1 Bft)
04.04.2019 01:50 4,1 °C 83 % 997,7 hPa 0,0 mm 0,7 km/h (0 Bft) N-NW 348 ° 0 min 0,000 mm 0,0 UV-I 0 W/m² 1,5 °C 4,1 °C 3,2 km/h (1 Bft)
04.04.2019 01:51 4,1 °C 83 % 997,7 hPa 0,0 mm 0,9 km/h (0 Bft) N-NW 348 ° 0 min 0,000 mm 0,0 UV-I 0 W/m² 1,5 °C 4,1 °C 1,6 km/h (1 Bft)
04.04.2019 01:52 4,0 °C 83 % 997,6 hPa 0,0 mm 1,7 km/h (1 Bft) N-NW 348 ° 0 min 0,000 mm 0,0 UV-I 0 W/m² 1,4 °C 4,0 °C 4,8 km/h (1 Bft)
04.04.2019 01:53 4,1 °C 83 % 997,6 hPa 0,0 mm 2,0 km/h (1 Bft) N-NW 348 ° 0 min 0,000 mm 0,0 UV-I 0 W/m² 1,5 °C 4,1 °C 4,8 km/h (1 Bft)
04.04.2019 01:54 4,1 °C 84 % 997,6 hPa 0,0 mm 0,1 km/h (0 Bft) N-NW 348 ° 0 min 0,000 mm 0,0 UV-I 0 W/m² 1,6 °C 4,1 °C 1,6 km/h (1 Bft)
04.04.2019 01:55 4,1 °C 84 % 997,6 hPa 0,0 mm 0,0 km/h (0 Bft) N-NW 348 ° 0 min 0,000 mm 0,0 UV-I 0 W/m² 1,6 °C 4,1 °C 0,0 km/h (0 Bft)
04.04.2019 01:56 4,1 °C 84 % 997,7 hPa 0,0 mm 0,0 km/h (0 Bft) N-NW 348 ° 0 min 0,000 mm 0,0 UV-I 0 W/m² 1,6 °C 4,1 °C 0,0 km/h (0 Bft)
04.04.2019 01:57 4,1 °C 84 % 997,6 hPa 0,0 mm 0,0 km/h (0 Bft) N-NW 348 ° 0 min 0,000 mm 0,0 UV-I 0 W/m² 1,6 °C 4,1 °C 0,0 km/h (0 Bft)
04.04.2019 01:58 4,1 °C 84 % 997,6 hPa 0,0 mm 0,0 km/h (0 Bft) N-NW 348 ° 0 min 0,000 mm 0,0 UV-I 0 W/m² 1,6 °C 4,1 °C 0,0 km/h (0 Bft)
04.04.2019 01:59 4,1 °C 84 % 997,5 hPa 0,0 mm 0,8 km/h (0 Bft) N-NW 348 ° 0 min 0,000 mm 0,0 UV-I 0 W/m² 1,6 °C 4,1 °C 1,6 km/h (1 Bft)
04.04.2019 02:00 4,1 °C 83 % 997,5 hPa 0,0 mm 1,0 km/h (0 Bft) N-NW 348 ° 0 min 0,000 mm 0,0 UV-I 0 W/m² 1,5 °C 4,1 °C 3,2 km/h (1 Bft)
04.04.2019 02:01 4,0 °C 83 % 997,5 hPa 0,0 mm 1,5 km/h (1 Bft) N-NW 348 ° 0 min 0,000 mm 0,0 UV-I 0 W/m² 1,4 °C 4,0 °C 3,2 km/h (1 Bft)
04.04.2019 02:02 4,0 °C 83 % 997,5 hPa 0,0 mm 0,2 km/h (0 Bft) N-NW 348 ° 0 min 0,000 mm 0,0 UV-I 0 W/m² 1,4 °C 4,0 °C 1,6 km/h (1 Bft)
04.04.2019 02:03 4,0 °C 83 % 997,6 hPa 0,0 mm 0,2 km/h (0 Bft) N-NW 348 ° 0 min 0,000 mm 0,0 UV-I 0 W/m² 1,4 °C 4,0 °C 1,6 km/h (1 Bft)
04.04.2019 02:04 4,0 °C 83 % 997,5 hPa 0,0 mm 0,0 km/h (0 Bft) N-NW 348 ° 0 min 0,000 mm 0,0 UV-I 0 W/m² 1,4 °C 4,0 °C 0,0 km/h (0 Bft)
04.04.2019 02:05 4,0 °C 83 % 997,5 hPa 0,0 mm 0,2 km/h (0 Bft) N-NW 334 ° 0 min 0,000 mm 0,0 UV-I 0 W/m² 1,4 °C 4,0 °C 3,2 km/h (1 Bft)
04.04.2019 02:06 4,0 °C 84 % 997,4 hPa 0,0 mm 2,7 km/h (1 Bft) N-NW 332 ° 0 min 0,000 mm 0,0 UV-I 0 W/m² 1,5 °C 4,0 °C 4,8 km/h (1 Bft)
04.04.2019 02:07 4,0 °C 84 % 997,3 hPa 0,0 mm 0,0 km/h (0 Bft) N-NW 332 ° 0 min 0,000 mm 0,0 UV-I 0 W/m² 1,5 °C 4,0 °C 0,0 km/h (0 Bft)
04.04.2019 02:08 3,9 °C 84 % 997,3 hPa 0,0 mm 0,0 km/h (0 Bft) N-NW 332 ° 0 min 0,000 mm 0,0 UV-I 0 W/m² 1,4 °C 3,9 °C 0,0 km/h (0 Bft)
04.04.2019 02:09 3,9 °C 84 % 997,3 hPa 0,0 mm 0,0 km/h (0 Bft) N-NW 332 ° 0 min 0,000 mm 0,0 UV-I 0 W/m² 1,4 °C 3,9 °C 0,0 km/h (0 Bft)
04.04.2019 02:10 3,9 °C 84 % 997,3 hPa 0,0 mm 0,0 km/h (0 Bft) N-NW 332 ° 0 min 0,000 mm 0,0 UV-I 0 W/m² 1,4 °C 3,9 °C 0,0 km/h (0 Bft)
04.04.2019 02:11 3,9 °C 84 % 997,3 hPa 0,0 mm 0,0 km/h (0 Bft) N-NW 332 ° 0 min 0,000 mm 0,0 UV-I 0 W/m² 1,4 °C 3,9 °C 0,0 km/h (0 Bft)
04.04.2019 02:12 3,9 °C 84 % 997,2 hPa 0,0 mm 0,5 km/h (0 Bft) N-NW 332 ° 0 min 0,000 mm 0,0 UV-I 0 W/m² 1,4 °C 3,9 °C 3,2 km/h (1 Bft)
04.04.2019 02:13 3,9 °C 84 % 997,3 hPa 0,0 mm 2,5 km/h (1 Bft) N-NW 332 ° 0 min 0,000 mm 0,0 UV-I 0 W/m² 1,4 °C 3,9 °C 4,8 km/h (1 Bft)
04.04.2019 02:14 3,9 °C 84 % 997,3 hPa 0,0 mm 0,0 km/h (0 Bft) N-NW 332 ° 0 min 0,000 mm 0,0 UV-I 0 W/m² 1,4 °C 3,9 °C 0,0 km/h (0 Bft)
04.04.2019 02:15 3,9 °C 84 % 997,2 hPa 0,0 mm 3,3 km/h (1 Bft) N-NW 333 ° 0 min 0,000 mm 0,0 UV-I 0 W/m² 1,4 °C 3,9 °C 4,8 km/h (1 Bft)
04.04.2019 02:16 3,9 °C 84 % 997,2 hPa 0,0 mm 3,3 km/h (1 Bft) N 355 ° 0 min 0,000 mm 0,0 UV-I 0 W/m² 1,4 °C 3,9 °C 4,8 km/h (1 Bft)
04.04.2019 02:17 3,9 °C 84 % 997,2 hPa 0,0 mm 0,6 km/h (0 Bft) N 355 ° 0 min 0,000 mm 0,0 UV-I 0 W/m² 1,4 °C 3,9 °C 3,2 km/h (1 Bft)
04.04.2019 02:18 3,9 °C 84 % 997,2 hPa 0,0 mm 0,5 km/h (0 Bft) N 355 ° 0 min 0,000 mm 0,0 UV-I 0 W/m² 1,4 °C 3,9 °C 3,2 km/h (1 Bft)
04.04.2019 02:19 3,9 °C 85 % 997,1 hPa 0,0 mm 4,8 km/h (1 Bft) N 10 ° 0 min 0,000 mm 0,0 UV-I 0 W/m² 1,6 °C 2,9 °C 6,4 km/h (2 Bft)
04.04.2019 02:20 3,9 °C 84 % 997,1 hPa 0,0 mm 4,8 km/h (1 Bft) N-NO 30 ° 0 min 0,000 mm 0,0 UV-I 0 W/m² 1,4 °C 2,9 °C 6,4 km/h (2 Bft)
04.04.2019 02:21 3,9 °C 84 % 997,1 hPa 0,0 mm 3,6 km/h (1 Bft) N-NO 30 ° 0 min 0,000 mm 0,0 UV-I 0 W/m² 1,4 °C 3,9 °C 4,8 km/h (1 Bft)
04.04.2019 02:22 3,9 °C 84 % 997,0 hPa 0,0 mm 1,4 km/h (1 Bft) N-NO 30 ° 0 min 0,000 mm 0,0 UV-I 0 W/m² 1,4 °C 3,9 °C 4,8 km/h (1 Bft)
04.04.2019 02:23 3,9 °C 85 % 997,1 hPa 0,0 mm 0,0 km/h (0 Bft) N-NO 30 ° 0 min 0,000 mm 0,0 UV-I 0 W/m² 1,6 °C 3,9 °C 0,0 km/h (0 Bft)
04.04.2019 02:24 3,8 °C 84 % 997,0 hPa 0,0 mm 0,0 km/h (0 Bft) N-NO 30 ° 0 min 0,000 mm 0,0 UV-I 0 W/m² 1,4 °C 3,8 °C 0,0 km/h (0 Bft)
04.04.2019 02:25 3,8 °C 85 % 997,1 hPa 0,0 mm 0,0 km/h (0 Bft) N-NO 30 ° 0 min 0,000 mm 0,0 UV-I 0 W/m² 1,5 °C 3,8 °C 0,0 km/h (0 Bft)
04.04.2019 02:26 3,8 °C 85 % 997,1 hPa 0,0 mm 0,1 km/h (0 Bft) N-NO 30 ° 0 min 0,000 mm 0,0 UV-I 0 W/m² 1,5 °C 3,8 °C 1,6 km/h (1 Bft)
04.04.2019 02:27 3,8 °C 85 % 997,0 hPa 0,0 mm 1,5 km/h (1 Bft) N-NO 30 ° 0 min 0,000 mm 0,0 UV-I 0 W/m² 1,5 °C 3,8 °C 3,2 km/h (1 Bft)
04.04.2019 02:28 3,8 °C 85 % 997,1 hPa 0,0 mm 0,1 km/h (0 Bft) N-NO 30 ° 0 min 0,000 mm 0,0 UV-I 0 W/m² 1,5 °C 3,8 °C 1,6 km/h (1 Bft)
04.04.2019 02:29 3,8 °C 85 % 997,1 hPa 0,0 mm 0,0 km/h (0 Bft) N-NO 30 ° 0 min 0,000 mm 0,0 UV-I 0 W/m² 1,5 °C 3,8 °C 0,0 km/h (0 Bft)
04.04.2019 02:30 3,8 °C 85 % 997,1 hPa 0,0 mm 0,2 km/h (0 Bft) N-NO 30 ° 0 min 0,000 mm 0,0 UV-I 0 W/m² 1,5 °C 3,8 °C 1,6 km/h (1 Bft)
04.04.2019 02:31 3,8 °C 85 % 997,0 hPa 0,0 mm 1,1 km/h (1 Bft) N-NO 30 ° 0 min 0,000 mm 0,0 UV-I 0 W/m² 1,5 °C 3,8 °C 3,2 km/h (1 Bft)
04.04.2019 02:32 3,8 °C 85 % 997,0 hPa 0,0 mm 1,7 km/h (1 Bft) N-NO 30 ° 0 min 0,000 mm 0,0 UV-I 0 W/m² 1,5 °C 3,8 °C 4,8 km/h (1 Bft)
04.04.2019 02:33 3,8 °C 85 % 997,0 hPa 0,0 mm 0,1 km/h (0 Bft) N-NO 30 ° 0 min 0,000 mm 0,0 UV-I 0 W/m² 1,5 °C 3,8 °C 1,6 km/h (1 Bft)
04.04.2019 02:34 3,8 °C 84 % 997,0 hPa 0,0 mm 0,3 km/h (0 Bft) N-NO 30 ° 0 min 0,000 mm 0,0 UV-I 0 W/m² 1,4 °C 3,8 °C 1,6 km/h (1 Bft)
04.04.2019 02:35 3,8 °C 84 % 996,9 hPa 0,0 mm 1,1 km/h (1 Bft) NW 316 ° 0 min 0,000 mm 0,0 UV-I 0 W/m² 1,4 °C 3,8 °C 4,8 km/h (1 Bft)
04.04.2019 02:36 3,8 °C 84 % 996,9 hPa 0,0 mm 3,9 km/h (1 Bft) NW 316 ° 0 min 0,000 mm 0,0 UV-I 0 W/m² 1,4 °C 3,8 °C 4,8 km/h (1 Bft)
04.04.2019 02:37 3,7 °C 84 % 996,8 hPa 0,0 mm 2,5 km/h (1 Bft) NW 317 ° 0 min 0,000 mm 0,0 UV-I 0 W/m² 1,3 °C 3,7 °C 4,8 km/h (1 Bft)
04.04.2019 02:38 3,7 °C 84 % 996,8 hPa 0,0 mm 0,0 km/h (0 Bft) NW 317 ° 0 min 0,000 mm 0,0 UV-I 0 W/m² 1,3 °C 3,7 °C 0,0 km/h (0 Bft)
04.04.2019 02:39 3,7 °C 84 % 996,9 hPa 0,0 mm 0,0 km/h (0 Bft) NW 317 ° 0 min 0,000 mm 0,0 UV-I 0 W/m² 1,3 °C 3,7 °C 0,0 km/h (0 Bft)
04.04.2019 02:40 3,7 °C 84 % 996,9 hPa 0,0 mm 0,0 km/h (0 Bft) NW 317 ° 0 min 0,000 mm 0,0 UV-I 0 W/m² 1,3 °C 3,7 °C 0,0 km/h (0 Bft)
04.04.2019 02:41 3,7 °C 84 % 996,9 hPa 0,0 mm 0,0 km/h (0 Bft) NW 317 ° 0 min 0,000 mm 0,0 UV-I 0 W/m² 1,3 °C 3,7 °C 0,0 km/h (0 Bft)
04.04.2019 02:42 3,7 °C 84 % 996,9 hPa 0,0 mm 0,0 km/h (0 Bft) NW 317 ° 0 min 0,000 mm 0,0 UV-I 0 W/m² 1,3 °C 3,7 °C 0,0 km/h (0 Bft)
04.04.2019 02:43 3,7 °C 84 % 996,9 hPa 0,0 mm 0,0 km/h (0 Bft) NW 317 ° 0 min 0,000 mm 0,0 UV-I 0 W/m² 1,3 °C 3,7 °C 0,0 km/h (0 Bft)
04.04.2019 02:44 3,7 °C 85 % 996,9 hPa 0,0 mm 0,0 km/h (0 Bft) NW 317 ° 0 min 0,000 mm 0,0 UV-I 0 W/m² 1,4 °C 3,7 °C 0,0 km/h (0 Bft)
04.04.2019 02:45 3,7 °C 84 % 996,9 hPa 0,0 mm 0,0 km/h (0 Bft) NW 317 ° 0 min 0,000 mm 0,0 UV-I 0 W/m² 1,3 °C 3,7 °C 0,0 km/h (0 Bft)
04.04.2019 02:46 3,7 °C 84 % 996,8 hPa 0,0 mm 0,0 km/h (0 Bft) NW 317 ° 0 min 0,000 mm 0,0 UV-I 0 W/m² 1,3 °C 3,7 °C 0,0 km/h (0 Bft)
04.04.2019 02:47 3,7 °C 84 % 996,9 hPa 0,0 mm 0,0 km/h (0 Bft) NW 317 ° 0 min 0,000 mm 0,0 UV-I 0 W/m² 1,3 °C 3,7 °C 0,0 km/h (0 Bft)
04.04.2019 02:48 3,7 °C 84 % 996,9 hPa 0,0 mm 0,0 km/h (0 Bft) NW 317 ° 0 min 0,000 mm 0,0 UV-I 0 W/m² 1,3 °C 3,7 °C 0,0 km/h (0 Bft)
04.04.2019 02:49 3,7 °C 84 % 996,9 hPa 0,0 mm 4,0 km/h (1 Bft) N-NO 13 ° 0 min 0,000 mm 0,0 UV-I 0 W/m² 1,3 °C 3,7 °C 6,4 km/h (2 Bft)
04.04.2019 02:50 3,7 °C 84 % 996,9 hPa 0,0 mm 1,9 km/h (1 Bft) N-NO 17 ° 0 min 0,000 mm 0,0 UV-I 0 W/m² 1,3 °C 3,7 °C 4,8 km/h (1 Bft)
04.04.2019 02:51 3,7 °C 84 % 996,8 hPa 0,0 mm 0,6 km/h (0 Bft) N-NO 17 ° 0 min 0,000 mm 0,0 UV-I 0 W/m² 1,3 °C 3,7 °C 3,2 km/h (1 Bft)
04.04.2019 02:52 3,7 °C 84 % 996,8 hPa 0,0 mm 1,6 km/h (1 Bft) N-NO 17 ° 0 min 0,000 mm 0,0 UV-I 0 W/m² 1,3 °C 3,7 °C 3,2 km/h (1 Bft)
04.04.2019 02:53 3,7 °C 84 % 996,7 hPa 0,0 mm 0,9 km/h (0 Bft) N-NO 16 ° 0 min 0,000 mm 0,0 UV-I 0 W/m² 1,3 °C 3,7 °C 3,2 km/h (1 Bft)
04.04.2019 02:54 3,6 °C 84 % 996,7 hPa 0,0 mm 0,0 km/h (0 Bft) N-NO 16 ° 0 min 0,000 mm 0,0 UV-I 0 W/m² 1,2 °C 3,6 °C 0,0 km/h (0 Bft)
04.04.2019 02:55 3,6 °C 84 % 996,7 hPa 0,0 mm 2,9 km/h (1 Bft) N-NO 16 ° 0 min 0,000 mm 0,0 UV-I 0 W/m² 1,2 °C 3,6 °C 3,2 km/h (1 Bft)
04.04.2019 02:56 3,6 °C 84 % 996,7 hPa 0,0 mm 1,4 km/h (1 Bft) N-NO 16 ° 0 min 0,000 mm 0,0 UV-I 0 W/m² 1,2 °C 3,6 °C 3,2 km/h (1 Bft)
04.04.2019 02:57 3,6 °C 84 % 996,6 hPa 0,0 mm 2,6 km/h (1 Bft) N-NO 16 ° 0 min 0,000 mm 0,0 UV-I 0 W/m² 1,2 °C 3,6 °C 3,2 km/h (1 Bft)
04.04.2019 02:58 3,6 °C 84 % 996,6 hPa 0,0 mm 0,0 km/h (0 Bft) N-NO 16 ° 0 min 0,000 mm 0,0 UV-I 0 W/m² 1,2 °C 3,6 °C 0,0 km/h (0 Bft)
04.04.2019 02:59 3,6 °C 84 % 996,6 hPa 0,0 mm 1,1 km/h (1 Bft) N-NO 16 ° 0 min 0,000 mm 0,0 UV-I 0 W/m² 1,2 °C 3,6 °C 3,2 km/h (1 Bft)
04.04.2019 03:00 3,6 °C 84 % 996,6 hPa 0,0 mm 0,0 km/h (0 Bft) N-NO 16 ° 0 min 0,000 mm 0,0 UV-I 0 W/m² 1,2 °C 3,6 °C 0,0 km/h (0 Bft)
04.04.2019 03:01 3,6 °C 84 % 996,6 hPa 0,0 mm 0,0 km/h (0 Bft) N-NO 16 ° 0 min 0,000 mm 0,0 UV-I 0 W/m² 1,2 °C 3,6 °C 0,0 km/h (0 Bft)
04.04.2019 03:02 3,6 °C 84 % 996,6 hPa 0,0 mm 0,5 km/h (0 Bft) N-NO 16 ° 0 min 0,000 mm 0,0 UV-I 0 W/m² 1,2 °C 3,6 °C 3,2 km/h (1 Bft)
04.04.2019 03:03 3,5 °C 85 % 996,6 hPa 0,0 mm 1,0 km/h (0 Bft) N-NO 16 ° 0 min 0,000 mm 0,0 UV-I 0 W/m² 1,2 °C 3,5 °C 3,2 km/h (1 Bft)
04.04.2019 03:04 3,6 °C 85 % 996,6 hPa 0,0 mm 2,1 km/h (1 Bft) N-NO 16 ° 0 min 0,000 mm 0,0 UV-I 0 W/m² 1,3 °C 3,6 °C 4,8 km/h (1 Bft)
04.04.2019 03:05 3,6 °C 85 % 996,5 hPa 0,0 mm 2,2 km/h (1 Bft) N-NO 13 ° 0 min 0,000 mm 0,0 UV-I 0 W/m² 1,3 °C 3,6 °C 3,2 km/h (1 Bft)
04.04.2019 03:06 3,6 °C 85 % 996,5 hPa 0,0 mm 1,5 km/h (1 Bft) N-NO 13 ° 0 min 0,000 mm 0,0 UV-I 0 W/m² 1,3 °C 3,6 °C 3,2 km/h (1 Bft)
04.04.2019 03:07 3,5 °C 85 % 996,5 hPa 0,0 mm 2,9 km/h (1 Bft) N-NO 13 ° 0 min 0,000 mm 0,0 UV-I 0 W/m² 1,2 °C 3,5 °C 4,8 km/h (1 Bft)
04.04.2019 03:08 3,5 °C 85 % 996,5 hPa 0,0 mm 3,2 km/h (1 Bft) N-NO 13 ° 0 min 0,000 mm 0,0 UV-I 0 W/m² 1,2 °C 3,5 °C 6,4 km/h (2 Bft)
04.04.2019 03:09 3,6 °C 85 % 996,6 hPa 0,0 mm 1,4 km/h (1 Bft) N-NO 13 ° 0 min 0,000 mm 0,0 UV-I 0 W/m² 1,3 °C 3,6 °C 3,2 km/h (1 Bft)
04.04.2019 03:10 3,5 °C 85 % 996,6 hPa 0,0 mm 0,1 km/h (0 Bft) N-NO 13 ° 0 min 0,000 mm 0,0 UV-I 0 W/m² 1,2 °C 3,5 °C 1,6 km/h (1 Bft)
04.04.2019 03:11 3,5 °C 85 % 996,5 hPa 0,0 mm 0,1 km/h (0 Bft) N-NO 13 ° 0 min 0,000 mm 0,0 UV-I 0 W/m² 1,2 °C 3,5 °C 1,6 km/h (1 Bft)
04.04.2019 03:12 3,5 °C 85 % 996,5 hPa 0,0 mm 0,0 km/h (0 Bft) N-NO 13 ° 0 min 0,000 mm 0,0 UV-I 0 W/m² 1,2 °C 3,5 °C 0,0 km/h (0 Bft)
04.04.2019 03:13 3,5 °C 85 % 996,5 hPa 0,0 mm 0,0 km/h (0 Bft) N-NO 13 ° 0 min 0,000 mm 0,0 UV-I 0 W/m² 1,2 °C 3,5 °C 0,0 km/h (0 Bft)
04.04.2019 03:14 3,5 °C 85 % 996,4 hPa 0,0 mm 1,3 km/h (1 Bft) N-NO 13 ° 0 min 0,000 mm 0,0 UV-I 0 W/m² 1,2 °C 3,5 °C 3,2 km/h (1 Bft)
04.04.2019 03:15 3,5 °C 85 % 996,5 hPa 0,0 mm 0,0 km/h (0 Bft) N-NO 13 ° 0 min 0,000 mm 0,0 UV-I 0 W/m² 1,2 °C 3,5 °C 0,0 km/h (0 Bft)
04.04.2019 03:16 3,5 °C 85 % 996,5 hPa 0,0 mm 0,0 km/h (0 Bft) N-NO 14 ° 0 min 0,000 mm 0,0 UV-I 0 W/m² 1,2 °C 3,5 °C 0,0 km/h (0 Bft)
04.04.2019 03:17 3,5 °C 85 % 996,5 hPa 0,0 mm 1,0 km/h (0 Bft) N-NO 14 ° 0 min 0,000 mm 0,0 UV-I 0 W/m² 1,2 °C 3,5 °C 1,6 km/h (1 Bft)
04.04.2019 03:18 3,6 °C 85 % 996,5 hPa 0,0 mm 0,0 km/h (0 Bft) N-NO 13 ° 0 min 0,000 mm 0,0 UV-I 0 W/m² 1,3 °C 3,6 °C 0,0 km/h (0 Bft)
04.04.2019 03:19 3,5 °C 85 % 996,5 hPa 0,0 mm 1,3 km/h (1 Bft) O-NO 74 ° 0 min 0,000 mm 0,0 UV-I 0 W/m² 1,2 °C 3,5 °C 4,8 km/h (1 Bft)
04.04.2019 03:20 3,5 °C 85 % 996,4 hPa 0,0 mm 2,5 km/h (1 Bft) O-NO 74 ° 0 min 0,000 mm 0,0 UV-I 0 W/m² 1,2 °C 3,5 °C 4,8 km/h (1 Bft)
04.04.2019 03:21 3,5 °C 85 % 996,4 hPa 0,0 mm 2,3 km/h (1 Bft) O-NO 74 ° 0 min 0,000 mm 0,0 UV-I 0 W/m² 1,2 °C 3,5 °C 4,8 km/h (1 Bft)
04.04.2019 03:22 3,5 °C 85 % 996,4 hPa 0,0 mm 4,6 km/h (1 Bft) O 82 ° 0 min 0,000 mm 0,0 UV-I 0 W/m² 1,2 °C 2,6 °C 8,0 km/h (2 Bft)
04.04.2019 03:23 3,6 °C 85 % 996,4 hPa 0,0 mm 4,3 km/h (1 Bft) O 80 ° 0 min 0,000 mm 0,0 UV-I 0 W/m² 1,3 °C 3,6 °C 6,4 km/h (2 Bft)
04.04.2019 03:24 3,4 °C 84 % 996,4 hPa 0,0 mm 5,4 km/h (1 Bft) O-NO 71 ° 0 min 0,000 mm 0,0 UV-I 0 W/m² 1,0 °C 2,1 °C 9,7 km/h (2 Bft)
04.04.2019 03:25 3,5 °C 84 % 996,4 hPa 0,0 mm 2,9 km/h (1 Bft) O 80 ° 0 min 0,000 mm 0,0 UV-I 0 W/m² 1,1 °C 3,5 °C 4,8 km/h (1 Bft)
04.04.2019 03:26 3,4 °C 84 % 996,3 hPa 0,0 mm 4,6 km/h (1 Bft) O-NO 71 ° 0 min 0,000 mm 0,0 UV-I 0 W/m² 1,0 °C 2,4 °C 8,0 km/h (2 Bft)
04.04.2019 03:27 3,4 °C 84 % 996,3 hPa 0,0 mm 8,2 km/h (2 Bft) O 81 ° 0 min 0,000 mm 0,0 UV-I 0 W/m² 1,0 °C 1,2 °C 12,9 km/h (3 Bft)
04.04.2019 03:28 3,4 °C 84 % 996,3 hPa 0,0 mm 5,6 km/h (1 Bft) O-NO 63 ° 0 min 0,000 mm 0,0 UV-I 0 W/m² 1,0 °C 2,0 °C 8,0 km/h (2 Bft)
04.04.2019 03:29 3,4 °C 84 % 996,3 hPa 0,0 mm 5,2 km/h (1 Bft) O-NO 74 ° 0 min 0,000 mm 0,0 UV-I 0 W/m² 1,0 °C 2,2 °C 9,7 km/h (2 Bft)
04.04.2019 03:30 3,4 °C 84 % 996,3 hPa 0,0 mm 6,7 km/h (2 Bft) O-NO 62 ° 0 min 0,000 mm 0,0 UV-I 0 W/m² 1,0 °C 1,6 °C 9,7 km/h (2 Bft)
04.04.2019 03:31 3,4 °C 84 % 996,3 hPa 0,0 mm 3,6 km/h (1 Bft) O 87 ° 0 min 0,000 mm 0,0 UV-I 0 W/m² 1,0 °C 3,4 °C 6,4 km/h (2 Bft)
04.04.2019 03:32 3,3 °C 84 % 996,3 hPa 0,0 mm 7,0 km/h (2 Bft) O 82 ° 0 min 0,000 mm 0,0 UV-I 0 W/m² 0,9 °C 1,4 °C 12,9 km/h (3 Bft)
04.04.2019 03:33 3,4 °C 84 % 996,3 hPa 0,0 mm 7,0 km/h (2 Bft) O-NO 62 ° 0 min 0,000 mm 0,0 UV-I 0 W/m² 1,0 °C 1,6 °C 11,3 km/h (2 Bft)
04.04.2019 03:34 3,3 °C 84 % 996,3 hPa 0,0 mm 4,5 km/h (1 Bft) O-NO 64 ° 0 min 0,000 mm 0,0 UV-I 0 W/m² 0,9 °C 3,3 °C 8,0 km/h (2 Bft)
04.04.2019 03:35 3,3 °C 84 % 996,2 hPa 0,0 mm 5,9 km/h (2 Bft) O 88 ° 0 min 0,000 mm 0,0 UV-I 0 W/m² 0,9 °C 1,8 °C 11,3 km/h (2 Bft)
04.04.2019 03:36 3,3 °C 84 % 996,2 hPa 0,0 mm 2,5 km/h (1 Bft) O-NO 74 ° 0 min 0,000 mm 0,0 UV-I 0 W/m² 0,9 °C 3,3 °C 8,0 km/h (2 Bft)
04.04.2019 03:37 3,3 °C 84 % 996,2 hPa 0,0 mm 1,7 km/h (1 Bft) O 80 ° 0 min 0,000 mm 0,0 UV-I 0 W/m² 0,9 °C 3,3 °C 4,8 km/h (1 Bft)
04.04.2019 03:38 3,3 °C 84 % 996,3 hPa 0,0 mm 1,1 km/h (1 Bft) O-NO 67 ° 0 min 0,000 mm 0,0 UV-I 0 W/m² 0,9 °C 3,3 °C 3,2 km/h (1 Bft)
04.04.2019 03:39 3,3 °C 84 % 996,2 hPa 0,0 mm 0,2 km/h (0 Bft) O-NO 65 ° 0 min 0,000 mm 0,0 UV-I 0 W/m² 0,9 °C 3,3 °C 1,6 km/h (1 Bft)
04.04.2019 03:40 3,3 °C 84 % 996,2 hPa 0,0 mm 4,1 km/h (1 Bft) O-NO 74 ° 0 min 0,000 mm 0,0 UV-I 0 W/m² 0,9 °C 3,3 °C 9,7 km/h (2 Bft)
04.04.2019 03:41 3,3 °C 84 % 996,3 hPa 0,0 mm 4,2 km/h (1 Bft) O-NO 78 ° 0 min 0,000 mm 0,0 UV-I 0 W/m² 0,9 °C 3,3 °C 6,4 km/h (2 Bft)
04.04.2019 03:42 3,3 °C 84 % 996,2 hPa 0,0 mm 2,1 km/h (1 Bft) O-NO 78 ° 0 min 0,000 mm 0,0 UV-I 0 W/m² 0,9 °C 3,3 °C 3,2 km/h (1 Bft)
04.04.2019 03:43 3,3 °C 84 % 996,2 hPa 0,0 mm 2,0 km/h (1 Bft) O-NO 78 ° 0 min 0,000 mm 0,0 UV-I 0 W/m² 0,9 °C 3,3 °C 4,8 km/h (1 Bft)
04.04.2019 03:44 3,2 °C 84 % 996,2 hPa 0,0 mm 2,1 km/h (1 Bft) O-NO 73 ° 0 min 0,000 mm 0,0 UV-I 0 W/m² 0,8 °C 3,2 °C 8,0 km/h (2 Bft)
04.04.2019 03:45 3,2 °C 84 % 996,2 hPa 0,0 mm 5,2 km/h (1 Bft) O-NO 75 ° 0 min 0,000 mm 0,0 UV-I 0 W/m² 0,8 °C 2,0 °C 8,0 km/h (2 Bft)
04.04.2019 03:46 3,3 °C 84 % 996,1 hPa 0,0 mm 7,2 km/h (2 Bft) NO 49 ° 0 min 0,000 mm 0,0 UV-I 0 W/m² 0,9 °C 1,4 °C 11,3 km/h (2 Bft)
04.04.2019 03:47 3,2 °C 84 % 996,2 hPa 0,0 mm 4,0 km/h (1 Bft) NO 51 ° 0 min 0,000 mm 0,0 UV-I 0 W/m² 0,8 °C 3,2 °C 8,0 km/h (2 Bft)
04.04.2019 03:48 3,2 °C 84 % 996,2 hPa 0,0 mm 5,3 km/h (1 Bft) O 87 ° 0 min 0,000 mm 0,0 UV-I 0 W/m² 0,8 °C 1,9 °C 8,0 km/h (2 Bft)
04.04.2019 03:49 3,2 °C 84 % 996,2 hPa 0,0 mm 3,8 km/h (1 Bft) O-NO 61 ° 0 min 0,000 mm 0,0 UV-I 0 W/m² 0,8 °C 3,2 °C 9,7 km/h (2 Bft)
04.04.2019 03:50 3,2 °C 84 % 996,1 hPa 0,0 mm 1,2 km/h (1 Bft) O-NO 61 ° 0 min 0,000 mm 0,0 UV-I 0 W/m² 0,8 °C 3,2 °C 4,8 km/h (1 Bft)
04.04.2019 03:51 3,2 °C 84 % 996,2 hPa 0,0 mm 5,9 km/h (2 Bft) NO 41 ° 0 min 0,000 mm 0,0 UV-I 0 W/m² 0,8 °C 1,7 °C 8,0 km/h (2 Bft)
04.04.2019 03:52 3,2 °C 84 % 996,1 hPa 0,0 mm 4,4 km/h (1 Bft) NO 50 ° 0 min 0,000 mm 0,0 UV-I 0 W/m² 0,8 °C 3,2 °C 8,0 km/h (2 Bft)
04.04.2019 03:53 3,2 °C 84 % 996,1 hPa 0,0 mm 3,4 km/h (1 Bft) N-NO 26 ° 0 min 0,000 mm 0,0 UV-I 0 W/m² 0,8 °C 3,2 °C 4,8 km/h (1 Bft)
04.04.2019 03:54 3,2 °C 84 % 996,1 hPa 0,0 mm 2,3 km/h (1 Bft) NO 56 ° 0 min 0,000 mm 0,0 UV-I 0 W/m² 0,8 °C 3,2 °C 4,8 km/h (1 Bft)
04.04.2019 03:55 3,2 °C 84 % 996,0 hPa 0,0 mm 1,8 km/h (1 Bft) O-NO 63 ° 0 min 0,000 mm 0,0 UV-I 0 W/m² 0,8 °C 3,2 °C 4,8 km/h (1 Bft)
04.04.2019 03:56 3,2 °C 84 % 996,1 hPa 0,0 mm 4,3 km/h (1 Bft) NO 51 ° 0 min 0,000 mm 0,0 UV-I 0 W/m² 0,8 °C 3,2 °C 8,0 km/h (2 Bft)
04.04.2019 03:57 3,2 °C 84 % 996,1 hPa 0,0 mm 6,8 km/h (2 Bft) N-NO 29 ° 0 min 0,000 mm 0,0 UV-I 0 W/m² 0,8 °C 1,4 °C 9,7 km/h (2 Bft)
04.04.2019 03:58 3,2 °C 84 % 996,0 hPa 0,0 mm 4,7 km/h (1 Bft) NO 56 ° 0 min 0,000 mm 0,0 UV-I 0 W/m² 0,8 °C 2,2 °C 6,4 km/h (2 Bft)
04.04.2019 03:59 3,2 °C 84 % 996,0 hPa 0,0 mm 5,9 km/h (2 Bft) O-NO 72 ° 0 min 0,000 mm 0,0 UV-I 0 W/m² 0,8 °C 1,7 °C 8,0 km/h (2 Bft)
04.04.2019 04:00 3,2 °C 84 % 995,9 hPa 0,0 mm 4,8 km/h (1 Bft) NO 56 ° 0 min 0,000 mm 0,0 UV-I 0 W/m² 0,8 °C 2,1 °C 8,0 km/h (2 Bft)
04.04.2019 04:01 3,2 °C 84 % 995,9 hPa 0,0 mm 3,6 km/h (1 Bft) N-NO 33 ° 0 min 0,000 mm 0,0 UV-I 0 W/m² 0,8 °C 3,2 °C 6,4 km/h (2 Bft)
04.04.2019 04:02 3,1 °C 84 % 995,9 hPa 0,0 mm 3,1 km/h (1 Bft) O 85 ° 0 min 0,000 mm 0,0 UV-I 0 W/m² 0,7 °C 3,1 °C 6,4 km/h (2 Bft)
04.04.2019 04:03 3,1 °C 84 % 995,9 hPa 0,0 mm 5,7 km/h (1 Bft) O 99 ° 0 min 0,000 mm 0,0 UV-I 0 W/m² 0,7 °C 1,6 °C 11,3 km/h (2 Bft)
04.04.2019 04:04 3,1 °C 84 % 995,9 hPa 0,0 mm 1,6 km/h (1 Bft) O 86 ° 0 min 0,000 mm 0,0 UV-I 0 W/m² 0,7 °C 3,1 °C 4,8 km/h (1 Bft)
04.04.2019 04:05 3,1 °C 84 % 995,9 hPa 0,0 mm 1,3 km/h (1 Bft) NO 35 ° 0 min 0,000 mm 0,0 UV-I 0 W/m² 0,7 °C 3,1 °C 4,8 km/h (1 Bft)
04.04.2019 04:06 3,1 °C 84 % 995,9 hPa 0,0 mm 3,8 km/h (1 Bft) O-NO 64 ° 0 min 0,000 mm 0,0 UV-I 0 W/m² 0,7 °C 3,1 °C 6,4 km/h (2 Bft)
04.04.2019 04:07 3,1 °C 84 % 995,8 hPa 0,0 mm 2,1 km/h (1 Bft) O-NO 64 ° 0 min 0,000 mm 0,0 UV-I 0 W/m² 0,7 °C 3,1 °C 4,8 km/h (1 Bft)
04.04.2019 04:08 3,1 °C 85 % 995,8 hPa 0,0 mm 2,7 km/h (1 Bft) O-NO 78 ° 0 min 0,000 mm 0,0 UV-I 0 W/m² 0,8 °C 3,1 °C 4,8 km/h (1 Bft)
04.04.2019 04:09 3,0 °C 85 % 995,8 hPa 0,0 mm 3,8 km/h (1 Bft) NO 37 ° 0 min 0,000 mm 0,0 UV-I 0 W/m² 0,7 °C 3,0 °C 8,0 km/h (2 Bft)
04.04.2019 04:10 3,0 °C 85 % 995,8 hPa 0,0 mm 4,4 km/h (1 Bft) NO 40 ° 0 min 0,000 mm 0,0 UV-I 0 W/m² 0,7 °C 3,0 °C 8,0 km/h (2 Bft)
04.04.2019 04:11 3,0 °C 85 % 995,8 hPa 0,0 mm 3,1 km/h (1 Bft) NO 54 ° 0 min 0,000 mm 0,0 UV-I 0 W/m² 0,7 °C 3,0 °C 6,4 km/h (2 Bft)
04.04.2019 04:12 3,1 °C 85 % 995,7 hPa 0,0 mm 3,5 km/h (1 Bft) NO 42 ° 0 min 0,000 mm 0,0 UV-I 0 W/m² 0,8 °C 3,1 °C 4,8 km/h (1 Bft)
04.04.2019 04:13 3,1 °C 85 % 995,7 hPa 0,0 mm 1,7 km/h (1 Bft) NO 43 ° 0 min 0,000 mm 0,0 UV-I 0 W/m² 0,8 °C 3,1 °C 4,8 km/h (1 Bft)
04.04.2019 04:14 3,1 °C 85 % 995,7 hPa 0,0 mm 1,8 km/h (1 Bft) O-NO 66 ° 0 min 0,000 mm 0,0 UV-I 0 W/m² 0,8 °C 3,1 °C 3,2 km/h (1 Bft)
04.04.2019 04:15 3,1 °C 85 % 995,7 hPa 0,0 mm 2,0 km/h (1 Bft) NO 44 ° 0 min 0,000 mm 0,0 UV-I 0 W/m² 0,8 °C 3,1 °C 4,8 km/h (1 Bft)
04.04.2019 04:16 3,1 °C 85 % 995,6 hPa 0,0 mm 0,2 km/h (0 Bft) NO 44 ° 0 min 0,000 mm 0,0 UV-I 0 W/m² 0,8 °C 3,1 °C 1,6 km/h (1 Bft)
04.04.2019 04:17 3,1 °C 85 % 995,6 hPa 0,0 mm 0,0 km/h (0 Bft) NO 44 ° 0 min 0,000 mm 0,0 UV-I 0 W/m² 0,8 °C 3,1 °C 0,0 km/h (0 Bft)
04.04.2019 04:18 3,0 °C 85 % 995,5 hPa 0,0 mm 0,9 km/h (0 Bft) NO 44 ° 0 min 0,000 mm 0,0 UV-I 0 W/m² 0,7 °C 3,0 °C 3,2 km/h (1 Bft)
04.04.2019 04:19 3,1 °C 85 % 995,5 hPa 0,0 mm 7,4 km/h (2 Bft) NO 53 ° 0 min 0,000 mm 0,0 UV-I 0 W/m² 0,8 °C 1,1 °C 9,7 km/h (2 Bft)
04.04.2019 04:20 3,0 °C 85 % 995,5 hPa 0,0 mm 5,2 km/h (1 Bft) NO 53 ° 0 min 0,000 mm 0,0 UV-I 0 W/m² 0,7 °C 1,7 °C 8,0 km/h (2 Bft)
04.04.2019 04:21 3,0 °C 85 % 995,5 hPa 0,0 mm 1,0 km/h (0 Bft) NO 53 ° 0 min 0,000 mm 0,0 UV-I 0 W/m² 0,7 °C 3,0 °C 3,2 km/h (1 Bft)
04.04.2019 04:22 3,0 °C 85 % 995,5 hPa 0,0 mm 2,3 km/h (1 Bft) NO 53 ° 0 min 0,000 mm 0,0 UV-I 0 W/m² 0,7 °C 3,0 °C 4,8 km/h (1 Bft)
04.04.2019 04:23 3,0 °C 85 % 995,4 hPa 0,0 mm 2,6 km/h (1 Bft) O 89 ° 0 min 0,000 mm 0,0 UV-I 0 W/m² 0,7 °C 3,0 °C 6,4 km/h (2 Bft)
04.04.2019 04:24 3,0 °C 85 % 995,6 hPa 0,0 mm 6,0 km/h (2 Bft) O-NO 59 ° 0 min 0,000 mm 0,0 UV-I 0 W/m² 0,7 °C 1,4 °C 9,7 km/h (2 Bft)
04.04.2019 04:25 3,0 °C 85 % 995,4 hPa 0,0 mm 3,6 km/h (1 Bft) NO 50 ° 0 min 0,000 mm 0,0 UV-I 0 W/m² 0,7 °C 3,0 °C 8,0 km/h (2 Bft)
04.04.2019 04:26 2,9 °C 85 % 995,4 hPa 0,0 mm 6,5 km/h (2 Bft) O-NO 62 ° 0 min 0,000 mm 0,0 UV-I 0 W/m² 0,6 °C 1,1 °C 9,7 km/h (2 Bft)
04.04.2019 04:27 2,9 °C 85 % 995,3 hPa 0,0 mm 4,2 km/h (1 Bft) O-NO 67 ° 0 min 0,000 mm 0,0 UV-I 0 W/m² 0,6 °C 2,9 °C 8,0 km/h (2 Bft)
04.04.2019 04:28 2,9 °C 85 % 995,3 hPa 0,0 mm 4,2 km/h (1 Bft) O-NO 59 ° 0 min 0,000 mm 0,0 UV-I 0 W/m² 0,6 °C 2,9 °C 6,4 km/h (2 Bft)
04.04.2019 04:29 2,9 °C 85 % 995,3 hPa 0,0 mm 3,4 km/h (1 Bft) O-NO 59 ° 0 min 0,000 mm 0,0 UV-I 0 W/m² 0,6 °C 2,9 °C 4,8 km/h (1 Bft)
04.04.2019 04:30 2,9 °C 85 % 995,3 hPa 0,0 mm 0,9 km/h (0 Bft) NO 53 ° 0 min 0,000 mm 0,0 UV-I 0 W/m² 0,6 °C 2,9 °C 3,2 km/h (1 Bft)
04.04.2019 04:31 2,9 °C 85 % 995,2 hPa 0,0 mm 3,4 km/h (1 Bft) NO 51 ° 0 min 0,000 mm 0,0 UV-I 0 W/m² 0,6 °C 2,9 °C 8,0 km/h (2 Bft)
04.04.2019 04:32 2,9 °C 85 % 995,2 hPa 0,0 mm 3,0 km/h (1 Bft) N-NO 23 ° 0 min 0,000 mm 0,0 UV-I 0 W/m² 0,6 °C 2,9 °C 6,4 km/h (2 Bft)
04.04.2019 04:33 2,8 °C 85 % 995,3 hPa 0,0 mm 1,3 km/h (1 Bft) O-NO 63 ° 0 min 0,000 mm 0,0 UV-I 0 W/m² 0,5 °C 2,8 °C 3,2 km/h (1 Bft)
04.04.2019 04:34 2,9 °C 86 % 995,3 hPa 0,0 mm 4,1 km/h (1 Bft) O-NO 63 ° 0 min 0,000 mm 0,0 UV-I 0 W/m² 0,8 °C 2,9 °C 8,0 km/h (2 Bft)
04.04.2019 04:35 2,9 °C 86 % 995,2 hPa 0,0 mm 5,8 km/h (2 Bft) O-NO 71 ° 0 min 0,000 mm 0,0 UV-I 0 W/m² 0,8 °C 1,4 °C 8,0 km/h (2 Bft)
04.04.2019 04:36 2,8 °C 86 % 995,2 hPa 0,0 mm 3,5 km/h (1 Bft) O 80 ° 0 min 0,000 mm 0,0 UV-I 0 W/m² 0,7 °C 2,8 °C 4,8 km/h (1 Bft)
04.04.2019 04:37 2,8 °C 86 % 995,1 hPa 0,0 mm 2,3 km/h (1 Bft) O-NO 59 ° 0 min 0,000 mm 0,0 UV-I 0 W/m² 0,7 °C 2,8 °C 4,8 km/h (1 Bft)
04.04.2019 04:38 2,8 °C 86 % 995,1 hPa 0,0 mm 2,5 km/h (1 Bft) O-NO 59 ° 0 min 0,000 mm 0,0 UV-I 0 W/m² 0,7 °C 2,8 °C 4,8 km/h (1 Bft)
04.04.2019 04:39 2,8 °C 86 % 995,1 hPa 0,0 mm 3,7 km/h (1 Bft) O-NO 59 ° 0 min 0,000 mm 0,0 UV-I 0 W/m² 0,7 °C 2,8 °C 6,4 km/h (2 Bft)
04.04.2019 04:40 2,8 °C 86 % 995,1 hPa 0,0 mm 2,1 km/h (1 Bft) O-NO 74 ° 0 min 0,000 mm 0,0 UV-I 0 W/m² 0,7 °C 2,8 °C 4,8 km/h (1 Bft)
04.04.2019 04:41 2,8 °C 86 % 994,9 hPa 0,0 mm 2,8 km/h (1 Bft) O 81 ° 0 min 0,000 mm 0,0 UV-I 0 W/m² 0,7 °C 2,8 °C 4,8 km/h (1 Bft)
04.04.2019 04:42 2,8 °C 86 % 994,9 hPa 0,0 mm 2,2 km/h (1 Bft) O 81 ° 0 min 0,000 mm 0,0 UV-I 0 W/m² 0,7 °C 2,8 °C 3,2 km/h (1 Bft)
04.04.2019 04:43 2,8 °C 86 % 994,9 hPa 0,0 mm 1,7 km/h (1 Bft) NO 40 ° 0 min 0,000 mm 0,0 UV-I 0 W/m² 0,7 °C 2,8 °C 6,4 km/h (2 Bft)
04.04.2019 04:44 2,8 °C 86 % 994,9 hPa 0,0 mm 3,0 km/h (1 Bft) O-NO 60 ° 0 min 0,000 mm 0,0 UV-I 0 W/m² 0,7 °C 2,8 °C 6,4 km/h (2 Bft)
04.04.2019 04:45 2,8 °C 86 % 994,8 hPa 0,0 mm 3,0 km/h (1 Bft) O-NO 65 ° 0 min 0,000 mm 0,0 UV-I 0 W/m² 0,7 °C 2,8 °C 6,4 km/h (2 Bft)
04.04.2019 04:46 2,8 °C 86 % 994,8 hPa 0,0 mm 4,9 km/h (1 Bft) O-NO 61 ° 0 min 0,000 mm 0,0 UV-I 0 W/m² 0,7 °C 1,6 °C 8,0 km/h (2 Bft)
04.04.2019 04:47 2,8 °C 86 % 994,8 hPa 0,0 mm 1,3 km/h (1 Bft) O-NO 61 ° 0 min 0,000 mm 0,0 UV-I 0 W/m² 0,7 °C 2,8 °C 4,8 km/h (1 Bft)
04.04.2019 04:48 2,8 °C 86 % 994,8 hPa 0,0 mm 2,5 km/h (1 Bft) O-NO 61 ° 0 min 0,000 mm 0,0 UV-I 0 W/m² 0,7 °C 2,8 °C 4,8 km/h (1 Bft)
04.04.2019 04:49 2,8 °C 86 % 994,8 hPa 0,0 mm 2,3 km/h (1 Bft) O-NO 61 ° 0 min 0,000 mm 0,0 UV-I 0 W/m² 0,7 °C 2,8 °C 4,8 km/h (1 Bft)
04.04.2019 04:50 2,8 °C 86 % 994,9 hPa 0,0 mm 1,2 km/h (1 Bft) O-NO 61 ° 0 min 0,000 mm 0,0 UV-I 0 W/m² 0,7 °C 2,8 °C 3,2 km/h (1 Bft)
04.04.2019 04:51 2,8 °C 86 % 994,8 hPa 0,0 mm 0,0 km/h (0 Bft) O-NO 61 ° 0 min 0,000 mm 0,0 UV-I 0 W/m² 0,7 °C 2,8 °C 0,0 km/h (0 Bft)
04.04.2019 04:52 2,8 °C 86 % 994,8 hPa 0,0 mm 0,0 km/h (0 Bft) O-NO 61 ° 0 min 0,000 mm 0,0 UV-I 0 W/m² 0,7 °C 2,8 °C 0,0 km/h (0 Bft)
04.04.2019 04:53 2,8 °C 86 % 994,7 hPa 0,0 mm 0,0 km/h (0 Bft) O-NO 61 ° 0 min 0,000 mm 0,0 UV-I 0 W/m² 0,7 °C 2,8 °C 0,0 km/h (0 Bft)
04.04.2019 04:54 2,8 °C 86 % 994,7 hPa 0,0 mm 3,5 km/h (1 Bft) NO 40 ° 0 min 0,000 mm 0,0 UV-I 0 W/m² 0,7 °C 2,8 °C 6,4 km/h (2 Bft)
04.04.2019 04:55 2,8 °C 86 % 994,7 hPa 0,0 mm 4,5 km/h (1 Bft) O-NO 73 ° 0 min 0,000 mm 0,0 UV-I 0 W/m² 0,7 °C 2,8 °C 6,4 km/h (2 Bft)
04.04.2019 04:56 2,8 °C 86 % 994,7 hPa 0,0 mm 4,2 km/h (1 Bft) NO 56 ° 0 min 0,000 mm 0,0 UV-I 0 W/m² 0,7 °C 2,8 °C 6,4 km/h (2 Bft)
04.04.2019 04:57 2,8 °C 86 % 994,6 hPa 0,0 mm 2,7 km/h (1 Bft) NO 42 ° 0 min 0,000 mm 0,0 UV-I 0 W/m² 0,7 °C 2,8 °C 6,4 km/h (2 Bft)
04.04.2019 04:58 2,8 °C 86 % 994,6 hPa 0,0 mm 5,0 km/h (1 Bft) NO 44 ° 0 min 0,000 mm 0,0 UV-I 0 W/m² 0,7 °C 1,6 °C 8,0 km/h (2 Bft)
04.04.2019 04:59 2,8 °C 86 % 994,6 hPa 0,0 mm 3,0 km/h (1 Bft) NO 44 ° 0 min 0,000 mm 0,0 UV-I 0 W/m² 0,7 °C 2,8 °C 6,4 km/h (2 Bft)
04.04.2019 05:00 2,8 °C 86 % 994,6 hPa 0,0 mm 4,6 km/h (1 Bft) NO 44 ° 0 min 0,000 mm 0,0 UV-I 0 W/m² 0,7 °C 1,8 °C 8,0 km/h (2 Bft)
04.04.2019 05:01 2,8 °C 86 % 994,6 hPa 0,0 mm 2,3 km/h (1 Bft) O 86 ° 0 min 0,000 mm 0,0 UV-I 0 W/m² 0,7 °C 2,8 °C 6,4 km/h (2 Bft)
04.04.2019 05:02 2,8 °C 86 % 994,6 hPa 0,0 mm 3,8 km/h (1 Bft) O 86 ° 0 min 0,000 mm 0,0 UV-I 0 W/m² 0,7 °C 2,8 °C 6,4 km/h (2 Bft)
04.04.2019 05:03 2,8 °C 86 % 994,6 hPa 0,0 mm 5,7 km/h (1 Bft) O-NO 57 ° 0 min 0,000 mm 0,0 UV-I 0 W/m² 0,7 °C 1,3 °C 9,7 km/h (2 Bft)
04.04.2019 05:04 2,8 °C 86 % 994,4 hPa 0,0 mm 4,0 km/h (1 Bft) O 86 ° 0 min 0,000 mm 0,0 UV-I 0 W/m² 0,7 °C 2,8 °C 6,4 km/h (2 Bft)
04.04.2019 05:05 2,8 °C 86 % 994,4 hPa 0,0 mm 5,0 km/h (1 Bft) O-NO 70 ° 0 min 0,000 mm 0,0 UV-I 0 W/m² 0,7 °C 1,6 °C 6,4 km/h (2 Bft)
04.04.2019 05:06 2,8 °C 87 % 994,4 hPa 0,0 mm 2,5 km/h (1 Bft) O-NO 60 ° 0 min 0,000 mm 0,0 UV-I 0 W/m² 0,9 °C 2,8 °C 6,4 km/h (2 Bft)
04.04.2019 05:07 2,8 °C 87 % 994,4 hPa 0,0 mm 4,4 km/h (1 Bft) O-NO 75 ° 0 min 0,000 mm 0,0 UV-I 0 W/m² 0,9 °C 2,8 °C 6,4 km/h (2 Bft)
04.04.2019 05:08 2,8 °C 87 % 994,3 hPa 0,0 mm 3,5 km/h (1 Bft) O-NO 73 ° 0 min 0,000 mm 0,0 UV-I 0 W/m² 0,9 °C 2,8 °C 4,8 km/h (1 Bft)
04.04.2019 05:09 2,8 °C 87 % 994,4 hPa 0,0 mm 1,3 km/h (1 Bft) O-NO 77 ° 0 min 0,000 mm 0,0 UV-I 0 W/m² 0,9 °C 2,8 °C 4,8 km/h (1 Bft)
04.04.2019 05:10 2,8 °C 87 % 994,4 hPa 0,0 mm 1,6 km/h (1 Bft) O-NO 60 ° 0 min 0,000 mm 0,0 UV-I 0 W/m² 0,9 °C 2,8 °C 6,4 km/h (2 Bft)
04.04.2019 05:11 2,8 °C 87 % 994,3 hPa 0,0 mm 1,7 km/h (1 Bft) O-NO 57 ° 0 min 0,000 mm 0,0 UV-I 0 W/m² 0,9 °C 2,8 °C 4,8 km/h (1 Bft)
04.04.2019 05:12 2,8 °C 87 % 994,2 hPa 0,0 mm 2,8 km/h (1 Bft) O-NO 59 ° 0 min 0,000 mm 0,0 UV-I 0 W/m² 0,9 °C 2,8 °C 6,4 km/h (2 Bft)
04.04.2019 05:13 2,8 °C 87 % 994,2 hPa 0,0 mm 2,9 km/h (1 Bft) O-NO 61 ° 0 min 0,000 mm 0,0 UV-I 0 W/m² 0,9 °C 2,8 °C 6,4 km/h (2 Bft)
04.04.2019 05:14 2,8 °C 87 % 994,3 hPa 0,0 mm 4,3 km/h (1 Bft) O-NO 78 ° 0 min 0,000 mm 0,0 UV-I 0 W/m² 0,9 °C 2,8 °C 6,4 km/h (2 Bft)
04.04.2019 05:15 2,8 °C 87 % 994,3 hPa 0,0 mm 2,2 km/h (1 Bft) O-NO 78 ° 0 min 0,000 mm 0,0 UV-I 0 W/m² 0,9 °C 2,8 °C 3,2 km/h (1 Bft)
04.04.2019 05:16 2,7 °C 87 % 994,3 hPa 0,0 mm 1,3 km/h (1 Bft) O-NO 77 ° 0 min 0,000 mm 0,0 UV-I 0 W/m² 0,8 °C 2,7 °C 3,2 km/h (1 Bft)
04.04.2019 05:17 2,7 °C 87 % 994,3 hPa 0,0 mm 4,8 km/h (1 Bft) NO 52 ° 0 min 0,000 mm 0,0 UV-I 0 W/m² 0,8 °C 1,6 °C 8,0 km/h (2 Bft)
04.04.2019 05:18 2,8 °C 87 % 994,2 hPa 0,0 mm 5,0 km/h (1 Bft) NO 53 ° 0 min 0,000 mm 0,0 UV-I 0 W/m² 0,9 °C 1,6 °C 8,0 km/h (2 Bft)
04.04.2019 05:19 2,7 °C 87 % 994,1 hPa 0,0 mm 5,4 km/h (1 Bft) O-NO 75 ° 0 min 0,000 mm 0,0 UV-I 0 W/m² 0,8 °C 1,3 °C 8,0 km/h (2 Bft)
04.04.2019 05:20 2,7 °C 87 % 994,1 hPa 0,0 mm 5,4 km/h (1 Bft) O-NO 74 ° 0 min 0,000 mm 0,0 UV-I 0 W/m² 0,8 °C 1,3 °C 11,3 km/h (2 Bft)
04.04.2019 05:21 2,7 °C 87 % 994,1 hPa 0,0 mm 5,9 km/h (2 Bft) O 86 ° 0 min 0,000 mm 0,0 UV-I 0 W/m² 0,8 °C 1,1 °C 9,7 km/h (2 Bft)
04.04.2019 05:22 2,7 °C 87 % 994,1 hPa 0,0 mm 3,2 km/h (1 Bft) O-NO 74 ° 0 min 0,000 mm 0,0 UV-I 0 W/m² 0,8 °C 2,7 °C 6,4 km/h (2 Bft)
04.04.2019 05:23 2,7 °C 87 % 994,1 hPa 0,0 mm 2,3 km/h (1 Bft) O-NO 70 ° 0 min 0,000 mm 0,0 UV-I 0 W/m² 0,8 °C 2,7 °C 4,8 km/h (1 Bft)
04.04.2019 05:24 2,6 °C 87 % 994,1 hPa 0,0 mm 3,0 km/h (1 Bft) O 86 ° 0 min 0,000 mm 0,0 UV-I 0 W/m² 0,7 °C 2,6 °C 8,0 km/h (2 Bft)
04.04.2019 05:25 2,6 °C 87 % 994,1 hPa 0,0 mm 0,1 km/h (0 Bft) O 86 ° 0 min 0,000 mm 0,0 UV-I 0 W/m² 0,7 °C 2,6 °C 1,6 km/h (1 Bft)
04.04.2019 05:26 2,6 °C 87 % 994,0 hPa 0,0 mm 0,0 km/h (0 Bft) O 86 ° 0 min 0,000 mm 0,0 UV-I 0 W/m² 0,7 °C 2,6 °C 0,0 km/h (0 Bft)
04.04.2019 05:27 2,6 °C 87 % 994,0 hPa 0,0 mm 2,2 km/h (1 Bft) O-NO 67 ° 0 min 0,000 mm 0,0 UV-I 0 W/m² 0,7 °C 2,6 °C 3,2 km/h (1 Bft)
04.04.2019 05:28 2,6 °C 87 % 994,0 hPa 0,0 mm 0,2 km/h (0 Bft) O-NO 67 ° 0 min 0,000 mm 0,0 UV-I 0 W/m² 0,7 °C 2,6 °C 1,6 km/h (1 Bft)
04.04.2019 05:29 2,6 °C 87 % 994,0 hPa 0,0 mm 0,0 km/h (0 Bft) O-NO 67 ° 0 min 0,000 mm 0,0 UV-I 0 W/m² 0,7 °C 2,6 °C 0,0 km/h (0 Bft)
04.04.2019 05:30 2,5 °C 87 % 994,0 hPa 0,0 mm 0,0 km/h (0 Bft) O-NO 67 ° 0 min 0,000 mm 0,0 UV-I 0 W/m² 0,6 °C 2,5 °C 0,0 km/h (0 Bft)
04.04.2019 05:31 2,4 °C 87 % 994,0 hPa 0,0 mm 0,8 km/h (0 Bft) O-NO 67 ° 0 min 0,000 mm 0,0 UV-I 0 W/m² 0,5 °C 2,4 °C 3,2 km/h (1 Bft)
04.04.2019 05:32 2,4 °C 87 % 994,1 hPa 0,0 mm 0,0 km/h (0 Bft) O-NO 67 ° 0 min 0,000 mm 0,0 UV-I 0 W/m² 0,5 °C 2,4 °C 0,0 km/h (0 Bft)
04.04.2019 05:33 2,3 °C 87 % 994,1 hPa 0,0 mm 0,0 km/h (0 Bft) O-NO 67 ° 0 min 0,000 mm 0,0 UV-I 0 W/m² 0,4 °C 2,3 °C 0,0 km/h (0 Bft)
04.04.2019 05:34 2,3 °C 87 % 994,0 hPa 0,0 mm 0,0 km/h (0 Bft) O-NO 67 ° 0 min 0,000 mm 0,0 UV-I 0 W/m² 0,4 °C 2,3 °C 0,0 km/h (0 Bft)
04.04.2019 05:35 2,3 °C 88 % 994,0 hPa 0,0 mm 0,5 km/h (0 Bft) O-NO 67 ° 0 min 0,000 mm 0,0 UV-I 0 W/m² 0,5 °C 2,3 °C 1,6 km/h (1 Bft)
04.04.2019 05:36 2,3 °C 88 % 994,0 hPa 0,0 mm 0,0 km/h (0 Bft) O-NO 67 ° 0 min 0,000 mm 0,0 UV-I 0 W/m² 0,5 °C 2,3 °C 0,0 km/h (0 Bft)
04.04.2019 05:37 2,2 °C 88 % 994,0 hPa 0,0 mm 0,0 km/h (0 Bft) O-NO 67 ° 0 min 0,000 mm 0,0 UV-I 0 W/m² 0,4 °C 2,2 °C 0,0 km/h (0 Bft)
04.04.2019 05:38 2,2 °C 88 % 993,9 hPa 0,0 mm 0,0 km/h (0 Bft) O-NO 67 ° 0 min 0,000 mm 0,0 UV-I 0 W/m² 0,4 °C 2,2 °C 0,0 km/h (0 Bft)
04.04.2019 05:39 2,2 °C 88 % 993,9 hPa 0,0 mm 0,0 km/h (0 Bft) O-NO 67 ° 0 min 0,000 mm 0,0 UV-I 0 W/m² 0,4 °C 2,2 °C 0,0 km/h (0 Bft)
04.04.2019 05:40 2,1 °C 88 % 993,9 hPa 0,0 mm 0,0 km/h (0 Bft) O-NO 67 ° 0 min 0,000 mm 0,0 UV-I 0 W/m² 0,3 °C 2,1 °C 0,0 km/h (0 Bft)
04.04.2019 05:41 2,1 °C 88 % 993,9 hPa 0,0 mm 0,2 km/h (0 Bft) O-NO 67 ° 0 min 0,000 mm 0,0 UV-I 0 W/m² 0,3 °C 2,1 °C 1,6 km/h (1 Bft)
04.04.2019 05:42 2,1 °C 88 % 993,8 hPa 0,0 mm 0,9 km/h (0 Bft) O-NO 67 ° 0 min 0,000 mm 0,0 UV-I 0 W/m² 0,3 °C 2,1 °C 3,2 km/h (1 Bft)
04.04.2019 05:43 2,1 °C 88 % 993,6 hPa 0,0 mm 2,5 km/h (1 Bft) O-NO 67 ° 0 min 0,000 mm 0,0 UV-I 0 W/m² 0,3 °C 2,1 °C 4,8 km/h (1 Bft)
04.04.2019 05:44 2,1 °C 88 % 993,6 hPa 0,0 mm 0,3 km/h (0 Bft) O-NO 67 ° 0 min 0,000 mm 0,0 UV-I 0 W/m² 0,3 °C 2,1 °C 3,2 km/h (1 Bft)
04.04.2019 05:45 2,0 °C 88 % 993,6 hPa 0,0 mm 3,0 km/h (1 Bft) O-NO 70 ° 0 min 0,000 mm 0,0 UV-I 0 W/m² 0,2 °C 2,0 °C 6,4 km/h (2 Bft)
04.04.2019 05:46 2,0 °C 89 % 993,6 hPa 0,0 mm 2,3 km/h (1 Bft) O 81 ° 0 min 0,000 mm 0,0 UV-I 0 W/m² 0,4 °C 2,0 °C 4,8 km/h (1 Bft)
04.04.2019 05:47 2,0 °C 89 % 993,6 hPa 0,0 mm 3,6 km/h (1 Bft) O 86 ° 0 min 0,000 mm 0,0 UV-I 0 W/m² 0,4 °C 2,0 °C 6,4 km/h (2 Bft)
04.04.2019 05:48 2,0 °C 88 % 993,6 hPa 0,0 mm 4,8 km/h (1 Bft) O 94 ° 0 min 0,000 mm 0,0 UV-I 0 W/m² 0,2 °C 0,8 °C 9,7 km/h (2 Bft)
04.04.2019 05:49 1,9 °C 88 % 993,6 hPa 0,0 mm 3,7 km/h (1 Bft) O-NO 61 ° 0 min 0,000 mm 0,0 UV-I 0 W/m² 0,1 °C 1,9 °C 6,4 km/h (2 Bft)
04.04.2019 05:50 1,9 °C 89 % 993,4 hPa 0,0 mm 3,0 km/h (1 Bft) O-NO 64 ° 0 min 0,000 mm 0,0 UV-I 0 W/m² 0,3 °C 1,9 °C 4,8 km/h (1 Bft)
04.04.2019 05:51 1,9 °C 89 % 993,4 hPa 0,0 mm 4,4 km/h (1 Bft) NO 53 ° 0 min 0,000 mm 0,0 UV-I 0 W/m² 0,3 °C 1,9 °C 8,0 km/h (2 Bft)
04.04.2019 05:52 1,9 °C 89 % 993,4 hPa 0,0 mm 0,1 km/h (0 Bft) NO 53 ° 0 min 0,000 mm 0,0 UV-I 0 W/m² 0,3 °C 1,9 °C 1,6 km/h (1 Bft)
04.04.2019 05:53 1,8 °C 89 % 993,4 hPa 0,0 mm 0,5 km/h (0 Bft) NO 53 ° 0 min 0,000 mm 0,0 UV-I 0 W/m² 0,2 °C 1,8 °C 3,2 km/h (1 Bft)
04.04.2019 05:54 1,7 °C 89 % 993,4 hPa 0,0 mm 0,0 km/h (0 Bft) NO 53 ° 0 min 0,000 mm 0,0 UV-I 0 W/m² 0,1 °C 1,7 °C 0,0 km/h (0 Bft)
04.04.2019 05:55 1,7 °C 89 % 993,4 hPa 0,0 mm 0,1 km/h (0 Bft) NO 54 ° 0 min 0,000 mm 0,0 UV-I 0 W/m² 0,1 °C 1,7 °C 1,6 km/h (1 Bft)
04.04.2019 05:56 1,7 °C 89 % 993,5 hPa 0,0 mm 0,0 km/h (0 Bft) NO 54 ° 0 min 0,000 mm 0,0 UV-I 0 W/m² 0,1 °C 1,7 °C 0,0 km/h (0 Bft)
04.04.2019 05:57 1,7 °C 89 % 993,5 hPa 0,0 mm 0,0 km/h (0 Bft) NO 54 ° 0 min 0,000 mm 0,0 UV-I 0 W/m² 0,1 °C 1,7 °C 0,0 km/h (0 Bft)
04.04.2019 05:58 1,6 °C 89 % 993,5 hPa 0,0 mm 0,0 km/h (0 Bft) NO 54 ° 0 min 0,000 mm 0,0 UV-I 0 W/m² -0,0 °C 1,6 °C 0,0 km/h (0 Bft)
04.04.2019 05:59 1,7 °C 89 % 993,5 hPa 0,0 mm 0,0 km/h (0 Bft) NO 54 ° 0 min 0,000 mm 0,0 UV-I 0 W/m² 0,1 °C 1,7 °C 0,0 km/h (0 Bft)
04.04.2019 06:00 1,7 °C 89 % 993,4 hPa 0,0 mm 0,2 km/h (0 Bft) NO 54 ° 0 min 0,000 mm 0,0 UV-I 0 W/m² 0,1 °C 1,7 °C 1,6 km/h (1 Bft)
04.04.2019 06:01 1,7 °C 90 % 993,4 hPa 0,0 mm 3,0 km/h (1 Bft) NO 54 ° 0 min 0,000 mm 0,0 UV-I 0 W/m² 0,2 °C 1,7 °C 4,8 km/h (1 Bft)
04.04.2019 06:02 1,7 °C 90 % 993,4 hPa 0,0 mm 4,9 km/h (1 Bft) O 92 ° 0 min 0,000 mm 0,0 UV-I 0 W/m² 0,2 °C 0,4 °C 6,4 km/h (2 Bft)
04.04.2019 06:03 1,7 °C 90 % 993,4 hPa 0,0 mm 6,2 km/h (2 Bft) O-NO 70 ° 0 min 0,000 mm 0,0 UV-I 0 W/m² 0,2 °C -0,1 °C 9,7 km/h (2 Bft)
04.04.2019 06:04 1,7 °C 90 % 993,3 hPa 0,0 mm 5,2 km/h (1 Bft) O-NO 63 ° 0 min 0,000 mm 0,0 UV-I 0 W/m² 0,2 °C 0,3 °C 9,7 km/h (2 Bft)
04.04.2019 06:05 1,7 °C 90 % 993,3 hPa 0,0 mm 4,0 km/h (1 Bft) O-NO 77 ° 0 min 0,000 mm 0,0 UV-I 0 W/m² 0,2 °C 1,7 °C 8,0 km/h (2 Bft)
04.04.2019 06:06 1,7 °C 90 % 993,2 hPa 0,0 mm 3,2 km/h (1 Bft) NO 42 ° 0 min 0,000 mm 0,0 UV-I 0 W/m² 0,2 °C 1,7 °C 6,4 km/h (2 Bft)
04.04.2019 06:07 1,8 °C 90 % 993,2 hPa 0,0 mm 5,2 km/h (1 Bft) O-NO 68 ° 0 min 0,000 mm 0,0 UV-I 0 W/m² 0,3 °C 0,4 °C 8,0 km/h (2 Bft)
04.04.2019 06:08 1,8 °C 90 % 993,1 hPa 0,0 mm 1,7 km/h (1 Bft) O-NO 57 ° 0 min 0,000 mm 0,0 UV-I 0 W/m² 0,3 °C 1,8 °C 6,4 km/h (2 Bft)
04.04.2019 06:09 1,8 °C 90 % 993,2 hPa 0,0 mm 3,9 km/h (1 Bft) O-NO 67 ° 0 min 0,000 mm 0,0 UV-I 0 W/m² 0,3 °C 1,8 °C 6,4 km/h (2 Bft)
04.04.2019 06:10 1,8 °C 90 % 993,2 hPa 0,0 mm 5,3 km/h (1 Bft) O-NO 76 ° 0 min 0,000 mm 0,0 UV-I 0 W/m² 0,3 °C 0,3 °C 9,7 km/h (2 Bft)
04.04.2019 06:11 1,9 °C 90 % 993,2 hPa 0,0 mm 5,6 km/h (1 Bft) O 86 ° 0 min 0,000 mm 0,0 UV-I 0 W/m² 0,4 °C 0,3 °C 6,4 km/h (2 Bft)
04.04.2019 06:12 1,9 °C 90 % 993,1 hPa 0,0 mm 3,6 km/h (1 Bft) O 85 ° 0 min 0,000 mm 0,0 UV-I 0 W/m² 0,4 °C 1,9 °C 6,4 km/h (2 Bft)
04.04.2019 06:13 1,9 °C 90 % 993,1 hPa 0,0 mm 5,8 km/h (2 Bft) O 82 ° 0 min 0,000 mm 0,0 UV-I 0 W/m² 0,4 °C 0,2 °C 8,0 km/h (2 Bft)
04.04.2019 06:14 1,9 °C 90 % 993,1 hPa 0,0 mm 6,9 km/h (2 Bft) O-NO 63 ° 0 min 0,000 mm 0,0 UV-I 0 W/m² 0,4 °C -0,2 °C 11,3 km/h (2 Bft)
04.04.2019 06:15 1,9 °C 90 % 993,1 hPa 0,0 mm 4,2 km/h (1 Bft) NO 52 ° 0 min 0,000 mm 0,0 UV-I 0 W/m² 0,4 °C 1,9 °C 8,0 km/h (2 Bft)
04.04.2019 06:16 1,9 °C 90 % 993,1 hPa 0,0 mm 5,9 km/h (2 Bft) NO 36 ° 0 min 0,000 mm 0,0 UV-I 0 W/m² 0,4 °C 0,2 °C 8,0 km/h (2 Bft)
04.04.2019 06:17 1,9 °C 90 % 993,0 hPa 0,0 mm 9,1 km/h (2 Bft) O-NO 77 ° 0 min 0,000 mm 0,0 UV-I 0 W/m² 0,4 °C -0,8 °C 14,5 km/h (3 Bft)
04.04.2019 06:18 1,9 °C 90 % 993,0 hPa 0,0 mm 7,7 km/h (2 Bft) NO 43 ° 0 min 0,000 mm 0,0 UV-I 0 W/m² 0,4 °C -0,4 °C 11,3 km/h (2 Bft)
04.04.2019 06:19 1,9 °C 90 % 993,0 hPa 0,0 mm 5,6 km/h (1 Bft) O-NO 57 ° 0 min 0,000 mm 0,0 UV-I 0 W/m² 0,4 °C 0,3 °C 11,3 km/h (2 Bft)
04.04.2019 06:20 2,0 °C 89 % 993,0 hPa 0,0 mm 9,1 km/h (2 Bft) O-NO 64 ° 0 min 0,000 mm 0,0 UV-I 0 W/m² 0,4 °C -0,7 °C 16,1 km/h (3 Bft)
04.04.2019 06:21 2,0 °C 89 % 993,0 hPa 0,0 mm 6,0 km/h (2 Bft) NO 40 ° 0 min 0,000 mm 0,0 UV-I 0 W/m² 0,4 °C 0,3 °C 8,0 km/h (2 Bft)
04.04.2019 06:22 2,0 °C 89 % 992,9 hPa 0,0 mm 4,3 km/h (1 Bft) NO 40 ° 0 min 0,000 mm 0,0 UV-I 0 W/m² 0,4 °C 2,0 °C 6,4 km/h (2 Bft)
04.04.2019 06:23 2,1 °C 90 % 993,1 hPa 0,0 mm 3,6 km/h (1 Bft) NO 40 ° 0 min 0,000 mm 0,0 UV-I 0 W/m² 0,6 °C 2,1 °C 8,0 km/h (2 Bft)
04.04.2019 06:24 2,0 °C 90 % 993,1 hPa 0,0 mm 6,5 km/h (2 Bft) O-NO 63 ° 0 min 0,000 mm 0,0 UV-I 0 W/m² 0,5 °C 0,1 °C 12,9 km/h (3 Bft)
04.04.2019 06:25 2,1 °C 89 % 992,9 hPa 0,0 mm 5,7 km/h (1 Bft) NO 55 ° 0 min 0,000 mm 0,0 UV-I 0 W/m² 0,5 °C 0,5 °C 9,7 km/h (2 Bft)
04.04.2019 06:26 2,1 °C 89 % 992,9 hPa 0,0 mm 5,8 km/h (2 Bft) NO 41 ° 0 min 0,000 mm 0,0 UV-I 0 W/m² 0,5 °C 0,5 °C 8,0 km/h (2 Bft)
04.04.2019 06:27 2,1 °C 89 % 992,9 hPa 0,0 mm 1,9 km/h (1 Bft) O-NO 58 ° 0 min 0,000 mm 0,0 UV-I 0 W/m² 0,5 °C 2,1 °C 6,4 km/h (2 Bft)
04.04.2019 06:28 2,1 °C 89 % 992,9 hPa 0,0 mm 4,8 km/h (1 Bft) NO 34 ° 0 min 0,000 mm 0,0 UV-I 0 W/m² 0,5 °C 0,9 °C 8,0 km/h (2 Bft)
04.04.2019 06:29 2,1 °C 89 % 992,9 hPa 0,0 mm 6,4 km/h (2 Bft) NO 41 ° 0 min 0,000 mm 0,0 UV-I 0 W/m² 0,5 °C 0,2 °C 8,0 km/h (2 Bft)
04.04.2019 06:30 2,1 °C 89 % 992,8 hPa 0,0 mm 6,1 km/h (2 Bft) N 5 ° 0 min 0,000 mm 0,0 UV-I 0 W/m² 0,5 °C 0,4 °C 8,0 km/h (2 Bft)
04.04.2019 06:31 2,1 °C 89 % 992,9 hPa 0,0 mm 6,6 km/h (2 Bft) NO 37 ° 0 min 0,000 mm 0,0 UV-I 0 W/m² 0,5 °C 0,2 °C 12,9 km/h (3 Bft)
04.04.2019 06:32 2,1 °C 89 % 992,8 hPa 0,0 mm 5,7 km/h (1 Bft) O-NO 64 ° 0 min 0,000 mm 0,0 UV-I 0 W/m² 0,5 °C 0,5 °C 9,7 km/h (2 Bft)
04.04.2019 06:33 2,1 °C 89 % 992,8 hPa 0,0 mm 6,6 km/h (2 Bft) O-NO 78 ° 0 min 0,000 mm 0,0 UV-I 0 W/m² 0,5 °C 0,2 °C 9,7 km/h (2 Bft)
04.04.2019 06:34 2,1 °C 89 % 992,8 hPa 0,0 mm 6,5 km/h (2 Bft) O 90 ° 0 min 0,000 mm 0,0 UV-I 0 W/m² 0,5 °C 0,2 °C 11,3 km/h (2 Bft)
04.04.2019 06:35 2,1 °C 89 % 992,8 hPa 0,0 mm 6,3 km/h (2 Bft) O-NO 64 ° 0 min 0,000 mm 0,0 UV-I 0 W/m² 0,5 °C 0,3 °C 11,3 km/h (2 Bft)
04.04.2019 06:36 2,1 °C 89 % 992,8 hPa 0,0 mm 7,0 km/h (2 Bft) NO 55 ° 0 min 0,000 mm 0,0 UV-I 0 W/m² 0,5 °C 0,0 °C 11,3 km/h (2 Bft)
04.04.2019 06:37 2,0 °C 89 % 992,8 hPa 0,0 mm 4,0 km/h (1 Bft) O 80 ° 0 min 0,000 mm 0,0 UV-I 0 W/m² 0,4 °C 2,0 °C 8,0 km/h (2 Bft)
04.04.2019 06:38 2,0 °C 89 % 992,8 hPa 0,0 mm 3,3 km/h (1 Bft) O-NO 78 ° 0 min 0,000 mm 0,0 UV-I 0 W/m² 0,4 °C 2,0 °C 6,4 km/h (2 Bft)
04.04.2019 06:39 2,0 °C 89 % 992,8 hPa 0,0 mm 1,4 km/h (1 Bft) O-NO 78 ° 0 min 0,000 mm 0,0 UV-I 0 W/m² 0,4 °C 2,0 °C 3,2 km/h (1 Bft)
04.04.2019 06:40 2,0 °C 89 % 992,8 hPa 0,0 mm 4,7 km/h (1 Bft) O-NO 71 ° 0 min 0,000 mm 0,0 UV-I 0 W/m² 0,4 °C 0,8 °C 8,0 km/h (2 Bft)
04.04.2019 06:41 2,0 °C 89 % 992,8 hPa 0,0 mm 6,7 km/h (2 Bft) SO 134 ° 0 min 0,000 mm 0,0 UV-I 0 W/m² 0,4 °C 0,0 °C 11,3 km/h (2 Bft)
04.04.2019 06:42 2,0 °C 89 % 992,7 hPa 0,0 mm 6,3 km/h (2 Bft) NO 53 ° 0 min 0,000 mm 0,0 UV-I 0 W/m² 0,4 °C 0,2 °C 11,3 km/h (2 Bft)
04.04.2019 06:43 2,0 °C 89 % 992,5 hPa 0,0 mm 2,0 km/h (1 Bft) NO 49 ° 0 min 0,000 mm 0,0 UV-I 0 W/m² 0,4 °C 2,0 °C 4,8 km/h (1 Bft)
04.04.2019 06:44 1,9 °C 89 % 992,5 hPa 0,0 mm 0,8 km/h (0 Bft) O-NO 65 ° 0 min 0,000 mm 0,0 UV-I 0 W/m² 0,3 °C 1,9 °C 3,2 km/h (1 Bft)
04.04.2019 06:45 1,9 °C 89 % 992,5 hPa 0,0 mm 4,3 km/h (1 Bft) O-NO 65 ° 0 min 0,000 mm 0,0 UV-I 0 W/m² 0,3 °C 1,9 °C 6,4 km/h (2 Bft)
04.04.2019 06:46 1,9 °C 89 % 992,5 hPa 0,0 mm 3,8 km/h (1 Bft) NO 44 ° 0 min 0,000 mm 0,0 UV-I 0 W/m² 0,3 °C 1,9 °C 6,4 km/h (2 Bft)
04.04.2019 06:47 1,9 °C 89 % 992,4 hPa 0,0 mm 8,1 km/h (2 Bft) O-NO 66 ° 0 min 0,000 mm 0,0 UV-I 0 W/m² 0,3 °C -0,5 °C 11,3 km/h (2 Bft)
04.04.2019 06:48 1,9 °C 89 % 992,4 hPa 0,0 mm 6,5 km/h (2 Bft) O-NO 66 ° 0 min 0,000 mm 0,0 UV-I 0 W/m² 0,3 °C -0,0 °C 9,7 km/h (2 Bft)
04.04.2019 06:49 1,9 °C 89 % 992,4 hPa 0,0 mm 6,6 km/h (2 Bft) O-NO 78 ° 0 min 0,000 mm 0,0 UV-I 0 W/m² 0,3 °C -0,1 °C 11,3 km/h (2 Bft)
04.04.2019 06:50 1,9 °C 89 % 992,3 hPa 0,0 mm 8,7 km/h (2 Bft) N-NO 29 ° 0 min 0,000 mm 0,0 UV-I 0 W/m² 0,3 °C -0,7 °C 12,9 km/h (3 Bft)
04.04.2019 06:51 1,9 °C 89 % 992,3 hPa 0,0 mm 0,9 km/h (0 Bft) NO 49 ° 0 min 0,000 mm 0,0 UV-I 0 W/m² 0,3 °C 1,9 °C 4,8 km/h (1 Bft)
04.04.2019 06:52 1,9 °C 90 % 992,3 hPa 0,0 mm 3,2 km/h (1 Bft) NO 51 ° 0 min 0,000 mm 0,0 UV-I 0 W/m² 0,4 °C 1,9 °C 4,8 km/h (1 Bft)
04.04.2019 06:53 1,9 °C 90 % 992,3 hPa 0,0 mm 2,4 km/h (1 Bft) O-NO 60 ° 0 min 0,000 mm 0,0 UV-I 0 W/m² 0,4 °C 1,9 °C 4,8 km/h (1 Bft)
04.04.2019 06:54 1,9 °C 90 % 992,3 hPa 0,0 mm 0,5 km/h (0 Bft) O-NO 61 ° 0 min 0,000 mm 0,0 UV-I 0 W/m² 0,4 °C 1,9 °C 3,2 km/h (1 Bft)
04.04.2019 06:55 1,8 °C 90 % 992,2 hPa 0,0 mm 4,4 km/h (1 Bft) O-NO 76 ° 0 min 0,000 mm 0,0 UV-I 0 W/m² 0,3 °C 1,8 °C 9,7 km/h (2 Bft)
04.04.2019 06:56 1,8 °C 90 % 992,2 hPa 0,0 mm 4,0 km/h (1 Bft) O-NO 77 ° 0 min 0,000 mm 0,0 UV-I 0 W/m² 0,3 °C 1,8 °C 6,4 km/h (2 Bft)
04.04.2019 06:57 1,8 °C 90 % 992,2 hPa 0,0 mm 1,7 km/h (1 Bft) NO 37 ° 0 min 0,000 mm 0,0 UV-I 0 W/m² 0,3 °C 1,8 °C 3,2 km/h (1 Bft)
04.04.2019 06:58 1,8 °C 90 % 992,1 hPa 0,0 mm 3,1 km/h (1 Bft) O-NO 63 ° 0 min 0,000 mm 0,0 UV-I 5 W/m² 0,3 °C 1,8 °C 6,4 km/h (2 Bft)
04.04.2019 06:59 1,8 °C 90 % 992,1 hPa 0,0 mm 4,0 km/h (1 Bft) O-NO 75 ° 0 min 0,000 mm 0,0 UV-I 5 W/m² 0,3 °C 1,8 °C 4,8 km/h (1 Bft)
04.04.2019 07:00 1,8 °C 90 % 992,1 hPa 0,0 mm 4,8 km/h (1 Bft) O-SO 103 ° 0 min 0,000 mm 0,0 UV-I 0 W/m² 0,3 °C 0,5 °C 6,4 km/h (2 Bft)
04.04.2019 07:01 1,8 °C 90 % 992,2 hPa 0,0 mm 5,8 km/h (2 Bft) NO 54 ° 0 min 0,000 mm 0,0 UV-I 5 W/m² 0,3 °C 0,1 °C 9,7 km/h (2 Bft)
04.04.2019 07:02 1,8 °C 90 % 992,1 hPa 0,0 mm 4,2 km/h (1 Bft) O-NO 78 ° 0 min 0,000 mm 0,0 UV-I 5 W/m² 0,3 °C 1,8 °C 9,7 km/h (2 Bft)
04.04.2019 07:03 1,8 °C 90 % 992,1 hPa 0,0 mm 4,3 km/h (1 Bft) NO 46 ° 0 min 0,000 mm 0,0 UV-I 5 W/m² 0,3 °C 1,8 °C 6,4 km/h (2 Bft)
04.04.2019 07:04 1,8 °C 90 % 992,1 hPa 0,0 mm 6,2 km/h (2 Bft) O 82 ° 0 min 0,000 mm 0,0 UV-I 5 W/m² 0,3 °C -0,0 °C 8,0 km/h (2 Bft)
04.04.2019 07:05 1,8 °C 90 % 992,0 hPa 0,0 mm 2,5 km/h (1 Bft) O-NO 63 ° 0 min 0,000 mm 0,0 UV-I 5 W/m² 0,3 °C 1,8 °C 4,8 km/h (1 Bft)
04.04.2019 07:06 1,8 °C 90 % 992,0 hPa 0,0 mm 1,8 km/h (1 Bft) O-NO 59 ° 0 min 0,000 mm 0,0 UV-I 5 W/m² 0,3 °C 1,8 °C 6,4 km/h (2 Bft)
04.04.2019 07:07 1,8 °C 90 % 991,9 hPa 0,0 mm 6,6 km/h (2 Bft) O-NO 57 ° 0 min 0,000 mm 0,0 UV-I 5 W/m² 0,3 °C -0,2 °C 11,3 km/h (2 Bft)
04.04.2019 07:08 1,8 °C 90 % 991,9 hPa 0,0 mm 5,6 km/h (1 Bft) NO 44 ° 0 min 0,000 mm 0,0 UV-I 5 W/m² 0,3 °C 0,2 °C 9,7 km/h (2 Bft)
04.04.2019 07:09 1,8 °C 90 % 991,9 hPa 0,0 mm 9,0 km/h (2 Bft) NO 49 ° 0 min 0,000 mm 0,0 UV-I 5 W/m² 0,3 °C -0,9 °C 14,5 km/h (3 Bft)
04.04.2019 07:10 1,8 °C 90 % 992,0 hPa 0,0 mm 4,1 km/h (1 Bft) O-NO 71 ° 0 min 0,000 mm 0,0 UV-I 5 W/m² 0,3 °C 1,8 °C 6,4 km/h (2 Bft)
04.04.2019 07:11 1,8 °C 90 % 992,0 hPa 0,0 mm 4,5 km/h (1 Bft) O 84 ° 0 min 0,000 mm 0,0 UV-I 5 W/m² 0,3 °C 1,8 °C 6,4 km/h (2 Bft)
04.04.2019 07:12 1,8 °C 90 % 992,0 hPa 0,0 mm 7,1 km/h (2 Bft) O-NO 69 ° 0 min 0,000 mm 0,0 UV-I 5 W/m² 0,3 °C -0,3 °C 12,9 km/h (3 Bft)
04.04.2019 07:13 1,8 °C 90 % 992,1 hPa 0,0 mm 5,7 km/h (1 Bft) O-NO 57 ° 0 min 0,000 mm 0,0 UV-I 5 W/m² 0,3 °C 0,2 °C 9,7 km/h (2 Bft)
04.04.2019 07:14 1,7 °C 90 % 992,0 hPa 0,0 mm 7,1 km/h (2 Bft) O-NO 74 ° 0 min 0,000 mm 0,0 UV-I 7 W/m² 0,2 °C -0,5 °C 12,9 km/h (3 Bft)
04.04.2019 07:15 1,7 °C 90 % 991,8 hPa 0,0 mm 6,0 km/h (2 Bft) O-NO 69 ° 0 min 0,000 mm 0,0 UV-I 7 W/m² 0,2 °C -0,1 °C 9,7 km/h (2 Bft)
04.04.2019 07:16 1,7 °C 90 % 991,9 hPa 0,0 mm 8,4 km/h (2 Bft) NO 54 ° 0 min 0,000 mm 0,0 UV-I 7 W/m² 0,2 °C -0,9 °C 16,1 km/h (3 Bft)
04.04.2019 07:17 1,7 °C 90 % 991,9 hPa 0,0 mm 7,6 km/h (2 Bft) O-NO 63 ° 0 min 0,000 mm 0,0 UV-I 12 W/m² 0,2 °C -0,6 °C 9,7 km/h (2 Bft)
04.04.2019 07:18 1,7 °C 90 % 991,8 hPa 0,0 mm 9,2 km/h (2 Bft) O 94 ° 0 min 0,000 mm 0,0 UV-I 16 W/m² 0,2 °C -1,1 °C 14,5 km/h (3 Bft)
04.04.2019 07:19 1,7 °C 90 % 991,8 hPa 0,0 mm 8,0 km/h (2 Bft) N-NO 19 ° 0 min 0,000 mm 0,0 UV-I 12 W/m² 0,2 °C -0,7 °C 12,9 km/h (3 Bft)
04.04.2019 07:20 1,7 °C 90 % 991,8 hPa 0,0 mm 7,2 km/h (2 Bft) NO 56 ° 0 min 0,000 mm 0,0 UV-I 9 W/m² 0,2 °C -0,5 °C 11,3 km/h (2 Bft)
04.04.2019 07:21 1,7 °C 90 % 991,9 hPa 0,0 mm 3,6 km/h (1 Bft) O-NO 63 ° 0 min 0,000 mm 0,0 UV-I 7 W/m² 0,2 °C 1,7 °C 6,4 km/h (2 Bft)
04.04.2019 07:22 1,7 °C 90 % 991,9 hPa 0,0 mm 1,7 km/h (1 Bft) O 93 ° 0 min 0,000 mm 0,0 UV-I 7 W/m² 0,2 °C 1,7 °C 4,8 km/h (1 Bft)
04.04.2019 07:23 1,7 °C 90 % 991,9 hPa 0,0 mm 3,8 km/h (1 Bft) NO 39 ° 0 min 0,000 mm 0,0 UV-I 7 W/m² 0,2 °C 1,7 °C 6,4 km/h (2 Bft)
04.04.2019 07:24 1,7 °C 90 % 991,8 hPa 0,0 mm 4,9 km/h (1 Bft) O-NO 65 ° 0 min 0,000 mm 0,0 UV-I 7 W/m² 0,2 °C 0,4 °C 9,7 km/h (2 Bft)
04.04.2019 07:25 1,7 °C 90 % 991,8 hPa 0,0 mm 4,1 km/h (1 Bft) NO 56 ° 0 min 0,000 mm 0,0 UV-I 7 W/m² 0,2 °C 1,7 °C 6,4 km/h (2 Bft)
04.04.2019 07:26 1,7 °C 90 % 991,8 hPa 0,0 mm 5,5 km/h (1 Bft) O 81 ° 0 min 0,000 mm 0,0 UV-I 7 W/m² 0,2 °C 0,1 °C 6,4 km/h (2 Bft)
04.04.2019 07:27 1,7 °C 90 % 991,8 hPa 0,0 mm 6,3 km/h (2 Bft) NO 51 ° 0 min 0,000 mm 0,0 UV-I 7 W/m² 0,2 °C -0,2 °C 8,0 km/h (2 Bft)
04.04.2019 07:28 1,7 °C 90 % 991,8 hPa 0,0 mm 8,5 km/h (2 Bft) NO 45 ° 0 min 0,000 mm 0,0 UV-I 7 W/m² 0,2 °C -0,9 °C 14,5 km/h (3 Bft)
04.04.2019 07:29 1,7 °C 90 % 991,7 hPa 0,0 mm 6,4 km/h (2 Bft) NO 52 ° 0 min 0,000 mm 0,0 UV-I 7 W/m² 0,2 °C -0,2 °C 11,3 km/h (2 Bft)
04.04.2019 07:30 1,7 °C 90 % 991,8 hPa 0,0 mm 7,5 km/h (2 Bft) O 85 ° 0 min 0,000 mm 0,0 UV-I 5 W/m² 0,2 °C -0,6 °C 9,7 km/h (2 Bft)
04.04.2019 07:31 1,7 °C 90 % 991,8 hPa 0,0 mm 7,6 km/h (2 Bft) O-NO 63 ° 0 min 0,000 mm 0,0 UV-I 7 W/m² 0,2 °C -0,6 °C 12,9 km/h (3 Bft)
04.04.2019 07:32 1,7 °C 90 % 991,9 hPa 0,0 mm 4,3 km/h (1 Bft) O-NO 67 ° 0 min 0,000 mm 0,0 UV-I 7 W/m² 0,2 °C 1,7 °C 9,7 km/h (2 Bft)
04.04.2019 07:33 1,7 °C 91 % 991,9 hPa 0,0 mm 4,4 km/h (1 Bft) NO 51 ° 0 min 0,000 mm 0,0 UV-I 7 W/m² 0,4 °C 1,7 °C 6,4 km/h (2 Bft)
04.04.2019 07:34 1,7 °C 90 % 991,9 hPa 0,0 mm 8,6 km/h (2 Bft) NO 51 ° 0 min 0,000 mm 0,0 UV-I 7 W/m² 0,2 °C -0,9 °C 11,3 km/h (2 Bft)
04.04.2019 07:35 1,7 °C 91 % 991,9 hPa 0,0 mm 5,9 km/h (2 Bft) O-NO 66 ° 0 min 0,000 mm 0,0 UV-I 7 W/m² 0,4 °C -0,0 °C 8,0 km/h (2 Bft)
04.04.2019 07:36 1,7 °C 91 % 991,9 hPa 0,0 mm 2,4 km/h (1 Bft) O-NO 61 ° 0 min 0,000 mm 0,0 UV-I 7 W/m² 0,4 °C 1,7 °C 8,0 km/h (2 Bft)
04.04.2019 07:37 1,7 °C 91 % 991,9 hPa 0,0 mm 3,7 km/h (1 Bft) NO 44 ° 0 min 0,000 mm 0,0 UV-I 7 W/m² 0,4 °C 1,7 °C 4,8 km/h (1 Bft)
04.04.2019 07:38 1,7 °C 91 % 991,9 hPa 0,0 mm 4,8 km/h (1 Bft) O-NO 61 ° 0 min 0,000 mm 0,0 UV-I 7 W/m² 0,4 °C 0,4 °C 6,4 km/h (2 Bft)
04.04.2019 07:39 1,7 °C 91 % 991,7 hPa 0,0 mm 5,0 km/h (1 Bft) NO 51 ° 0 min 0,000 mm 0,0 UV-I 7 W/m² 0,4 °C 0,3 °C 8,0 km/h (2 Bft)
04.04.2019 07:40 1,7 °C 91 % 991,7 hPa 0,0 mm 7,0 km/h (2 Bft) O 79 ° 0 min 0,000 mm 0,0 UV-I 7 W/m² 0,4 °C -0,4 °C 11,3 km/h (2 Bft)
04.04.2019 07:41 1,7 °C 91 % 991,6 hPa 0,0 mm 5,2 km/h (1 Bft) NO 46 ° 0 min 0,000 mm 0,0 UV-I 7 W/m² 0,4 °C 0,3 °C 8,0 km/h (2 Bft)
04.04.2019 07:42 1,7 °C 91 % 991,6 hPa 0,0 mm 6,6 km/h (2 Bft) NO 56 ° 0 min 0,000 mm 0,0 UV-I 9 W/m² 0,4 °C -0,3 °C 11,3 km/h (2 Bft)
04.04.2019 07:43 1,7 °C 91 % 991,6 hPa 0,0 mm 7,5 km/h (2 Bft) N-NO 32 ° 0 min 0,000 mm 0,0 UV-I 9 W/m² 0,4 °C -0,6 °C 14,5 km/h (3 Bft)
04.04.2019 07:44 1,7 °C 91 % 991,7 hPa 0,0 mm 3,6 km/h (1 Bft) O-NO 72 ° 0 min 0,000 mm 0,0 UV-I 9 W/m² 0,4 °C 1,7 °C 4,8 km/h (1 Bft)
04.04.2019 07:45 1,7 °C 91 % 991,7 hPa 0,0 mm 3,1 km/h (1 Bft) O 90 ° 0 min 0,000 mm 0,0 UV-I 9 W/m² 0,4 °C 1,7 °C 4,8 km/h (1 Bft)
04.04.2019 07:46 1,7 °C 91 % 991,7 hPa 0,0 mm 5,9 km/h (2 Bft) O-NO 65 ° 0 min 0,000 mm 0,0 UV-I 7 W/m² 0,4 °C -0,0 °C 8,0 km/h (2 Bft)
04.04.2019 07:47 1,7 °C 91 % 991,7 hPa 0,0 mm 4,2 km/h (1 Bft) O 98 ° 0 min 0,000 mm 0,0 UV-I 9 W/m² 0,4 °C 1,7 °C 4,8 km/h (1 Bft)
04.04.2019 07:48 1,7 °C 91 % 991,5 hPa 0,0 mm 3,4 km/h (1 Bft) O-NO 57 ° 0 min 0,000 mm 0,0 UV-I 9 W/m² 0,4 °C 1,7 °C 4,8 km/h (1 Bft)
04.04.2019 07:49 1,7 °C 91 % 991,4 hPa 0,0 mm 5,2 km/h (1 Bft) O-NO 76 ° 0 min 0,000 mm 0,0 UV-I 9 W/m² 0,4 °C 0,3 °C 6,4 km/h (2 Bft)
04.04.2019 07:50 1,7 °C 91 % 991,4 hPa 0,0 mm 5,0 km/h (1 Bft) O 84 ° 0 min 0,000 mm 0,0 UV-I 9 W/m² 0,4 °C 0,3 °C 6,4 km/h (2 Bft)
04.04.2019 07:51 1,7 °C 91 % 991,4 hPa 0,0 mm 8,4 km/h (2 Bft) O-NO 65 ° 0 min 0,000 mm 0,0 UV-I 9 W/m² 0,4 °C -0,9 °C 11,3 km/h (2 Bft)
04.04.2019 07:52 1,7 °C 91 % 991,4 hPa 0,0 mm 5,0 km/h (1 Bft) NO 51 ° 0 min 0,000 mm 0,0 UV-I 11 W/m² 0,4 °C 0,3 °C 6,4 km/h (2 Bft)
04.04.2019 07:53 1,7 °C 91 % 991,4 hPa 0,0 mm 5,2 km/h (1 Bft) O-NO 76 ° 0 min 0,000 mm 0,0 UV-I 11 W/m² 0,4 °C 0,3 °C 8,0 km/h (2 Bft)
04.04.2019 07:54 1,7 °C 91 % 991,3 hPa 0,0 mm 9,7 km/h (2 Bft) O 82 ° 0 min 0,000 mm 0,0 UV-I 12 W/m² 0,4 °C -1,2 °C 14,5 km/h (3 Bft)
04.04.2019 07:55 1,7 °C 91 % 991,4 hPa 0,0 mm 8,4 km/h (2 Bft) NO 52 ° 0 min 0,000 mm 0,0 UV-I 12 W/m² 0,4 °C -0,9 °C 12,9 km/h (3 Bft)
04.04.2019 07:56 1,7 °C 91 % 991,4 hPa 0,0 mm 6,9 km/h (2 Bft) O-NO 65 ° 0 min 0,000 mm 0,0 UV-I 12 W/m² 0,4 °C -0,4 °C 8,0 km/h (2 Bft)
04.04.2019 07:57 1,7 °C 91 % 991,4 hPa 0,0 mm 4,2 km/h (1 Bft) O-NO 74 ° 0 min 0,000 mm 0,0 UV-I 12 W/m² 0,4 °C 1,7 °C 8,0 km/h (2 Bft)
04.04.2019 07:58 1,6 °C 91 % 991,3 hPa 0,0 mm 0,1 km/h (0 Bft) O-NO 74 ° 0 min 0,000 mm 0,0 UV-I 16 W/m² 0,3 °C 1,6 °C 1,6 km/h (1 Bft)
04.04.2019 07:59 1,6 °C 91 % 991,3 hPa 0,0 mm 2,6 km/h (1 Bft) O-NO 63 ° 0 min 0,000 mm 0,0 UV-I 14 W/m² 0,3 °C 1,6 °C 8,0 km/h (2 Bft)
04.04.2019 08:00 1,7 °C 91 % 991,3 hPa 0,0 mm 6,0 km/h (2 Bft) NO 37 ° 0 min 0,000 mm 0,0 UV-I 14 W/m² 0,4 °C -0,1 °C 9,7 km/h (2 Bft)
04.04.2019 08:01 1,6 °C 91 % 991,2 hPa 0,0 mm 5,0 km/h (1 Bft) O-NO 60 ° 0 min 0,000 mm 0,0 UV-I 12 W/m² 0,3 °C 0,2 °C 8,0 km/h (2 Bft)
04.04.2019 08:02 1,7 °C 91 % 991,2 hPa 0,0 mm 5,2 km/h (1 Bft) NO 38 ° 0 min 0,000 mm 0,0 UV-I 12 W/m² 0,4 °C 0,3 °C 8,0 km/h (2 Bft)
04.04.2019 08:03 1,7 °C 91 % 991,2 hPa 0,0 mm 7,0 km/h (2 Bft) O-NO 57 ° 0 min 0,000 mm 0,0 UV-I 12 W/m² 0,4 °C -0,4 °C 8,0 km/h (2 Bft)
04.04.2019 08:04 1,7 °C 91 % 991,1 hPa 0,0 mm 4,6 km/h (1 Bft) O-NO 60 ° 0 min 0,000 mm 0,0 UV-I 18 W/m² 0,4 °C 0,5 °C 8,0 km/h (2 Bft)
04.04.2019 08:05 1,7 °C 91 % 991,2 hPa 0,0 mm 4,3 km/h (1 Bft) O 83 ° 0 min 0,000 mm 0,0 UV-I 19 W/m² 0,4 °C 1,7 °C 6,4 km/h (2 Bft)
04.04.2019 08:06 1,7 °C 91 % 991,2 hPa 0,0 mm 5,7 km/h (1 Bft) NO 55 ° 0 min 0,000 mm 0,0 UV-I 16 W/m² 0,4 °C 0,0 °C 12,9 km/h (3 Bft)
04.04.2019 08:07 1,7 °C 91 % 991,2 hPa 0,0 mm 4,8 km/h (1 Bft) O-NO 57 ° 0 min 0,000 mm 0,0 UV-I 18 W/m² 0,4 °C 0,4 °C 6,4 km/h (2 Bft)
04.04.2019 08:08 1,7 °C 91 % 991,2 hPa 0,0 mm 3,0 km/h (1 Bft) N 11 ° 0 min 0,000 mm 0,0 UV-I 18 W/m² 0,4 °C 1,7 °C 4,8 km/h (1 Bft)
04.04.2019 08:09 1,7 °C 91 % 991,1 hPa 0,0 mm 7,4 km/h (2 Bft) NO 45 ° 0 min 0,000 mm 0,0 UV-I 21 W/m² 0,4 °C -0,6 °C 9,7 km/h (2 Bft)
04.04.2019 08:10 1,7 °C 91 % 991,0 hPa 0,0 mm 7,6 km/h (2 Bft) O-NO 66 ° 0 min 0,000 mm 0,0 UV-I 16 W/m² 0,4 °C -0,6 °C 12,9 km/h (3 Bft)
04.04.2019 08:11 1,6 °C 91 % 991,1 hPa 0,0 mm 8,1 km/h (2 Bft) O 80 ° 0 min 0,000 mm 0,0 UV-I 18 W/m² 0,3 °C -0,9 °C 12,9 km/h (3 Bft)
04.04.2019 08:12 1,7 °C 91 % 991,1 hPa 0,0 mm 5,1 km/h (1 Bft) NO 36 ° 0 min 0,000 mm 0,0 UV-I 18 W/m² 0,4 °C 0,3 °C 8,0 km/h (2 Bft)
04.04.2019 08:13 1,7 °C 91 % 991,1 hPa 0,0 mm 4,8 km/h (1 Bft) NO 36 ° 0 min 0,000 mm 0,0 UV-I 28 W/m² 0,4 °C 0,4 °C 6,4 km/h (2 Bft)
04.04.2019 08:14 1,7 °C 91 % 990,8 hPa 0,0 mm 5,8 km/h (2 Bft) NO 53 ° 0 min 0,000 mm 0,0 UV-I 25 W/m² 0,4 °C 0,0 °C 8,0 km/h (2 Bft)
04.04.2019 08:15 1,7 °C 91 % 990,8 hPa 0,0 mm 5,6 km/h (1 Bft) O 84 ° 0 min 0,000 mm 0,0 UV-I 23 W/m² 0,4 °C 0,1 °C 11,3 km/h (2 Bft)
04.04.2019 08:16 1,7 °C 91 % 990,9 hPa 0,0 mm 5,4 km/h (1 Bft) O-NO 69 ° 0 min 0,000 mm 0,0 UV-I 25 W/m² 0,4 °C 0,2 °C 9,7 km/h (2 Bft)
04.04.2019 08:17 1,7 °C 91 % 990,8 hPa 0,0 mm 1,9 km/h (1 Bft) NO 43 ° 0 min 0,000 mm 0,0 UV-I 25 W/m² 0,4 °C 1,7 °C 4,8 km/h (1 Bft)
04.04.2019 08:18 1,7 °C 91 % 990,8 hPa 0,0 mm 1,4 km/h (1 Bft) NO 43 ° 0 min 0,000 mm 0,0 UV-I 19 W/m² 0,4 °C 1,7 °C 3,2 km/h (1 Bft)
04.04.2019 08:19 1,7 °C 91 % 990,8 hPa 0,0 mm 4,2 km/h (1 Bft) O-NO 76 ° 0 min 0,000 mm 0,0 UV-I 18 W/m² 0,4 °C 1,7 °C 8,0 km/h (2 Bft)
04.04.2019 08:20 1,7 °C 91 % 990,8 hPa 0,0 mm 5,2 km/h (1 Bft) O-NO 67 ° 0 min 0,000 mm 0,0 UV-I 19 W/m² 0,4 °C 0,3 °C 8,0 km/h (2 Bft)
04.04.2019 08:21 1,7 °C 91 % 990,8 hPa 0,0 mm 4,7 km/h (1 Bft) O-NO 63 ° 0 min 0,000 mm 0,0 UV-I 18 W/m² 0,4 °C 0,5 °C 8,0 km/h (2 Bft)
04.04.2019 08:22 1,7 °C 91 % 990,8 hPa 0,0 mm 5,2 km/h (1 Bft) O 85 ° 0 min 0,000 mm 0,0 UV-I 14 W/m² 0,4 °C 0,3 °C 8,0 km/h (2 Bft)
04.04.2019 08:23 1,7 °C 91 % 990,9 hPa 0,0 mm 4,0 km/h (1 Bft) NO 47 ° 0 min 0,000 mm 0,0 UV-I 14 W/m² 0,4 °C 1,7 °C 4,8 km/h (1 Bft)
04.04.2019 08:24 1,7 °C 91 % 990,9 hPa 0,0 mm 0,7 km/h (0 Bft) NO 47 ° 0 min 0,000 mm 0,0 UV-I 16 W/m² 0,4 °C 1,7 °C 4,8 km/h (1 Bft)
04.04.2019 08:25 1,7 °C 91 % 990,8 hPa 0,0 mm 2,6 km/h (1 Bft) NO 46 ° 0 min 0,000 mm 0,0 UV-I 19 W/m² 0,4 °C 1,7 °C 6,4 km/h (2 Bft)
04.04.2019 08:26 1,7 °C 91 % 990,8 hPa 0,0 mm 4,1 km/h (1 Bft) O 84 ° 0 min 0,000 mm 0,0 UV-I 18 W/m² 0,4 °C 1,7 °C 4,8 km/h (1 Bft)
04.04.2019 08:27 1,8 °C 91 % 990,8 hPa 0,0 mm 1,0 km/h (0 Bft) NO 46 ° 0 min 0,000 mm 0,0 UV-I 16 W/m² 0,5 °C 1,8 °C 3,2 km/h (1 Bft)
04.04.2019 08:28 1,8 °C 91 % 990,8 hPa 0,0 mm 6,1 km/h (2 Bft) O-NO 68 ° 0 min 0,000 mm 0,0 UV-I 16 W/m² 0,5 °C 0,0 °C 11,3 km/h (2 Bft)
04.04.2019 08:29 1,8 °C 91 % 990,8 hPa 0,0 mm 2,9 km/h (1 Bft) NO 55 ° 0 min 0,000 mm 0,0 UV-I 14 W/m² 0,5 °C 1,8 °C 4,8 km/h (1 Bft)
04.04.2019 08:30 1,8 °C 91 % 990,8 hPa 0,0 mm 2,4 km/h (1 Bft) NO 55 ° 0 min 0,000 mm 0,0 UV-I 16 W/m² 0,5 °C 1,8 °C 4,8 km/h (1 Bft)
04.04.2019 08:31 1,8 °C 91 % 990,9 hPa 0,0 mm 3,6 km/h (1 Bft) NO 53 ° 0 min 0,000 mm 0,0 UV-I 16 W/m² 0,5 °C 1,8 °C 6,4 km/h (2 Bft)
04.04.2019 08:32 1,8 °C 91 % 990,9 hPa 0,0 mm 4,5 km/h (1 Bft) O-NO 60 ° 0 min 0,000 mm 0,0 UV-I 14 W/m² 0,5 °C 1,8 °C 6,4 km/h (2 Bft)
04.04.2019 08:33 1,8 °C 91 % 990,9 hPa 0,0 mm 7,5 km/h (2 Bft) O 80 ° 0 min 0,000 mm 0,0 UV-I 14 W/m² 0,5 °C -0,5 °C 11,3 km/h (2 Bft)
04.04.2019 08:34 1,8 °C 91 % 990,9 hPa 0,0 mm 8,0 km/h (2 Bft) O-NO 65 ° 0 min 0,000 mm 0,0 UV-I 16 W/m² 0,5 °C -0,6 °C 11,3 km/h (2 Bft)
04.04.2019 08:35 1,8 °C 91 % 990,9 hPa 0,0 mm 8,3 km/h (2 Bft) O-NO 73 ° 0 min 0,000 mm 0,0 UV-I 16 W/m² 0,5 °C -0,7 °C 11,3 km/h (2 Bft)
04.04.2019 08:36 1,8 °C 91 % 990,8 hPa 0,0 mm 4,9 km/h (1 Bft) O-NO 59 ° 0 min 0,000 mm 0,0 UV-I 16 W/m² 0,5 °C 0,5 °C 6,4 km/h (2 Bft)
04.04.2019 08:37 1,8 °C 91 % 990,8 hPa 0,0 mm 6,5 km/h (2 Bft) NO 53 ° 0 min 0,000 mm 0,0 UV-I 14 W/m² 0,5 °C -0,1 °C 8,0 km/h (2 Bft)
04.04.2019 08:38 1,8 °C 91 % 990,8 hPa 0,0 mm 6,2 km/h (2 Bft) O-NO 76 ° 0 min 0,000 mm 0,0 UV-I 14 W/m² 0,5 °C -0,0 °C 11,3 km/h (2 Bft)
04.04.2019 08:39 1,8 °C 92 % 990,9 hPa 0,0 mm 6,0 km/h (2 Bft) O-NO 76 ° 0 min 0,000 mm 0,0 UV-I 18 W/m² 0,6 °C 0,0 °C 11,3 km/h (2 Bft)
04.04.2019 08:40 1,8 °C 91 % 990,8 hPa 0,0 mm 4,8 km/h (1 Bft) O-NO 76 ° 0 min 0,000 mm 0,0 UV-I 18 W/m² 0,5 °C 0,5 °C 8,0 km/h (2 Bft)
04.04.2019 08:41 1,8 °C 92 % 990,8 hPa 0,0 mm 5,5 km/h (1 Bft) NO 48 ° 0 min 0,000 mm 0,0 UV-I 19 W/m² 0,6 °C 0,2 °C 9,7 km/h (2 Bft)
04.04.2019 08:42 1,8 °C 92 % 991,0 hPa 0,0 mm 3,7 km/h (1 Bft) O-NO 57 ° 0 min 0,000 mm 0,0 UV-I 19 W/m² 0,6 °C 1,8 °C 6,4 km/h (2 Bft)
04.04.2019 08:43 1,8 °C 92 % 990,9 hPa 0,0 mm 7,3 km/h (2 Bft) O 84 ° 0 min 0,000 mm 0,0 UV-I 21 W/m² 0,6 °C -0,4 °C 11,3 km/h (2 Bft)
04.04.2019 08:44 1,7 °C 92 % 990,9 hPa 0,0 mm 7,8 km/h (2 Bft) O-NO 59 ° 0 min 0,000 mm 0,0 UV-I 21 W/m² 0,5 °C -0,7 °C 12,9 km/h (3 Bft)
04.04.2019 08:45 1,8 °C 92 % 990,9 hPa 0,0 mm 4,8 km/h (1 Bft) O 85 ° 0 min 0,000 mm 0,0 UV-I 25 W/m² 0,6 °C 0,5 °C 6,4 km/h (2 Bft)
04.04.2019 08:46 1,8 °C 92 % 990,8 hPa 0,0 mm 0,9 km/h (0 Bft) O 86 ° 0 min 0,000 mm 0,0 UV-I 25 W/m² 0,6 °C 1,8 °C 3,2 km/h (1 Bft)
04.04.2019 08:47 1,8 °C 92 % 990,9 hPa 0,0 mm 0,3 km/h (0 Bft) NO 54 ° 0 min 0,000 mm 0,0 UV-I 23 W/m² 0,6 °C 1,8 °C 1,6 km/h (1 Bft)
04.04.2019 08:48 1,8 °C 92 % 990,9 hPa 0,0 mm 0,1 km/h (0 Bft) O-NO 67 ° 0 min 0,000 mm 0,0 UV-I 25 W/m² 0,6 °C 1,8 °C 3,2 km/h (1 Bft)
04.04.2019 08:49 1,8 °C 92 % 991,0 hPa 0,0 mm 4,1 km/h (1 Bft) O 82 ° 0 min 0,000 mm 0,0 UV-I 25 W/m² 0,6 °C 1,8 °C 4,8 km/h (1 Bft)
04.04.2019 08:50 1,8 °C 92 % 991,0 hPa 0,0 mm 2,0 km/h (1 Bft) O 82 ° 0 min 0,000 mm 0,0 UV-I 25 W/m² 0,6 °C 1,8 °C 3,2 km/h (1 Bft)
04.04.2019 08:51 1,8 °C 92 % 991,0 hPa 0,0 mm 7,2 km/h (2 Bft) O-NO 60 ° 0 min 0,000 mm 0,0 UV-I 21 W/m² 0,6 °C -0,4 °C 11,3 km/h (2 Bft)
04.04.2019 08:52 1,8 °C 92 % 991,0 hPa 0,0 mm 7,1 km/h (2 Bft) O-NO 68 ° 0 min 0,000 mm 0,0 UV-I 23 W/m² 0,6 °C -0,3 °C 9,7 km/h (2 Bft)
04.04.2019 08:53 1,8 °C 92 % 990,9 hPa 0,0 mm 4,4 km/h (1 Bft) N-NO 19 ° 0 min 0,000 mm 0,0 UV-I 26 W/m² 0,6 °C 1,8 °C 6,4 km/h (2 Bft)
04.04.2019 08:54 1,8 °C 92 % 990,9 hPa 0,0 mm 4,5 km/h (1 Bft) O-NO 77 ° 0 min 0,000 mm 0,0 UV-I 28 W/m² 0,6 °C 1,8 °C 6,4 km/h (2 Bft)
04.04.2019 08:55 1,8 °C 92 % 991,0 hPa 0,0 mm 3,5 km/h (1 Bft) N-NO 25 ° 0 min 0,000 mm 0,0 UV-I 28 W/m² 0,6 °C 1,8 °C 6,4 km/h (2 Bft)
04.04.2019 08:56 1,8 °C 92 % 991,0 hPa 0,0 mm 6,9 km/h (2 Bft) NO 44 ° 0 min 0,000 mm 0,0 UV-I 25 W/m² 0,6 °C -0,3 °C 9,7 km/h (2 Bft)
04.04.2019 08:57 1,8 °C 92 % 991,0 hPa 0,0 mm 5,5 km/h (1 Bft) O-NO 58 ° 0 min 0,000 mm 0,0 UV-I 25 W/m² 0,6 °C 0,2 °C 8,0 km/h (2 Bft)
04.04.2019 08:58 1,8 °C 92 % 991,0 hPa 0,0 mm 6,2 km/h (2 Bft) NO 43 ° 0 min 0,000 mm 0,0 UV-I 25 W/m² 0,6 °C -0,0 °C 8,0 km/h (2 Bft)
04.04.2019 08:59 1,8 °C 92 % 990,9 hPa 0,0 mm 5,2 km/h (1 Bft) SO 124 ° 0 min 0,000 mm 0,0 UV-I 26 W/m² 0,6 °C 0,4 °C 9,7 km/h (2 Bft)
04.04.2019 09:00 1,8 °C 92 % 990,9 hPa 0,0 mm 5,1 km/h (1 Bft) O 84 ° 0 min 0,000 mm 0,0 UV-I 25 W/m² 0,6 °C 0,4 °C 9,7 km/h (2 Bft)
04.04.2019 09:01 1,8 °C 92 % 990,9 hPa 0,0 mm 6,0 km/h (2 Bft) O-NO 74 ° 0 min 0,000 mm 0,0 UV-I 25 W/m² 0,6 °C 0,0 °C 9,7 km/h (2 Bft)
04.04.2019 09:02 1,8 °C 92 % 990,8 hPa 0,0 mm 5,7 km/h (1 Bft) O-NO 76 ° 0 min 0,000 mm 0,0 UV-I 25 W/m² 0,6 °C 0,2 °C 8,0 km/h (2 Bft)
04.04.2019 09:03 1,8 °C 92 % 990,8 hPa 0,0 mm 7,1 km/h (2 Bft) O-NO 63 ° 0 min 0,000 mm 0,0 UV-I 26 W/m² 0,6 °C -0,3 °C 12,9 km/h (3 Bft)
04.04.2019 09:04 1,8 °C 92 % 990,9 hPa 0,0 mm 3,2 km/h (1 Bft) O-NO 58 ° 0 min 0,000 mm 0,0 UV-I 28 W/m² 0,6 °C 1,8 °C 11,3 km/h (2 Bft)
04.04.2019 09:05 1,8 °C 92 % 990,9 hPa 0,0 mm 0,2 km/h (0 Bft) O-NO 58 ° 0 min 0,000 mm 0,0 UV-I 28 W/m² 0,6 °C 1,8 °C 1,6 km/h (1 Bft)
04.04.2019 09:06 1,8 °C 92 % 991,0 hPa 0,0 mm 0,0 km/h (0 Bft) O-NO 58 ° 0 min 0,000 mm 0,0 UV-I 30 W/m² 0,6 °C 1,8 °C 0,0 km/h (0 Bft)
04.04.2019 09:07 1,9 °C 92 % 991,0 hPa 0,0 mm 0,0 km/h (0 Bft) O-NO 58 ° 0 min 0,000 mm 0,0 UV-I 32 W/m² 0,7 °C 1,9 °C 0,0 km/h (0 Bft)
04.04.2019 09:08 1,9 °C 92 % 991,0 hPa 0,0 mm 0,0 km/h (0 Bft) O-NO 58 ° 0 min 0,000 mm 0,0 UV-I 28 W/m² 0,7 °C 1,9 °C 0,0 km/h (0 Bft)
04.04.2019 09:09 1,9 °C 92 % 991,0 hPa 0,0 mm 0,0 km/h (0 Bft) O-NO 58 ° 0 min 0,000 mm 0,0 UV-I 30 W/m² 0,7 °C 1,9 °C 0,0 km/h (0 Bft)
04.04.2019 09:10 1,9 °C 92 % 991,1 hPa 0,0 mm 0,0 km/h (0 Bft) O-NO 58 ° 0 min 0,000 mm 0,0 UV-I 32 W/m² 0,7 °C 1,9 °C 0,0 km/h (0 Bft)
04.04.2019 09:11 1,9 °C 92 % 991,2 hPa 0,0 mm 0,0 km/h (0 Bft) O-NO 58 ° 0 min 0,000 mm 0,0 UV-I 30 W/m² 0,7 °C 1,9 °C 0,0 km/h (0 Bft)
04.04.2019 09:12 1,9 °C 92 % 991,3 hPa 0,0 mm 0,0 km/h (0 Bft) O-NO 58 ° 0 min 0,000 mm 0,0 UV-I 26 W/m² 0,7 °C 1,9 °C 0,0 km/h (0 Bft)
04.04.2019 09:13 1,9 °C 92 % 991,3 hPa 0,0 mm 2,3 km/h (1 Bft) O-NO 58 ° 0 min 0,000 mm 0,0 UV-I 30 W/m² 0,7 °C 1,9 °C 4,8 km/h (1 Bft)
04.04.2019 09:14 1,9 °C 92 % 991,2 hPa 0,0 mm 1,1 km/h (1 Bft) O-NO 58 ° 0 min 0,000 mm 0,0 UV-I 40 W/m² 0,7 °C 1,9 °C 4,8 km/h (1 Bft)
04.04.2019 09:15 1,9 °C 92 % 991,0 hPa 0,0 mm 3,1 km/h (1 Bft) NO 51 ° 0 min 0,000 mm 0,0 UV-I 40 W/m² 0,7 °C 1,9 °C 4,8 km/h (1 Bft)
04.04.2019 09:16 1,9 °C 92 % 991,1 hPa 0,0 mm 0,3 km/h (0 Bft) NO 51 ° 0 min 0,000 mm 0,0 UV-I 39 W/m² 0,7 °C 1,9 °C 1,6 km/h (1 Bft)
04.04.2019 09:17 1,9 °C 92 % 991,1 hPa 0,0 mm 1,8 km/h (1 Bft) O-NO 67 ° 0 min 0,000 mm 0,0 UV-I 37 W/m² 0,7 °C 1,9 °C 6,4 km/h (2 Bft)
04.04.2019 09:18 1,8 °C 92 % 991,2 hPa 0,0 mm 3,9 km/h (1 Bft) O-NO 67 ° 0 min 0,000 mm 0,0 UV-I 39 W/m² 0,6 °C 1,8 °C 6,4 km/h (2 Bft)
04.04.2019 09:19 1,8 °C 92 % 991,2 hPa 0,0 mm 0,0 km/h (0 Bft) O-NO 67 ° 0 min 0,000 mm 0,0 UV-I 42 W/m² 0,6 °C 1,8 °C 0,0 km/h (0 Bft)
04.04.2019 09:20 1,8 °C 92 % 991,3 hPa 0,0 mm 0,1 km/h (0 Bft) O-NO 67 ° 0 min 0,000 mm 0,0 UV-I 39 W/m² 0,6 °C 1,8 °C 1,6 km/h (1 Bft)
04.04.2019 09:21 1,8 °C 92 % 991,3 hPa 0,0 mm 0,0 km/h (0 Bft) O-NO 67 ° 0 min 0,000 mm 0,0 UV-I 37 W/m² 0,6 °C 1,8 °C 0,0 km/h (0 Bft)
04.04.2019 09:22 1,8 °C 92 % 991,4 hPa 0,0 mm 0,0 km/h (0 Bft) O-NO 67 ° 0 min 0,000 mm 0,0 UV-I 39 W/m² 0,6 °C 1,8 °C 0,0 km/h (0 Bft)
04.04.2019 09:23 1,8 °C 92 % 991,3 hPa 0,0 mm 0,0 km/h (0 Bft) O-NO 67 ° 0 min 0,000 mm 0,0 UV-I 39 W/m² 0,6 °C 1,8 °C 0,0 km/h (0 Bft)
04.04.2019 09:24 1,8 °C 92 % 991,2 hPa 0,0 mm 0,0 km/h (0 Bft) O-NO 67 ° 0 min 0,000 mm 0,0 UV-I 39 W/m² 0,6 °C 1,8 °C 0,0 km/h (0 Bft)
04.04.2019 09:25 1,8 °C 92 % 991,2 hPa 0,0 mm 0,0 km/h (0 Bft) O-NO 67 ° 0 min 0,000 mm 0,0 UV-I 42 W/m² 0,6 °C 1,8 °C 0,0 km/h (0 Bft)
04.04.2019 09:26 1,8 °C 92 % 991,2 hPa 0,0 mm 0,0 km/h (0 Bft) O-NO 67 ° 0 min 0,000 mm 0,0 UV-I 46 W/m² 0,6 °C 1,8 °C 0,0 km/h (0 Bft)
04.04.2019 09:27 1,8 °C 92 % 991,2 hPa 0,0 mm 0,0 km/h (0 Bft) O-NO 67 ° 0 min 0,000 mm 0,0 UV-I 47 W/m² 0,6 °C 1,8 °C 0,0 km/h (0 Bft)
04.04.2019 09:28 1,8 °C 92 % 991,2 hPa 0,0 mm 0,0 km/h (0 Bft) O-NO 67 ° 0 min 0,000 mm 0,0 UV-I 49 W/m² 0,6 °C 1,8 °C 0,0 km/h (0 Bft)
04.04.2019 09:29 1,8 °C 92 % 991,3 hPa 0,0 mm 0,0 km/h (0 Bft) W 274 ° 0 min 0,000 mm 0,0 UV-I 51 W/m² 0,6 °C 1,8 °C 0,0 km/h (0 Bft)
04.04.2019 09:30 1,8 °C 92 % 991,3 hPa 0,0 mm 0,0 km/h (0 Bft) W 274 ° 0 min 0,000 mm 0,0 UV-I 53 W/m² 0,6 °C 1,8 °C 0,0 km/h (0 Bft)
04.04.2019 09:31 1,9 °C 92 % 991,4 hPa 0,0 mm 0,0 km/h (0 Bft) W 274 ° 0 min 0,000 mm 0,0 UV-I 51 W/m² 0,7 °C 1,9 °C 0,0 km/h (0 Bft)
04.04.2019 09:32 1,9 °C 92 % 991,4 hPa 0,0 mm 0,1 km/h (0 Bft) W 274 ° 0 min 0,000 mm 0,0 UV-I 49 W/m² 0,7 °C 1,9 °C 1,6 km/h (1 Bft)
04.04.2019 09:33 1,9 °C 92 % 991,3 hPa 0,0 mm 0,0 km/h (0 Bft) W 274 ° 0 min 0,000 mm 0,0 UV-I 53 W/m² 0,7 °C 1,9 °C 0,0 km/h (0 Bft)
04.04.2019 09:34 1,9 °C 92 % 991,3 hPa 0,0 mm 0,0 km/h (0 Bft) W 274 ° 0 min 0,000 mm 0,5 UV-I 60 W/m² 0,7 °C 1,9 °C 0,0 km/h (0 Bft)
04.04.2019 09:35 1,9 °C 92 % 991,3 hPa 0,0 mm 0,3 km/h (0 Bft) W 274 ° 0 min 0,000 mm 0,6 UV-I 67 W/m² 0,7 °C 1,9 °C 1,6 km/h (1 Bft)
04.04.2019 09:36 1,9 °C 92 % 991,2 hPa 0,0 mm 0,3 km/h (0 Bft) W 280 ° 0 min 0,000 mm 0,5 UV-I 67 W/m² 0,7 °C 1,9 °C 1,6 km/h (1 Bft)
04.04.2019 09:37 1,9 °C 92 % 991,3 hPa 0,0 mm 0,0 km/h (0 Bft) W 280 ° 0 min 0,000 mm 0,5 UV-I 60 W/m² 0,7 °C 1,9 °C 0,0 km/h (0 Bft)
04.04.2019 09:38 2,0 °C 92 % 991,3 hPa 0,0 mm 0,0 km/h (0 Bft) W 280 ° 0 min 0,000 mm 0,5 UV-I 60 W/m² 0,8 °C 2,0 °C 0,0 km/h (0 Bft)
04.04.2019 09:39 2,0 °C 92 % 991,4 hPa 0,0 mm 0,0 km/h (0 Bft) W 280 ° 0 min 0,000 mm 0,5 UV-I 62 W/m² 0,8 °C 2,0 °C 0,0 km/h (0 Bft)
04.04.2019 09:40 2,0 °C 92 % 991,5 hPa 0,0 mm 1,1 km/h (1 Bft) W 280 ° 0 min 0,000 mm 0,5 UV-I 62 W/m² 0,8 °C 2,0 °C 4,8 km/h (1 Bft)
04.04.2019 09:41 2,1 °C 92 % 991,6 hPa 0,0 mm 2,6 km/h (1 Bft) W 280 ° 0 min 0,000 mm 0,5 UV-I 60 W/m² 0,9 °C 2,1 °C 4,8 km/h (1 Bft)
04.04.2019 09:42 2,1 °C 92 % 991,6 hPa 0,0 mm 6,1 km/h (2 Bft) W 281 ° 0 min 0,000 mm 0,5 UV-I 58 W/m² 0,9 °C 0,4 °C 6,4 km/h (2 Bft)
04.04.2019 09:43 2,1 °C 92 % 991,7 hPa 0,0 mm 3,2 km/h (1 Bft) W 281 ° 0 min 0,000 mm 0,5 UV-I 56 W/m² 0,9 °C 2,1 °C 6,4 km/h (2 Bft)
04.04.2019 09:44 2,1 °C 92 % 991,7 hPa 0,0 mm 4,0 km/h (1 Bft) N-NW 337 ° 0 min 0,000 mm 0,0 UV-I 54 W/m² 0,9 °C 2,1 °C 4,8 km/h (1 Bft)
04.04.2019 09:45 2,1 °C 92 % 991,7 hPa 0,0 mm 3,8 km/h (1 Bft) NW 305 ° 0 min 0,000 mm 0,5 UV-I 60 W/m² 0,9 °C 2,1 °C 6,4 km/h (2 Bft)
04.04.2019 09:46 2,1 °C 92 % 991,7 hPa 0,0 mm 5,2 km/h (1 Bft) W 263 ° 0 min 0,000 mm 0,5 UV-I 65 W/m² 0,9 °C 0,7 °C 6,4 km/h (2 Bft)
04.04.2019 09:47 2,2 °C 92 % 991,7 hPa 0,0 mm 5,2 km/h (1 Bft) W-SW 250 ° 0 min 0,000 mm 0,6 UV-I 72 W/m² 1,0 °C 0,8 °C 11,3 km/h (2 Bft)
04.04.2019 09:48 2,1 °C 92 % 991,6 hPa 0,0 mm 6,3 km/h (2 Bft) W 273 ° 0 min 0,000 mm 0,6 UV-I 74 W/m² 0,9 °C 0,3 °C 9,7 km/h (2 Bft)
04.04.2019 09:49 2,2 °C 92 % 991,7 hPa 0,0 mm 7,1 km/h (2 Bft) W-NW 294 ° 0 min 0,000 mm 0,6 UV-I 79 W/m² 1,0 °C 0,1 °C 11,3 km/h (2 Bft)
04.04.2019 09:50 2,2 °C 92 % 991,7 hPa 0,0 mm 6,6 km/h (2 Bft) W-NW 288 ° 0 min 0,000 mm 0,6 UV-I 84 W/m² 1,0 °C 0,3 °C 11,3 km/h (2 Bft)
04.04.2019 09:51 2,2 °C 92 % 991,7 hPa 0,0 mm 5,1 km/h (1 Bft) W 277 ° 0 min 0,000 mm 0,7 UV-I 91 W/m² 1,0 °C 0,9 °C 9,7 km/h (2 Bft)
04.04.2019 09:52 2,2 °C 92 % 991,7 hPa 0,0 mm 7,1 km/h (2 Bft) W 263 ° 0 min 0,000 mm 0,8 UV-I 100 W/m² 1,0 °C 0,1 °C 11,3 km/h (2 Bft)
04.04.2019 09:53 2,3 °C 92 % 991,8 hPa 0,0 mm 5,6 km/h (1 Bft) W 275 ° 0 min 0,000 mm 0,9 UV-I 113 W/m² 1,1 °C 0,8 °C 9,7 km/h (2 Bft)
04.04.2019 09:54 2,3 °C 92 % 991,8 hPa 0,0 mm 6,6 km/h (2 Bft) W-SW 252 ° 0 min 0,000 mm 1,1 UV-I 137 W/m² 1,1 °C 0,4 °C 11,3 km/h (2 Bft)
04.04.2019 09:55 2,3 °C 92 % 991,9 hPa 0,0 mm 7,5 km/h (2 Bft) SW 233 ° 0 min 0,000 mm 1,1 UV-I 144 W/m² 1,1 °C 0,1 °C 12,9 km/h (3 Bft)
04.04.2019 09:56 2,4 °C 92 % 991,9 hPa 0,0 mm 5,4 km/h (1 Bft) W-SW 257 ° 0 min 0,000 mm 1,0 UV-I 156 W/m² 1,2 °C 1,0 °C 9,7 km/h (2 Bft)
04.04.2019 09:57 2,4 °C 92 % 991,9 hPa 0,0 mm 4,1 km/h (1 Bft) W 274 ° 0 min 0,000 mm 1,1 UV-I 167 W/m² 1,2 °C 2,4 °C 6,4 km/h (2 Bft)
04.04.2019 09:58 2,6 °C 92 % 991,9 hPa 0,0 mm 4,4 km/h (1 Bft) W-NW 291 ° 0 min 0,000 mm 1,0 UV-I 146 W/m² 1,4 °C 2,6 °C 6,4 km/h (2 Bft)
04.04.2019 09:59 2,7 °C 91 % 991,9 hPa 0,0 mm 3,9 km/h (1 Bft) W 281 ° 0 min 0,000 mm 1,0 UV-I 127 W/m² 1,4 °C 2,7 °C 11,3 km/h (2 Bft)
04.04.2019 10:00 2,7 °C 91 % 991,9 hPa 0,0 mm 10,3 km/h (2 Bft) W 261 ° 0 min 0,000 mm 1,0 UV-I 120 W/m² 1,4 °C -0,2 °C 14,5 km/h (3 Bft)
04.04.2019 10:01 2,7 °C 91 % 991,8 hPa 0,0 mm 8,9 km/h (2 Bft) W 269 ° 0 min 0,025 mm 1,1 UV-I 167 W/m² 1,4 °C 0,2 °C 12,9 km/h (3 Bft)
04.04.2019 10:02 2,7 °C 91 % 991,9 hPa 0,0 mm 5,4 km/h (1 Bft) W-NW 286 ° 0 min 0,000 mm 1,2 UV-I 153 W/m² 1,4 °C 1,3 °C 9,7 km/h (2 Bft)
04.04.2019 10:03 2,8 °C 91 % 991,9 hPa 0,0 mm 6,4 km/h (2 Bft) W-NW 289 ° 0 min 0,000 mm 1,1 UV-I 151 W/m² 1,5 °C 1,1 °C 11,3 km/h (2 Bft)
04.04.2019 10:04 2,8 °C 91 % 992,0 hPa 0,0 mm 12,2 km/h (2 Bft) W-SW 252 ° 0 min 0,000 mm 1,1 UV-I 160 W/m² 1,5 °C -0,4 °C 22,5 km/h (4 Bft)
04.04.2019 10:05 2,9 °C 91 % 992,0 hPa 0,0 mm 16,6 km/h (3 Bft) W-SW 238 ° 0 min 0,000 mm 1,2 UV-I 172 W/m² 1,6 °C -1,1 °C 20,9 km/h (4 Bft)
04.04.2019 10:06 3,0 °C 91 % 992,0 hPa 0,0 mm 15,6 km/h (3 Bft) W 265 ° 0 min 0,000 mm 1,2 UV-I 169 W/m² 1,7 °C -0,8 °C 19,3 km/h (3 Bft)
04.04.2019 10:07 3,0 °C 90 % 992,0 hPa 0,0 mm 14,0 km/h (3 Bft) W 277 ° 0 min 0,000 mm 1,3 UV-I 171 W/m² 1,5 °C -0,5 °C 19,3 km/h (3 Bft)
04.04.2019 10:08 3,1 °C 90 % 992,1 hPa 0,0 mm 12,9 km/h (3 Bft) W 266 ° 0 min 0,000 mm 1,1 UV-I 144 W/m² 1,6 °C -0,2 °C 17,7 km/h (3 Bft)
04.04.2019 10:09 3,1 °C 90 % 992,1 hPa 0,0 mm 12,8 km/h (3 Bft) W 270 ° 0 min 0,000 mm 1,0 UV-I 125 W/m² 1,6 °C -0,2 °C 17,7 km/h (3 Bft)
04.04.2019 10:10 3,2 °C 90 % 992,2 hPa 0,0 mm 9,6 km/h (2 Bft) W-SW 253 ° 0 min 0,000 mm 1,1 UV-I 142 W/m² 1,7 °C 0,6 °C 17,7 km/h (3 Bft)
04.04.2019 10:11 3,2 °C 90 % 992,2 hPa 0,0 mm 13,7 km/h (3 Bft) W 261 ° 0 min 0,000 mm 1,3 UV-I 200 W/m² 1,7 °C -0,2 °C 20,9 km/h (4 Bft)
04.04.2019 10:12 3,2 °C 89 % 992,2 hPa 0,0 mm 14,8 km/h (3 Bft) W-SW 252 ° 0 min 0,000 mm 1,2 UV-I 204 W/m² 1,6 °C -0,4 °C 20,9 km/h (4 Bft)
04.04.2019 10:13 3,2 °C 90 % 992,2 hPa 0,0 mm 15,5 km/h (3 Bft) S-SW 202 ° 0 min 0,000 mm 1,1 UV-I 125 W/m² 1,7 °C -0,6 °C 22,5 km/h (4 Bft)
04.04.2019 10:14 3,2 °C 89 % 992,2 hPa 0,0 mm 14,8 km/h (3 Bft) W-NW 289 ° 0 min 0,000 mm 1,0 UV-I 113 W/m² 1,6 °C -0,4 °C 20,9 km/h (4 Bft)
04.04.2019 10:15 3,2 °C 89 % 992,3 hPa 0,0 mm 7,4 km/h (2 Bft) W-NW 292 ° 0 min 0,000 mm 0,9 UV-I 107 W/m² 1,6 °C 1,2 °C 11,3 km/h (2 Bft)
04.04.2019 10:16 3,2 °C 89 % 992,3 hPa 0,0 mm 10,0 km/h (2 Bft) W-NW 286 ° 0 min 0,000 mm 0,9 UV-I 102 W/m² 1,6 °C 0,5 °C 17,7 km/h (3 Bft)
04.04.2019 10:17 3,2 °C 89 % 992,3 hPa 0,0 mm 12,0 km/h (2 Bft) W-NW 285 ° 0 min 0,000 mm 0,9 UV-I 114 W/m² 1,6 °C 0,1 °C 20,9 km/h (4 Bft)
04.04.2019 10:18 3,1 °C 89 % 992,3 hPa 0,0 mm 9,4 km/h (2 Bft) W-NW 293 ° 0 min 0,000 mm 0,9 UV-I 118 W/m² 1,5 °C 0,5 °C 16,1 km/h (3 Bft)
04.04.2019 10:19 3,1 °C 89 % 992,4 hPa 0,0 mm 7,0 km/h (2 Bft) W-NW 289 ° 0 min 0,000 mm 0,8 UV-I 67 W/m² 1,5 °C 1,2 °C 9,7 km/h (2 Bft)
04.04.2019 10:20 3,1 °C 89 % 992,4 hPa 0,0 mm 5,3 km/h (1 Bft) W 271 ° 0 min 0,000 mm 0,0 UV-I 54 W/m² 1,5 °C 1,8 °C 8,0 km/h (2 Bft)
04.04.2019 10:21 3,1 °C 89 % 992,5 hPa 0,0 mm 10,5 km/h (2 Bft) W-NW 299 ° 0 min 0,000 mm 0,0 UV-I 46 W/m² 1,5 °C 0,3 °C 14,5 km/h (3 Bft)
04.04.2019 10:22 3,0 °C 89 % 992,7 hPa 0,0 mm 14,6 km/h (3 Bft) W 281 ° 0 min 0,000 mm 0,0 UV-I 40 W/m² 1,4 °C -0,6 °C 20,9 km/h (4 Bft)
04.04.2019 10:23 3,0 °C 89 % 992,7 hPa 0,0 mm 11,6 km/h (2 Bft) W-NW 286 ° 0 min 0,000 mm 0,0 UV-I 39 W/m² 1,4 °C -0,1 °C 25,7 km/h (4 Bft)
04.04.2019 10:24 2,9 °C 89 % 992,6 hPa 0,0 mm 11,4 km/h (2 Bft) W-SW 243 ° 0 min 0,000 mm 0,0 UV-I 49 W/m² 1,3 °C -0,2 °C 17,7 km/h (3 Bft)
04.04.2019 10:25 2,9 °C 89 % 992,6 hPa 0,0 mm 16,0 km/h (3 Bft) W 270 ° 0 min 0,000 mm 0,7 UV-I 104 W/m² 1,3 °C -1,0 °C 24,1 km/h (4 Bft)
04.04.2019 10:26 2,9 °C 89 % 992,7 hPa 0,0 mm 11,7 km/h (2 Bft) W 263 ° 0 min 0,000 mm 0,0 UV-I 53 W/m² 1,3 °C -0,2 °C 16,1 km/h (3 Bft)
04.04.2019 10:27 2,9 °C 89 % 992,7 hPa 0,0 mm 13,9 km/h (3 Bft) W 275 ° 0 min 0,000 mm 0,6 UV-I 58 W/m² 1,3 °C -0,6 °C 19,3 km/h (3 Bft)
04.04.2019 10:28 2,9 °C 89 % 992,8 hPa 0,0 mm 12,3 km/h (3 Bft) NW 304 ° 0 min 0,000 mm 0,8 UV-I 109 W/m² 1,3 °C -0,3 °C 17,7 km/h (3 Bft)
04.04.2019 10:29 2,8 °C 89 % 992,7 hPa 0,0 mm 9,1 km/h (2 Bft) W-NW 296 ° 0 min 0,000 mm 0,9 UV-I 148 W/m² 1,2 °C 0,3 °C 14,5 km/h (3 Bft)
04.04.2019 10:30 2,8 °C 89 % 992,7 hPa 0,0 mm 11,2 km/h (2 Bft) NW 319 ° 0 min 0,000 mm 1,0 UV-I 158 W/m² 1,2 °C -0,2 °C 14,5 km/h (3 Bft)
04.04.2019 10:31 2,9 °C 90 % 992,7 hPa 0,0 mm 11,1 km/h (2 Bft) W-NW 282 ° 0 min 0,000 mm 1,0 UV-I 162 W/m² 1,4 °C -0,1 °C 14,5 km/h (3 Bft)
04.04.2019 10:32 2,9 °C 90 % 992,7 hPa 0,0 mm 15,8 km/h (3 Bft) NW 307 ° 0 min 0,000 mm 1,0 UV-I 153 W/m² 1,4 °C -1,0 °C 19,3 km/h (3 Bft)
04.04.2019 10:33 2,9 °C 90 % 992,7 hPa 0,0 mm 9,8 km/h (2 Bft) W-NW 286 ° 0 min 0,000 mm 1,0 UV-I 156 W/m² 1,4 °C 0,2 °C 14,5 km/h (3 Bft)
04.04.2019 10:34 2,9 °C 90 % 992,8 hPa 0,0 mm 15,9 km/h (3 Bft) W-SW 253 ° 0 min 0,000 mm 1,1 UV-I 162 W/m² 1,4 °C -1,0 °C 22,5 km/h (4 Bft)
04.04.2019 10:35 2,9 °C 90 % 992,8 hPa 0,0 mm 11,4 km/h (2 Bft) NW 308 ° 0 min 0,000 mm 1,1 UV-I 162 W/m² 1,4 °C -0,2 °C 17,7 km/h (3 Bft)
04.04.2019 10:36 3,0 °C 90 % 992,8 hPa 0,0 mm 12,3 km/h (3 Bft) NW 313 ° 0 min 0,000 mm 1,0 UV-I 155 W/m² 1,5 °C -0,2 °C 29,0 km/h (5 Bft)
04.04.2019 10:37 3,0 °C 89 % 992,9 hPa 0,0 mm 9,6 km/h (2 Bft) W-SW 253 ° 0 min 0,000 mm 1,3 UV-I 176 W/m² 1,4 °C 0,4 °C 16,1 km/h (3 Bft)
04.04.2019 10:38 3,0 °C 90 % 992,9 hPa 0,0 mm 14,6 km/h (3 Bft) W-NW 296 ° 0 min 0,000 mm 1,3 UV-I 188 W/m² 1,5 °C -0,6 °C 20,9 km/h (4 Bft)
04.04.2019 10:39 3,1 °C 90 % 992,9 hPa 0,0 mm 13,9 km/h (3 Bft) W 276 ° 0 min 0,000 mm 1,3 UV-I 192 W/m² 1,6 °C -0,4 °C 22,5 km/h (4 Bft)
04.04.2019 10:40 3,1 °C 89 % 993,1 hPa 0,0 mm 18,3 km/h (3 Bft) W-NW 293 ° 0 min 0,000 mm 1,2 UV-I 190 W/m² 1,5 °C -1,1 °C 27,4 km/h (4 Bft)
04.04.2019 10:41 3,1 °C 89 % 993,1 hPa 0,0 mm 21,1 km/h (4 Bft) W 267 ° 0 min 0,000 mm 1,2 UV-I 179 W/m² 1,5 °C -1,5 °C 27,4 km/h (4 Bft)
04.04.2019 10:42 3,1 °C 89 % 993,2 hPa 0,0 mm 21,5 km/h (4 Bft) W-SW 248 ° 0 min 0,000 mm 1,2 UV-I 186 W/m² 1,5 °C -1,5 °C 27,4 km/h (4 Bft)
04.04.2019 10:43 3,1 °C 89 % 993,2 hPa 0,0 mm 16,9 km/h (3 Bft) W-NW 290 ° 0 min 0,000 mm 1,2 UV-I 190 W/m² 1,5 °C -0,9 °C 22,5 km/h (4 Bft)
04.04.2019 10:44 3,1 °C 89 % 993,3 hPa 0,0 mm 15,8 km/h (3 Bft) W-SW 246 ° 0 min 0,000 mm 1,3 UV-I 185 W/m² 1,5 °C -0,7 °C 22,5 km/h (4 Bft)
04.04.2019 10:45 3,1 °C 89 % 993,3 hPa 0,0 mm 15,7 km/h (3 Bft) W-SW 246 ° 0 min 0,000 mm 1,4 UV-I 193 W/m² 1,5 °C -0,7 °C 17,7 km/h (3 Bft)
04.04.2019 10:46 3,1 °C 89 % 993,3 hPa 0,0 mm 15,4 km/h (3 Bft) W-NW 294 ° 0 min 0,000 mm 1,4 UV-I 211 W/m² 1,5 °C -0,7 °C 22,5 km/h (4 Bft)
04.04.2019 10:47 3,2 °C 89 % 993,3 hPa 0,0 mm 8,9 km/h (2 Bft) NW 308 ° 0 min 0,000 mm 1,4 UV-I 211 W/m² 1,6 °C 0,8 °C 14,5 km/h (3 Bft)
04.04.2019 10:48 3,3 °C 89 % 993,3 hPa 0,0 mm 7,4 km/h (2 Bft) S-SW 205 ° 0 min 0,000 mm 1,3 UV-I 193 W/m² 1,7 °C 1,3 °C 12,9 km/h (3 Bft)
04.04.2019 10:49 3,3 °C 89 % 993,3 hPa 0,0 mm 11,3 km/h (2 Bft) W 275 ° 0 min 0,000 mm 1,3 UV-I 183 W/m² 1,7 °C 0,3 °C 16,1 km/h (3 Bft)
04.04.2019 10:50 3,3 °C 89 % 993,2 hPa 0,0 mm 11,4 km/h (2 Bft) W-NW 284 ° 0 min 0,000 mm 1,5 UV-I 204 W/m² 1,7 °C 0,3 °C 16,1 km/h (3 Bft)
04.04.2019 10:51 3,4 °C 89 % 993,2 hPa 0,0 mm 13,3 km/h (3 Bft) NW 311 ° 0 min 0,000 mm 1,5 UV-I 241 W/m² 1,8 °C 0,1 °C 20,9 km/h (4 Bft)
04.04.2019 10:52 3,4 °C 89 % 993,2 hPa 0,0 mm 16,7 km/h (3 Bft) W-NW 301 ° 0 min 0,000 mm 1,3 UV-I 183 W/m² 1,8 °C -0,5 °C 22,5 km/h (4 Bft)
04.04.2019 10:53 3,4 °C 88 % 993,2 hPa 0,0 mm 12,1 km/h (2 Bft) W-SW 254 ° 0 min 0,000 mm 1,2 UV-I 181 W/m² 1,6 °C 0,3 °C 17,7 km/h (3 Bft)
04.04.2019 10:54 3,4 °C 88 % 993,3 hPa 0,0 mm 11,3 km/h (2 Bft) W-SW 239 ° 0 min 0,000 mm 1,1 UV-I 179 W/m² 1,6 °C 0,5 °C 14,5 km/h (3 Bft)
04.04.2019 10:55 3,4 °C 88 % 993,3 hPa 0,0 mm 8,4 km/h (2 Bft) W-NW 295 ° 0 min 0,000 mm 1,1 UV-I 162 W/m² 1,6 °C 1,1 °C 12,9 km/h (3 Bft)
04.04.2019 10:56 3,4 °C 88 % 993,3 hPa 0,0 mm 8,0 km/h (2 Bft) W 274 ° 0 min 0,000 mm 1,1 UV-I 160 W/m² 1,6 °C 1,3 °C 17,7 km/h (3 Bft)
04.04.2019 10:57 3,4 °C 88 % 993,3 hPa 0,0 mm 12,1 km/h (2 Bft) W-NW 285 ° 0 min 0,000 mm 1,2 UV-I 195 W/m² 1,6 °C 0,3 °C 22,5 km/h (4 Bft)
04.04.2019 10:58 3,6 °C 89 % 993,3 hPa 0,0 mm 12,7 km/h (3 Bft) W 279 ° 0 min 0,000 mm 1,2 UV-I 185 W/m² 2,0 °C 0,4 °C 17,7 km/h (3 Bft)
04.04.2019 10:59 3,6 °C 89 % 993,3 hPa 0,0 mm 15,1 km/h (3 Bft) W-NW 287 ° 0 min 0,000 mm 1,2 UV-I 178 W/m² 2,0 °C 0,0 °C 27,4 km/h (4 Bft)
04.04.2019 11:00 3,6 °C 88 % 993,3 hPa 0,0 mm 16,4 km/h (3 Bft) W-SW 250 ° 0 min 0,077 mm 1,3 UV-I 202 W/m² 1,8 °C -0,2 °C 24,1 km/h (4 Bft)
04.04.2019 11:01 3,6 °C 88 % 993,3 hPa 0,0 mm 15,6 km/h (3 Bft) W-NW 302 ° 0 min 0,000 mm 1,2 UV-I 181 W/m² 1,8 °C -0,1 °C 20,9 km/h (4 Bft)
04.04.2019 11:02 3,6 °C 88 % 993,3 hPa 0,0 mm 16,3 km/h (3 Bft) W 259 ° 0 min 0,000 mm 1,2 UV-I 179 W/m² 1,8 °C -0,2 °C 22,5 km/h (4 Bft)
04.04.2019 11:03 3,6 °C 88 % 993,4 hPa 0,0 mm 14,2 km/h (3 Bft) W-SW 252 ° 0 min 0,000 mm 1,1 UV-I 153 W/m² 1,8 °C 0,2 °C 17,7 km/h (3 Bft)
04.04.2019 11:04 3,6 °C 88 % 993,4 hPa 0,0 mm 14,5 km/h (3 Bft) W-NW 295 ° 0 min 0,000 mm 1,2 UV-I 160 W/m² 1,8 °C 0,1 °C 17,7 km/h (3 Bft)
04.04.2019 11:05 3,6 °C 88 % 993,5 hPa 0,0 mm 10,7 km/h (2 Bft) W-SW 252 ° 0 min 0,000 mm 1,1 UV-I 156 W/m² 1,8 °C 0,8 °C 16,1 km/h (3 Bft)
04.04.2019 11:06 3,6 °C 88 % 993,5 hPa 0,0 mm 18,2 km/h (3 Bft) W 277 ° 0 min 0,000 mm 1,1 UV-I 134 W/m² 1,8 °C -0,5 °C 24,1 km/h (4 Bft)
04.04.2019 11:07 3,6 °C 87 % 993,5 hPa 0,0 mm 10,6 km/h (2 Bft) SW 236 ° 0 min 0,000 mm 1,1 UV-I 141 W/m² 1,6 °C 0,9 °C 17,7 km/h (3 Bft)
04.04.2019 11:08 3,6 °C 87 % 993,5 hPa 0,0 mm 11,7 km/h (2 Bft) W 263 ° 0 min 0,000 mm 1,1 UV-I 158 W/m² 1,6 °C 0,6 °C 17,7 km/h (3 Bft)
04.04.2019 11:09 3,5 °C 88 % 993,5 hPa 0,0 mm 22,4 km/h (4 Bft) W-SW 257 ° 0 min 0,000 mm 1,3 UV-I 190 W/m² 1,7 °C -1,1 °C 29,0 km/h (5 Bft)
04.04.2019 11:10 3,6 °C 88 % 993,5 hPa 0,0 mm 15,0 km/h (3 Bft) W 274 ° 0 min 0,000 mm 1,4 UV-I 204 W/m² 1,8 °C 0,0 °C 20,9 km/h (4 Bft)
04.04.2019 11:11 3,6 °C 88 % 993,5 hPa 0,0 mm 17,4 km/h (3 Bft) W 271 ° 0 min 0,000 mm 1,7 UV-I 221 W/m² 1,8 °C -0,3 °C 22,5 km/h (4 Bft)
04.04.2019 11:12 3,6 °C 88 % 993,5 hPa 0,0 mm 16,6 km/h (3 Bft) W 261 ° 0 min 0,000 mm 2,3 UV-I 262 W/m² 1,8 °C -0,2 °C 20,9 km/h (4 Bft)
04.04.2019 11:13 3,7 °C 87 % 993,5 hPa 0,0 mm 13,4 km/h (3 Bft) W-NW 295 ° 0 min 0,000 mm 3,3 UV-I 406 W/m² 1,7 °C 0,4 °C 17,7 km/h (3 Bft)
04.04.2019 11:14 3,9 °C 88 % 993,5 hPa 0,0 mm 14,2 km/h (3 Bft) NW 314 ° 0 min 0,000 mm 3,7 UV-I 406 W/m² 2,1 °C 0,5 °C 17,7 km/h (3 Bft)
04.04.2019 11:15 4,1 °C 87 % 993,4 hPa 0,0 mm 12,9 km/h (3 Bft) NW 309 ° 0 min 0,000 mm 3,4 UV-I 406 W/m² 2,1 °C 1,0 °C 19,3 km/h (3 Bft)
04.04.2019 11:16 4,2 °C 87 % 993,5 hPa 0,0 mm 7,5 km/h (2 Bft) NW 307 ° 0 min 0,000 mm 3,1 UV-I 538 W/m² 2,2 °C 2,3 °C 11,3 km/h (2 Bft)
04.04.2019 11:17 4,4 °C 87 % 993,4 hPa 0,0 mm 7,8 km/h (2 Bft) W-SW 253 ° 0 min 0,000 mm 3,3 UV-I 538 W/m² 2,4 °C 2,5 °C 11,3 km/h (2 Bft)
04.04.2019 11:18 4,6 °C 86 % 993,5 hPa 0,0 mm 9,2 km/h (2 Bft) W-SW 238 ° 0 min 0,000 mm 3,1 UV-I 541 W/m² 2,5 °C 2,4 °C 16,1 km/h (3 Bft)
04.04.2019 11:19 4,7 °C 86 % 993,4 hPa 0,0 mm 12,9 km/h (3 Bft) W 265 ° 0 min 0,000 mm 2,8 UV-I 543 W/m² 2,6 °C 1,7 °C 17,7 km/h (3 Bft)
04.04.2019 11:20 4,8 °C 85 % 993,4 hPa 0,0 mm 17,2 km/h (3 Bft) W 276 ° 0 min 0,000 mm 3,3 UV-I 543 W/m² 2,5 °C 1,2 °C 22,5 km/h (4 Bft)
04.04.2019 11:21 5,0 °C 84 % 993,4 hPa 0,0 mm 10,0 km/h (2 Bft) W-NW 284 ° 0 min 0,000 mm 3,7 UV-I 543 W/m² 2,5 °C 2,7 °C 16,1 km/h (3 Bft)
04.04.2019 11:22 5,3 °C 84 % 993,2 hPa 0,0 mm 13,9 km/h (3 Bft) W-NW 286 ° 1 min 0,000 mm 4,2 UV-I 728 W/m² 2,8 °C 2,3 °C 20,9 km/h (4 Bft)
04.04.2019 11:23 5,4 °C 83 % 993,2 hPa 0,0 mm 15,4 km/h (3 Bft) W 273 ° 1 min 0,000 mm 4,0 UV-I 780 W/m² 2,7 °C 2,2 °C 20,9 km/h (4 Bft)
04.04.2019 11:24 5,6 °C 83 % 993,2 hPa 0,0 mm 14,8 km/h (3 Bft) W 269 ° 0 min 0,000 mm 3,5 UV-I 559 W/m² 2,9 °C 2,5 °C 20,9 km/h (4 Bft)
04.04.2019 11:25 5,7 °C 82 % 993,1 hPa 0,0 mm 13,0 km/h (3 Bft) W-NW 289 ° 0 min 0,000 mm 3,2 UV-I 517 W/m² 2,9 °C 2,9 °C 20,9 km/h (4 Bft)
04.04.2019 11:26 5,8 °C 82 % 993,2 hPa 0,0 mm 10,2 km/h (2 Bft) N-NW 329 ° 0 min 0,000 mm 2,8 UV-I 427 W/m² 3,0 °C 3,6 °C 19,3 km/h (3 Bft)
04.04.2019 11:27 5,8 °C 81 % 993,2 hPa 0,0 mm 9,0 km/h (2 Bft) N-NW 342 ° 0 min 0,000 mm 2,6 UV-I 329 W/m² 2,8 °C 3,8 °C 19,3 km/h (3 Bft)
04.04.2019 11:28 5,8 °C 81 % 993,1 hPa 0,0 mm 11,1 km/h (2 Bft) W-NW 283 ° 0 min 0,000 mm 3,4 UV-I 329 W/m² 2,8 °C 3,4 °C 19,3 km/h (3 Bft)
04.04.2019 11:29 5,8 °C 81 % 993,2 hPa 0,0 mm 13,7 km/h (3 Bft) NW 323 ° 0 min 0,000 mm 3,1 UV-I 577 W/m² 2,8 °C 2,9 °C 17,7 km/h (3 Bft)
04.04.2019 11:30 5,9 °C 81 % 993,2 hPa 0,0 mm 16,2 km/h (3 Bft) W 273 ° 0 min 0,000 mm 3,0 UV-I 485 W/m² 2,9 °C 2,7 °C 20,9 km/h (4 Bft)
04.04.2019 11:31 5,9 °C 81 % 993,2 hPa 0,0 mm 17,0 km/h (3 Bft) NW 311 ° 0 min 0,000 mm 2,8 UV-I 462 W/m² 2,9 °C 2,6 °C 22,5 km/h (4 Bft)
04.04.2019 11:32 5,8 °C 80 % 993,2 hPa 0,0 mm 13,5 km/h (3 Bft) W-NW 302 ° 0 min 0,000 mm 2,9 UV-I 469 W/m² 2,6 °C 3,0 °C 17,7 km/h (3 Bft)
04.04.2019 11:33 5,8 °C 80 % 993,2 hPa 0,0 mm 12,7 km/h (3 Bft) W-NW 285 ° 0 min 0,000 mm 2,6 UV-I 454 W/m² 2,6 °C 3,1 °C 16,1 km/h (3 Bft)
04.04.2019 11:34 5,8 °C 81 % 993,1 hPa 0,0 mm 14,2 km/h (3 Bft) W-NW 291 ° 0 min 0,000 mm 2,4 UV-I 454 W/m² 2,8 °C 2,9 °C 24,1 km/h (4 Bft)
04.04.2019 11:35 5,7 °C 81 % 993,2 hPa 0,0 mm 11,7 km/h (2 Bft) W-NW 291 ° 0 min 0,000 mm 2,5 UV-I 383 W/m² 2,7 °C 3,2 °C 20,9 km/h (4 Bft)
04.04.2019 11:36 5,6 °C 80 % 993,2 hPa 0,0 mm 16,6 km/h (3 Bft) W-NW 283 ° 0 min 0,000 mm 2,3 UV-I 348 W/m² 2,4 °C 2,3 °C 24,1 km/h (4 Bft)
04.04.2019 11:37 5,6 °C 80 % 993,3 hPa 0,0 mm 11,5 km/h (2 Bft) N-NW 334 ° 0 min 0,000 mm 2,6 UV-I 396 W/m² 2,4 °C 3,1 °C 20,9 km/h (4 Bft)
04.04.2019 11:38 5,5 °C 80 % 993,3 hPa 0,0 mm 13,1 km/h (3 Bft) W-NW 292 ° 0 min 0,000 mm 2,8 UV-I 475 W/m² 2,3 °C 2,7 °C 25,7 km/h (4 Bft)
04.04.2019 11:39 5,5 °C 80 % 993,2 hPa 0,0 mm 15,6 km/h (3 Bft) N-NW 330 ° 0 min 0,000 mm 3,0 UV-I 446 W/m² 2,3 °C 2,3 °C 19,3 km/h (3 Bft)
04.04.2019 11:40 5,6 °C 81 % 993,1 hPa 0,0 mm 10,7 km/h (2 Bft) W-NW 298 ° 0 min 0,000 mm 3,0 UV-I 446 W/m² 2,6 °C 3,2 °C 17,7 km/h (3 Bft)
04.04.2019 11:41 5,6 °C 81 % 993,2 hPa 0,0 mm 14,7 km/h (3 Bft) NW 318 ° 0 min 0,000 mm 2,5 UV-I 366 W/m² 2,6 °C 2,5 °C 22,5 km/h (4 Bft)
04.04.2019 11:42 5,6 °C 81 % 993,2 hPa 0,0 mm 9,9 km/h (2 Bft) W-NW 286 ° 0 min 0,000 mm 2,7 UV-I 367 W/m² 2,6 °C 3,4 °C 12,9 km/h (3 Bft)
04.04.2019 11:43 5,5 °C 80 % 993,2 hPa 0,0 mm 9,5 km/h (2 Bft) W 277 ° 0 min 0,000 mm 2,7 UV-I 357 W/m² 2,3 °C 3,4 °C 12,9 km/h (3 Bft)
04.04.2019 11:44 5,6 °C 81 % 993,2 hPa 0,0 mm 13,2 km/h (3 Bft) W 276 ° 0 min 0,000 mm 3,0 UV-I 413 W/m² 2,6 °C 2,8 °C 19,3 km/h (3 Bft)
04.04.2019 11:45 5,7 °C 81 % 993,2 hPa 0,0 mm 11,5 km/h (2 Bft) W-NW 290 ° 0 min 0,000 mm 3,5 UV-I 413 W/m² 2,7 °C 3,2 °C 14,5 km/h (3 Bft)
04.04.2019 11:46 5,7 °C 80 % 993,4 hPa 0,0 mm 9,9 km/h (2 Bft) W 274 ° 0 min 0,000 mm 2,9 UV-I 413 W/m² 2,5 °C 3,5 °C 14,5 km/h (3 Bft)
04.04.2019 11:47 5,7 °C 79 % 993,4 hPa 0,0 mm 6,6 km/h (2 Bft) W 273 ° 0 min 0,000 mm 3,0 UV-I 466 W/m² 2,3 °C 4,3 °C 14,5 km/h (3 Bft)
04.04.2019 11:48 5,8 °C 80 % 993,4 hPa 0,0 mm 18,8 km/h (3 Bft) NW 317 ° 0 min 0,000 mm 3,0 UV-I 473 W/m² 2,6 °C 2,2 °C 24,1 km/h (4 Bft)
04.04.2019 11:49 5,7 °C 79 % 993,4 hPa 0,0 mm 9,1 km/h (2 Bft) W-SW 251 ° 0 min 0,000 mm 2,9 UV-I 420 W/m² 2,3 °C 3,7 °C 16,1 km/h (3 Bft)
04.04.2019 11:50 5,6 °C 79 % 993,4 hPa 0,0 mm 9,7 km/h (2 Bft) W-SW 248 ° 0 min 0,000 mm 2,9 UV-I 425 W/m² 2,3 °C 3,4 °C 16,1 km/h (3 Bft)
04.04.2019 11:51 5,6 °C 79 % 993,5 hPa 0,0 mm 13,7 km/h (3 Bft) W-NW 303 ° 0 min 0,000 mm 3,1 UV-I 478 W/m² 2,3 °C 2,7 °C 17,7 km/h (3 Bft)
04.04.2019 11:52 5,6 °C 79 % 993,5 hPa 0,0 mm 10,3 km/h (2 Bft) W-NW 286 ° 0 min 0,000 mm 3,0 UV-I 434 W/m² 2,3 °C 3,3 °C 17,7 km/h (3 Bft)
04.04.2019 11:53 5,6 °C 79 % 993,5 hPa 0,0 mm 11,0 km/h (2 Bft) W-NW 289 ° 0 min 0,000 mm 3,0 UV-I 434 W/m² 2,3 °C 3,2 °C 17,7 km/h (3 Bft)
04.04.2019 11:54 5,7 °C 79 % 993,4 hPa 0,0 mm 9,4 km/h (2 Bft) W 259 ° 0 min 0,000 mm 3,3 UV-I 483 W/m² 2,3 °C 3,6 °C 14,5 km/h (3 Bft)
04.04.2019 11:55 5,7 °C 80 % 993,4 hPa 0,0 mm 11,6 km/h (2 Bft) W-SW 256 ° 0 min 0,000 mm 3,9 UV-I 483 W/m² 2,5 °C 3,2 °C 20,9 km/h (4 Bft)
04.04.2019 11:56 5,8 °C 79 % 993,4 hPa 0,0 mm 13,2 km/h (3 Bft) W 275 ° 0 min 0,000 mm 3,1 UV-I 483 W/m² 2,4 °C 3,0 °C 24,1 km/h (4 Bft)
04.04.2019 11:57 5,8 °C 79 % 993,4 hPa 0,0 mm 11,3 km/h (2 Bft) W-NW 296 ° 0 min 0,000 mm 3,2 UV-I 452 W/m² 2,4 °C 3,4 °C 16,1 km/h (3 Bft)
04.04.2019 11:58 5,9 °C 79 % 993,4 hPa 0,0 mm 13,0 km/h (3 Bft) W-NW 286 ° 0 min 0,000 mm 3,4 UV-I 531 W/m² 2,5 °C 3,2 °C 20,9 km/h (4 Bft)
04.04.2019 11:59 5,9 °C 78 % 993,4 hPa 0,0 mm 9,1 km/h (2 Bft) W-NW 295 ° 0 min 0,000 mm 3,7 UV-I 531 W/m² 2,4 °C 3,9 °C 14,5 km/h (3 Bft)
04.04.2019 12:00 6,1 °C 79 % 993,4 hPa 0,0 mm 10,9 km/h (2 Bft) NW 323 ° 0 min 0,203 mm 4,0 UV-I 531 W/m² 2,7 °C 3,8 °C 16,1 km/h (3 Bft)
04.04.2019 12:01 6,3 °C 80 % 993,4 hPa 0,0 mm 11,1 km/h (2 Bft) N-NW 331 ° 0 min 0,000 mm 2,9 UV-I 531 W/m² 3,1 °C 4,0 °C 19,3 km/h (3 Bft)
04.04.2019 12:02 6,3 °C 79 % 993,4 hPa 0,0 mm 11,0 km/h (2 Bft) W-NW 288 ° 0 min 0,000 mm 3,5 UV-I 446 W/m² 2,9 °C 4,0 °C 16,1 km/h (3 Bft)
04.04.2019 12:03 6,4 °C 79 % 993,5 hPa 0,0 mm 10,7 km/h (2 Bft) W-NW 288 ° 0 min 0,000 mm 3,7 UV-I 527 W/m² 3,0 °C 4,2 °C 17,7 km/h (3 Bft)
04.04.2019 12:04 6,4 °C 78 % 993,5 hPa 0,0 mm 10,0 km/h (2 Bft) W-NW 295 ° 0 min 0,000 mm 3,1 UV-I 466 W/m² 2,8 °C 4,3 °C 14,5 km/h (3 Bft)
04.04.2019 12:05 6,4 °C 77 % 993,5 hPa 0,0 mm 9,2 km/h (2 Bft) W-NW 298 ° 0 min 0,000 mm 3,3 UV-I 466 W/m² 2,7 °C 4,5 °C 12,9 km/h (3 Bft)
04.04.2019 12:06 6,5 °C 78 % 993,4 hPa 0,0 mm 10,9 km/h (2 Bft) W-NW 303 ° 0 min 0,000 mm 3,4 UV-I 466 W/m² 2,9 °C 4,3 °C 19,3 km/h (3 Bft)
04.04.2019 12:07 6,6 °C 78 % 993,3 hPa 0,0 mm 10,2 km/h (2 Bft) NW 317 ° 0 min 0,000 mm 4,2 UV-I 466 W/m² 3,0 °C 4,5 °C 16,1 km/h (3 Bft)
04.04.2019 12:08 6,7 °C 78 % 993,4 hPa 0,0 mm 11,7 km/h (2 Bft) NW 315 ° 0 min 0,000 mm 3,4 UV-I 466 W/m² 3,1 °C 4,4 °C 16,1 km/h (3 Bft)
04.04.2019 12:09 6,7 °C 77 % 993,4 hPa 0,0 mm 10,6 km/h (2 Bft) NW 313 ° 0 min 0,000 mm 3,4 UV-I 594 W/m² 3,0 °C 4,6 °C 16,1 km/h (3 Bft)
04.04.2019 12:10 6,7 °C 78 % 993,4 hPa 0,0 mm 9,7 km/h (2 Bft) W 269 ° 0 min 0,000 mm 3,0 UV-I 413 W/m² 3,1 °C 4,8 °C 16,1 km/h (3 Bft)
04.04.2019 12:11 6,6 °C 76 % 993,6 hPa 0,0 mm 11,2 km/h (2 Bft) W-NW 301 ° 0 min 0,000 mm 3,0 UV-I 410 W/m² 2,7 °C 4,3 °C 16,1 km/h (3 Bft)
04.04.2019 12:12 6,4 °C 76 % 993,6 hPa 0,0 mm 7,0 km/h (2 Bft) N-NW 329 ° 0 min 0,000 mm 3,0 UV-I 439 W/m² 2,5 °C 5,0 °C 11,3 km/h (2 Bft)
04.04.2019 12:13 6,4 °C 78 % 993,7 hPa 0,0 mm 10,6 km/h (2 Bft) N-NW 327 ° 0 min 0,000 mm 3,0 UV-I 429 W/m² 2,8 °C 4,2 °C 16,1 km/h (3 Bft)
04.04.2019 12:14 6,4 °C 77 % 993,6 hPa 0,0 mm 10,5 km/h (2 Bft) W-NW 292 ° 0 min 0,000 mm 3,0 UV-I 427 W/m² 2,7 °C 4,2 °C 17,7 km/h (3 Bft)
04.04.2019 12:15 6,3 °C 78 % 993,6 hPa 0,0 mm 12,1 km/h (2 Bft) W-NW 297 ° 0 min 0,000 mm 3,2 UV-I 464 W/m² 2,8 °C 3,8 °C 17,7 km/h (3 Bft)
04.04.2019 12:16 6,4 °C 78 % 993,6 hPa 0,0 mm 13,3 km/h (3 Bft) N 350 ° 0 min 0,000 mm 4,1 UV-I 427 W/m² 2,8 °C 3,7 °C 19,3 km/h (3 Bft)
04.04.2019 12:17 6,5 °C 78 % 993,6 hPa 0,0 mm 12,4 km/h (3 Bft) W 277 ° 0 min 0,000 mm 3,0 UV-I 373 W/m² 2,9 °C 4,0 °C 19,3 km/h (3 Bft)
04.04.2019 12:18 6,5 °C 78 % 993,7 hPa 0,0 mm 10,5 km/h (2 Bft) W-NW 286 ° 0 min 0,000 mm 2,9 UV-I 357 W/m² 2,9 °C 4,4 °C 14,5 km/h (3 Bft)
04.04.2019 12:19 6,6 °C 78 % 993,7 hPa 0,0 mm 10,7 km/h (2 Bft) W 277 ° 0 min 0,000 mm 2,8 UV-I 359 W/m² 3,0 °C 4,4 °C 14,5 km/h (3 Bft)
04.04.2019 12:20 6,6 °C 77 % 993,7 hPa 0,0 mm 7,6 km/h (2 Bft) W 279 ° 0 min 0,000 mm 2,8 UV-I 371 W/m² 2,9 °C 5,1 °C 12,9 km/h (3 Bft)
04.04.2019 12:21 6,4 °C 76 % 993,8 hPa 0,0 mm 12,6 km/h (3 Bft) NW 313 ° 0 min 0,000 mm 2,9 UV-I 397 W/m² 2,5 °C 3,8 °C 17,7 km/h (3 Bft)
04.04.2019 12:22 6,4 °C 77 % 993,8 hPa 0,0 mm 13,6 km/h (3 Bft) W 281 ° 0 min 0,000 mm 3,0 UV-I 431 W/m² 2,7 °C 3,7 °C 19,3 km/h (3 Bft)
04.04.2019 12:23 6,4 °C 78 % 993,8 hPa 0,0 mm 10,8 km/h (2 Bft) W-NW 291 ° 0 min 0,000 mm 3,0 UV-I 394 W/m² 2,8 °C 4,2 °C 16,1 km/h (3 Bft)
04.04.2019 12:24 6,4 °C 77 % 993,7 hPa 0,0 mm 11,1 km/h (2 Bft) NW 313 ° 0 min 0,000 mm 3,2 UV-I 408 W/m² 2,7 °C 4,1 °C 14,5 km/h (3 Bft)
04.04.2019 12:25 6,5 °C 78 % 993,7 hPa 0,0 mm 10,1 km/h (2 Bft) N-NW 329 ° 0 min 0,000 mm 3,7 UV-I 494 W/m² 2,9 °C 4,4 °C 16,1 km/h (3 Bft)
04.04.2019 12:26 6,7 °C 78 % 993,6 hPa 0,0 mm 10,9 km/h (2 Bft) W-NW 292 ° 0 min 0,000 mm 5,2 UV-I 494 W/m² 3,1 °C 4,5 °C 19,3 km/h (3 Bft)
04.04.2019 12:27 6,7 °C 77 % 993,6 hPa 0,0 mm 8,6 km/h (2 Bft) W-NW 300 ° 1 min 0,000 mm 4,2 UV-I 603 W/m² 3,0 °C 5,0 °C 12,9 km/h (3 Bft)
04.04.2019 12:28 6,8 °C 78 % 993,6 hPa 0,0 mm 12,5 km/h (3 Bft) N-NW 339 ° 1 min 0,000 mm 3,5 UV-I 628 W/m² 3,2 °C 4,4 °C 17,7 km/h (3 Bft)
04.04.2019 12:29 6,8 °C 76 % 993,6 hPa 0,0 mm 12,3 km/h (3 Bft) NW 321 ° 1 min 0,000 mm 4,5 UV-I 628 W/m² 2,9 °C 4,4 °C 16,1 km/h (3 Bft)
04.04.2019 12:30 6,8 °C 76 % 993,7 hPa 0,0 mm 9,4 km/h (2 Bft) W-NW 302 ° 1 min 0,000 mm 4,3 UV-I 628 W/m² 2,9 °C 4,9 °C 14,5 km/h (3 Bft)
04.04.2019 12:31 6,9 °C 77 % 993,6 hPa 0,0 mm 12,2 km/h (2 Bft) NW 320 ° 1 min 0,000 mm 5,3 UV-I 628 W/m² 3,2 °C 4,5 °C 17,7 km/h (3 Bft)
04.04.2019 12:32 7,1 °C 77 % 993,6 hPa 0,0 mm 13,5 km/h (3 Bft) W-NW 296 ° 1 min 0,000 mm 5,3 UV-I 628 W/m² 3,3 °C 4,6 °C 16,1 km/h (3 Bft)
04.04.2019 12:33 7,1 °C 76 % 993,7 hPa 0,0 mm 9,1 km/h (2 Bft) N-NW 329 ° 1 min 0,000 mm 3,2 UV-I 628 W/m² 3,2 °C 5,4 °C 12,9 km/h (3 Bft)
04.04.2019 12:34 6,9 °C 75 % 993,7 hPa 0,0 mm 12,7 km/h (3 Bft) W-NW 284 ° 1 min 0,000 mm 4,6 UV-I 628 W/m² 2,8 °C 4,4 °C 24,1 km/h (4 Bft)
04.04.2019 12:35 6,9 °C 76 % 993,7 hPa 0,0 mm 10,5 km/h (2 Bft) NW 306 ° 1 min 0,000 mm 5,3 UV-I 930 W/m² 3,0 °C 4,8 °C 14,5 km/h (3 Bft)
04.04.2019 12:36 7,1 °C 76 % 993,6 hPa 0,0 mm 13,0 km/h (3 Bft) N-NW 347 ° 1 min 0,000 mm 5,2 UV-I 951 W/m² 3,2 °C 4,6 °C 19,3 km/h (3 Bft)
04.04.2019 12:37 7,4 °C 77 % 993,6 hPa 0,0 mm 11,1 km/h (2 Bft) NW 306 ° 1 min 0,000 mm 3,0 UV-I 951 W/m² 3,6 °C 5,3 °C 19,3 km/h (3 Bft)
04.04.2019 12:38 7,4 °C 75 % 993,6 hPa 0,0 mm 9,7 km/h (2 Bft) NW 309 ° 1 min 0,000 mm 2,7 UV-I 951 W/m² 3,3 °C 5,6 °C 14,5 km/h (3 Bft)
04.04.2019 12:39 7,1 °C 73 % 993,7 hPa 0,0 mm 5,6 km/h (1 Bft) NW 323 ° 0 min 0,000 mm 3,1 UV-I 279 W/m² 2,6 °C 6,3 °C 12,9 km/h (3 Bft)
04.04.2019 12:40 6,9 °C 75 % 993,8 hPa 0,0 mm 3,6 km/h (1 Bft) NW 313 ° 1 min 0,000 mm 5,1 UV-I 865 W/m² 2,8 °C 6,9 °C 4,8 km/h (1 Bft)
04.04.2019 12:41 7,1 °C 77 % 993,7 hPa 0,0 mm 9,1 km/h (2 Bft) W-NW 299 ° 1 min 0,000 mm 5,0 UV-I 844 W/m² 3,3 °C 5,4 °C 14,5 km/h (3 Bft)
04.04.2019 12:42 7,3 °C 78 % 993,7 hPa 0,0 mm 15,1 km/h (3 Bft) NW 309 ° 1 min 0,000 mm 5,0 UV-I 844 W/m² 3,7 °C 4,6 °C 19,3 km/h (3 Bft)
04.04.2019 12:43 7,6 °C 77 % 993,7 hPa 0,0 mm 16,4 km/h (3 Bft) N-NW 335 ° 1 min 0,000 mm 5,1 UV-I 844 W/m² 3,8 °C 4,8 °C 24,1 km/h (4 Bft)
04.04.2019 12:44 7,7 °C 76 % 993,6 hPa 0,0 mm 12,4 km/h (3 Bft) NW 325 ° 1 min 0,000 mm 5,0 UV-I 835 W/m² 3,7 °C 5,5 °C 20,9 km/h (4 Bft)
04.04.2019 12:45 7,8 °C 76 % 993,6 hPa 0,0 mm 11,3 km/h (2 Bft) N-NW 337 ° 1 min 0,000 mm 5,2 UV-I 875 W/m² 3,8 °C 5,8 °C 16,1 km/h (3 Bft)
04.04.2019 12:46 7,8 °C 74 % 993,6 hPa 0,0 mm 10,5 km/h (2 Bft) W-NW 292 ° 1 min 0,000 mm 4,3 UV-I 875 W/m² 3,5 °C 5,9 °C 17,7 km/h (3 Bft)
04.04.2019 12:47 7,6 °C 73 % 993,6 hPa 0,0 mm 10,7 km/h (2 Bft) W-NW 292 ° 1 min 0,000 mm 5,0 UV-I 875 W/m² 3,1 °C 5,6 °C 17,7 km/h (3 Bft)
04.04.2019 12:48 7,4 °C 74 % 993,6 hPa 0,0 mm 10,1 km/h (2 Bft) NW 315 ° 1 min 0,000 mm 4,9 UV-I 803 W/m² 3,1 °C 5,5 °C 16,1 km/h (3 Bft)
04.04.2019 12:49 7,3 °C 74 % 993,7 hPa 0,0 mm 7,6 km/h (2 Bft) W-NW 284 ° 1 min 0,000 mm 5,1 UV-I 833 W/m² 3,0 °C 5,9 °C 17,7 km/h (3 Bft)
04.04.2019 12:50 7,3 °C 74 % 993,7 hPa 0,0 mm 13,1 km/h (3 Bft) NW 322 ° 1 min 0,000 mm 5,3 UV-I 896 W/m² 3,0 °C 4,9 °C 20,9 km/h (4 Bft)
04.04.2019 12:51 7,3 °C 75 % 993,7 hPa 0,0 mm 18,8 km/h (3 Bft) NW 311 ° 1 min 0,000 mm 3,5 UV-I 896 W/m² 3,2 °C 4,1 °C 25,7 km/h (4 Bft)
04.04.2019 12:52 7,3 °C 76 % 993,7 hPa 0,0 mm 12,3 km/h (3 Bft) N-NW 329 ° 1 min 0,000 mm 3,4 UV-I 896 W/m² 3,4 °C 5,0 °C 20,9 km/h (4 Bft)
04.04.2019 12:53 7,2 °C 74 % 993,7 hPa 0,0 mm 13,4 km/h (3 Bft) NW 321 ° 1 min 0,000 mm 4,5 UV-I 896 W/m² 2,9 °C 4,7 °C 19,3 km/h (3 Bft)
04.04.2019 12:54 7,1 °C 74 % 993,6 hPa 0,0 mm 10,2 km/h (2 Bft) W-NW 294 ° 1 min 0,000 mm 4,7 UV-I 896 W/m² 2,8 °C 5,1 °C 14,5 km/h (3 Bft)
04.04.2019 12:55 6,9 °C 74 % 993,6 hPa 0,0 mm 8,1 km/h (2 Bft) W-NW 284 ° 1 min 0,000 mm 3,2 UV-I 896 W/m² 2,6 °C 5,3 °C 16,1 km/h (3 Bft)
04.04.2019 12:56 6,8 °C 75 % 993,5 hPa 0,0 mm 11,5 km/h (2 Bft) N 360 ° 0 min 0,000 mm 3,4 UV-I 362 W/m² 2,7 °C 4,5 °C 16,1 km/h (3 Bft)
04.04.2019 12:57 6,8 °C 75 % 993,5 hPa 0,0 mm 6,9 km/h (2 Bft) N-NW 336 ° 0 min 0,000 mm 4,0 UV-I 362 W/m² 2,7 °C 5,5 °C 14,5 km/h (3 Bft)
04.04.2019 12:58 6,8 °C 75 % 993,4 hPa 0,0 mm 8,8 km/h (2 Bft) NW 311 ° 1 min 0,000 mm 4,8 UV-I 759 W/m² 2,7 °C 5,1 °C 16,1 km/h (3 Bft)
04.04.2019 12:59 6,9 °C 76 % 993,4 hPa 0,0 mm 8,9 km/h (2 Bft) N-NW 347 ° 1 min 0,000 mm 5,0 UV-I 805 W/m² 3,0 °C 5,2 °C 12,9 km/h (3 Bft)
04.04.2019 13:00 7,1 °C 77 % 993,3 hPa 0,0 mm 8,8 km/h (2 Bft) N 10 ° 1 min 0,279 mm 5,0 UV-I 810 W/m² 3,3 °C 5,4 °C 12,9 km/h (3 Bft)
04.04.2019 13:01 7,2 °C 75 % 993,4 hPa 0,0 mm 11,3 km/h (2 Bft) N-NW 344 ° 1 min 0,000 mm 5,3 UV-I 893 W/m² 3,1 °C 5,0 °C 16,1 km/h (3 Bft)
04.04.2019 13:02 7,3 °C 76 % 993,4 hPa 0,0 mm 6,6 km/h (2 Bft) W-NW 302 ° 1 min 0,000 mm 3,3 UV-I 893 W/m² 3,4 °C 6,2 °C 11,3 km/h (2 Bft)
04.04.2019 13:03 7,3 °C 74 % 993,4 hPa 0,0 mm 5,6 km/h (1 Bft) N-NW 344 ° 0 min 0,000 mm 3,4 UV-I 397 W/m² 3,0 °C 6,5 °C 11,3 km/h (2 Bft)
04.04.2019 13:04 7,2 °C 74 % 993,3 hPa 0,0 mm 4,9 km/h (1 Bft) W 280 ° 1 min 0,000 mm 4,3 UV-I 782 W/m² 2,9 °C 6,6 °C 9,7 km/h (2 Bft)
04.04.2019 13:05 7,3 °C 74 % 993,3 hPa 0,0 mm 9,7 km/h (2 Bft) NW 310 ° 1 min 0,000 mm 5,0 UV-I 833 W/m² 3,0 °C 5,5 °C 17,7 km/h (3 Bft)
04.04.2019 13:06 7,4 °C 76 % 993,2 hPa 0,0 mm 9,1 km/h (2 Bft) N-NW 331 ° 1 min 0,000 mm 5,0 UV-I 812 W/m² 3,5 °C 5,7 °C 16,1 km/h (3 Bft)
04.04.2019 13:07 7,6 °C 75 % 993,2 hPa 0,0 mm 6,9 km/h (2 Bft) W-NW 293 ° 1 min 0,000 mm 5,0 UV-I 823 W/m² 3,5 °C 6,5 °C 9,7 km/h (2 Bft)
04.04.2019 13:08 7,8 °C 75 % 993,3 hPa 0,0 mm 10,4 km/h (2 Bft) NW 315 ° 1 min 0,000 mm 5,1 UV-I 860 W/m² 3,7 °C 5,9 °C 14,5 km/h (3 Bft)
04.04.2019 13:09 7,9 °C 75 % 993,4 hPa 0,0 mm 8,2 km/h (2 Bft) W 273 ° 1 min 0,000 mm 5,3 UV-I 898 W/m² 3,7 °C 6,5 °C 12,9 km/h (3 Bft)
04.04.2019 13:10 8,0 °C 74 % 993,4 hPa 0,0 mm 9,7 km/h (2 Bft) NW 304 ° 1 min 0,000 mm 3,4 UV-I 898 W/m² 3,7 °C 6,3 °C 14,5 km/h (3 Bft)
04.04.2019 13:11 7,9 °C 73 % 993,5 hPa 0,0 mm 6,9 km/h (2 Bft) NW 322 ° 0 min 0,000 mm 3,2 UV-I 388 W/m² 3,4 °C 6,8 °C 14,5 km/h (3 Bft)
04.04.2019 13:12 7,7 °C 73 % 993,4 hPa 0,0 mm 5,2 km/h (1 Bft) N-NW 333 ° 0 min 0,000 mm 3,0 UV-I 343 W/m² 3,2 °C 7,1 °C 8,0 km/h (2 Bft)
04.04.2019 13:13 7,6 °C 74 % 993,5 hPa 0,0 mm 8,4 km/h (2 Bft) N-NW 328 ° 0 min 0,000 mm 3,0 UV-I 320 W/m² 3,3 °C 6,1 °C 16,1 km/h (3 Bft)
04.04.2019 13:14 7,6 °C 74 % 993,4 hPa 0,0 mm 10,1 km/h (2 Bft) NW 309 ° 0 min 0,000 mm 3,0 UV-I 309 W/m² 3,3 °C 5,7 °C 14,5 km/h (3 Bft)
04.04.2019 13:15 7,4 °C 73 % 993,4 hPa 0,0 mm 9,9 km/h (2 Bft) NW 311 ° 0 min 0,000 mm 2,9 UV-I 258 W/m² 2,9 °C 5,5 °C 14,5 km/h (3 Bft)
04.04.2019 13:16 7,3 °C 74 % 993,5 hPa 0,0 mm 6,5 km/h (2 Bft) NW 313 ° 0 min 0,000 mm 2,6 UV-I 221 W/m² 3,0 °C 6,2 °C 9,7 km/h (2 Bft)
04.04.2019 13:17 7,2 °C 74 % 993,5 hPa 0,0 mm 7,1 km/h (2 Bft) NW 324 ° 0 min 0,000 mm 2,5 UV-I 195 W/m² 2,9 °C 5,9 °C 12,9 km/h (3 Bft)
04.04.2019 13:18 7,1 °C 73 % 993,6 hPa 0,0 mm 5,9 km/h (2 Bft) N-NW 329 ° 0 min 0,000 mm 2,6 UV-I 195 W/m² 2,6 °C 6,2 °C 8,0 km/h (2 Bft)
04.04.2019 13:19 6,9 °C 75 % 993,6 hPa 0,0 mm 7,6 km/h (2 Bft) N-NW 329 ° 0 min 0,000 mm 2,9 UV-I 234 W/m² 2,8 °C 5,5 °C 12,9 km/h (3 Bft)
04.04.2019 13:20 6,9 °C 74 % 993,6 hPa 0,0 mm 7,1 km/h (2 Bft) NW 322 ° 0 min 0,000 mm 3,8 UV-I 329 W/m² 2,6 °C 5,6 °C 11,3 km/h (2 Bft)
04.04.2019 13:21 7,1 °C 76 % 993,5 hPa 0,0 mm 5,4 km/h (1 Bft) NW 326 ° 1 min 0,000 mm 5,1 UV-I 824 W/m² 3,2 °C 6,3 °C 8,0 km/h (2 Bft)
04.04.2019 13:22 7,3 °C 76 % 993,5 hPa 0,0 mm 7,0 km/h (2 Bft) N-NW 327 ° 1 min 0,000 mm 5,1 UV-I 840 W/m² 3,4 °C 6,1 °C 9,7 km/h (2 Bft)
04.04.2019 13:23 7,4 °C 76 % 993,4 hPa 0,0 mm 13,1 km/h (3 Bft) W 279 ° 1 min 0,000 mm 5,1 UV-I 856 W/m² 3,5 °C 5,0 °C 19,3 km/h (3 Bft)
04.04.2019 13:24 7,6 °C 73 % 993,4 hPa 0,0 mm 6,9 km/h (2 Bft) NW 316 ° 1 min 0,000 mm 5,2 UV-I 870 W/m² 3,1 °C 6,5 °C 9,7 km/h (2 Bft)
04.04.2019 13:25 7,7 °C 74 % 993,4 hPa 0,0 mm 5,0 km/h (1 Bft) W-NW 296 ° 1 min 0,000 mm 4,9 UV-I 847 W/m² 3,4 °C 7,1 °C 9,7 km/h (2 Bft)
04.04.2019 13:26 7,9 °C 74 % 993,4 hPa 0,0 mm 8,2 km/h (2 Bft) NW 318 ° 1 min 0,000 mm 5,2 UV-I 847 W/m² 3,6 °C 6,5 °C 12,9 km/h (3 Bft)
04.04.2019 13:27 7,9 °C 74 % 993,4 hPa 0,0 mm 5,0 km/h (1 Bft) NW 323 ° 1 min 0,000 mm 5,5 UV-I 909 W/m² 3,6 °C 7,4 °C 9,7 km/h (2 Bft)
04.04.2019 13:28 8,1 °C 74 % 993,4 hPa 0,0 mm 10,4 km/h (2 Bft) N-NO 20 ° 1 min 0,000 mm 5,5 UV-I 909 W/m² 3,8 °C 6,3 °C 16,1 km/h (3 Bft)
04.04.2019 13:29 8,1 °C 74 % 993,4 hPa 0,0 mm 8,4 km/h (2 Bft) N-NW 328 ° 1 min 0,000 mm 3,8 UV-I 909 W/m² 3,8 °C 6,7 °C 14,5 km/h (3 Bft)
04.04.2019 13:30 8,1 °C 73 % 993,3 hPa 0,0 mm 9,1 km/h (2 Bft) N 360 ° 1 min 0,000 mm 3,4 UV-I 909 W/m² 3,6 °C 6,5 °C 14,5 km/h (3 Bft)
04.04.2019 13:31 8,1 °C 73 % 993,4 hPa 0,0 mm 10,1 km/h (2 Bft) N 355 ° 0 min 0,000 mm 3,5 UV-I 443 W/m² 3,6 °C 6,3 °C 17,7 km/h (3 Bft)
04.04.2019 13:32 7,9 °C 72 % 993,4 hPa 0,0 mm 8,2 km/h (2 Bft) NW 319 ° 0 min 0,000 mm 4,2 UV-I 515 W/m² 3,2 °C 6,5 °C 14,5 km/h (3 Bft)
04.04.2019 13:33 7,9 °C 73 % 993,4 hPa 0,0 mm 9,4 km/h (2 Bft) NW 323 ° 0 min 0,000 mm 3,6 UV-I 501 W/m² 3,4 °C 6,2 °C 14,5 km/h (3 Bft)
04.04.2019 13:34 8,0 °C 74 % 993,5 hPa 0,0 mm 8,7 km/h (2 Bft) NW 306 ° 0 min 0,000 mm 3,4 UV-I 471 W/m² 3,7 °C 6,5 °C 12,9 km/h (3 Bft)
04.04.2019 13:35 7,8 °C 73 % 993,4 hPa 0,0 mm 11,3 km/h (2 Bft) NW 317 ° 0 min 0,000 mm 3,1 UV-I 425 W/m² 3,3 °C 5,8 °C 14,5 km/h (3 Bft)
04.04.2019 13:36 7,8 °C 73 % 993,5 hPa 0,0 mm 8,0 km/h (2 Bft) N-NW 332 ° 0 min 0,000 mm 2,7 UV-I 425 W/m² 3,3 °C 6,4 °C 14,5 km/h (3 Bft)
04.04.2019 13:37 7,7 °C 73 % 993,5 hPa 0,0 mm 8,0 km/h (2 Bft) N-NO 13 ° 0 min 0,000 mm 2,6 UV-I 425 W/m² 3,2 °C 6,3 °C 12,9 km/h (3 Bft)
04.04.2019 13:38 7,4 °C 72 % 993,6 hPa 0,0 mm 10,6 km/h (2 Bft) N-NW 338 ° 0 min 0,000 mm 2,9 UV-I 348 W/m² 2,7 °C 5,4 °C 14,5 km/h (3 Bft)
04.04.2019 13:39 7,4 °C 73 % 993,6 hPa 0,0 mm 8,2 km/h (2 Bft) W-NW 292 ° 0 min 0,000 mm 2,7 UV-I 290 W/m² 2,9 °C 5,9 °C 12,9 km/h (3 Bft)
04.04.2019 13:40 7,4 °C 74 % 993,6 hPa 0,0 mm 5,4 km/h (1 Bft) NW 317 ° 0 min 0,000 mm 2,4 UV-I 218 W/m² 3,1 °C 6,7 °C 9,7 km/h (2 Bft)
04.04.2019 13:41 7,3 °C 74 % 993,6 hPa 0,0 mm 8,3 km/h (2 Bft) NW 322 ° 0 min 0,000 mm 2,8 UV-I 255 W/m² 3,0 °C 5,8 °C 12,9 km/h (3 Bft)
04.04.2019 13:42 7,3 °C 74 % 993,6 hPa 0,0 mm 8,5 km/h (2 Bft) N-NW 338 ° 0 min 0,000 mm 2,7 UV-I 322 W/m² 3,0 °C 5,7 °C 12,9 km/h (3 Bft)
04.04.2019 13:43 7,3 °C 74 % 993,6 hPa 0,0 mm 6,9 km/h (2 Bft) N-NW 333 ° 0 min 0,000 mm 2,8 UV-I 325 W/m² 3,0 °C 6,1 °C 12,9 km/h (3 Bft)
04.04.2019 13:44 7,3 °C 74 % 993,6 hPa 0,0 mm 6,4 km/h (2 Bft) NW 316 ° 0 min 0,000 mm 3,0 UV-I 325 W/m² 3,0 °C 6,3 °C 8,0 km/h (2 Bft)
04.04.2019 13:45 7,2 °C 73 % 993,6 hPa 0,0 mm 6,0 km/h (2 Bft) N-NW 329 ° 1 min 0,000 mm 4,3 UV-I 784 W/m² 2,7 °C 6,3 °C 9,7 km/h (2 Bft)
04.04.2019 13:46 7,4 °C 75 % 993,5 hPa 0,0 mm 7,8 km/h (2 Bft) N-NW 341 ° 1 min 0,000 mm 4,5 UV-I 800 W/m² 3,3 °C 6,0 °C 14,5 km/h (3 Bft)
04.04.2019 13:47 7,7 °C 76 % 993,6 hPa 0,0 mm 6,0 km/h (2 Bft) N-NO 21 ° 1 min 0,000 mm 3,5 UV-I 800 W/m² 3,7 °C 6,8 °C 11,3 km/h (2 Bft)
04.04.2019 13:48 7,8 °C 74 % 993,6 hPa 0,0 mm 8,8 km/h (2 Bft) NW 306 ° 1 min 0,000 mm 2,9 UV-I 800 W/m² 3,5 °C 6,2 °C 12,9 km/h (3 Bft)
04.04.2019 13:49 7,9 °C 72 % 993,6 hPa 0,0 mm 6,6 km/h (2 Bft) NW 321 ° 0 min 0,000 mm 2,7 UV-I 350 W/m² 3,2 °C 6,9 °C 9,7 km/h (2 Bft)
04.04.2019 13:50 7,7 °C 72 % 993,7 hPa 0,0 mm 6,3 km/h (2 Bft) NW 315 ° 0 min 0,000 mm 2,7 UV-I 359 W/m² 3,0 °C 6,7 °C 9,7 km/h (2 Bft)
04.04.2019 13:51 7,6 °C 72 % 993,6 hPa 0,0 mm 5,2 km/h (1 Bft) N 349 ° 0 min 0,000 mm 2,7 UV-I 352 W/m² 2,9 °C 7,0 °C 8,0 km/h (2 Bft)
04.04.2019 13:52 7,7 °C 73 % 993,6 hPa 0,0 mm 6,8 km/h (2 Bft) N-NW 329 ° 0 min 0,000 mm 2,7 UV-I 338 W/m² 3,2 °C 6,6 °C 9,7 km/h (2 Bft)
04.04.2019 13:53 7,7 °C 72 % 993,7 hPa 0,0 mm 7,2 km/h (2 Bft) N-NW 329 ° 0 min 0,000 mm 2,7 UV-I 341 W/m² 3,0 °C 6,5 °C 11,3 km/h (2 Bft)
04.04.2019 13:54 7,7 °C 74 % 993,7 hPa 0,0 mm 12,1 km/h (2 Bft) NW 313 ° 0 min 0,000 mm 2,9 UV-I 355 W/m² 3,4 °C 5,5 °C 19,3 km/h (3 Bft)
04.04.2019 13:55 7,7 °C 73 % 993,7 hPa 0,0 mm 7,9 km/h (2 Bft) N-NW 329 ° 0 min 0,000 mm 3,3 UV-I 418 W/m² 3,2 °C 6,3 °C 12,9 km/h (3 Bft)
04.04.2019 13:56 7,8 °C 74 % 993,7 hPa 0,0 mm 8,9 km/h (2 Bft) NW 323 ° 0 min 0,000 mm 3,0 UV-I 396 W/m² 3,5 °C 6,2 °C 12,9 km/h (3 Bft)
04.04.2019 13:57 7,7 °C 73 % 993,7 hPa 0,0 mm 8,0 km/h (2 Bft) NW 315 ° 0 min 0,000 mm 4,0 UV-I 396 W/m² 3,2 °C 6,3 °C 12,9 km/h (3 Bft)
04.04.2019 13:58 7,8 °C 73 % 993,7 hPa 0,0 mm 6,2 km/h (2 Bft) W-NW 283 ° 0 min 0,000 mm 4,0 UV-I 396 W/m² 3,3 °C 6,9 °C 11,3 km/h (2 Bft)
04.04.2019 13:59 7,9 °C 74 % 993,7 hPa 0,0 mm 6,1 km/h (2 Bft) NW 321 ° 1 min 0,000 mm 4,3 UV-I 756 W/m² 3,6 °C 7,0 °C 12,9 km/h (3 Bft)
04.04.2019 14:00 8,1 °C 74 % 993,7 hPa 0,0 mm 11,7 km/h (2 Bft) N-NW 327 ° 1 min 0,000 mm 3,8 UV-I 756 W/m² 3,8 °C 6,1 °C 14,5 km/h (3 Bft)
04.04.2019 14:01 8,2 °C 72 % 993,8 hPa 0,0 mm 9,0 km/h (2 Bft) W-NW 303 ° 1 min 0,254 mm 2,9 UV-I 756 W/m² 3,5 °C 6,7 °C 14,5 km/h (3 Bft)
04.04.2019 14:02 8,2 °C 72 % 993,8 hPa 0,0 mm 11,4 km/h (2 Bft) N-NW 329 ° 0 min 0,000 mm 3,7 UV-I 585 W/m² 3,5 °C 6,2 °C 17,7 km/h (3 Bft)
04.04.2019 14:03 8,2 °C 73 % 993,8 hPa 0,0 mm 13,6 km/h (3 Bft) NW 306 ° 0 min 0,000 mm 2,7 UV-I 585 W/m² 3,7 °C 5,9 °C 17,7 km/h (3 Bft)
04.04.2019 14:04 8,1 °C 72 % 993,9 hPa 0,0 mm 4,6 km/h (1 Bft) W 273 ° 0 min 0,000 mm 2,5 UV-I 346 W/m² 3,4 °C 7,7 °C 11,3 km/h (2 Bft)
04.04.2019 14:05 8,0 °C 73 % 994,0 hPa 0,0 mm 9,5 km/h (2 Bft) NW 307 ° 0 min 0,000 mm 2,5 UV-I 352 W/m² 3,5 °C 6,3 °C 12,9 km/h (3 Bft)
04.04.2019 14:06 8,0 °C 73 % 993,9 hPa 0,0 mm 12,4 km/h (3 Bft) N-NW 336 ° 0 min 0,000 mm 2,5 UV-I 362 W/m² 3,5 °C 5,8 °C 19,3 km/h (3 Bft)
04.04.2019 14:07 8,1 °C 74 % 994,0 hPa 0,0 mm 14,5 km/h (3 Bft) NW 323 ° 0 min 0,000 mm 2,6 UV-I 390 W/m² 3,8 °C 5,6 °C 17,7 km/h (3 Bft)
04.04.2019 14:08 8,1 °C 73 % 994,0 hPa 0,0 mm 10,6 km/h (2 Bft) NW 309 ° 0 min 0,000 mm 2,7 UV-I 376 W/m² 3,6 °C 6,3 °C 14,5 km/h (3 Bft)
04.04.2019 14:09 7,9 °C 72 % 994,0 hPa 0,0 mm 9,9 km/h (2 Bft) NW 316 ° 0 min 0,000 mm 2,6 UV-I 367 W/m² 3,2 °C 6,1 °C 14,5 km/h (3 Bft)
04.04.2019 14:10 7,8 °C 72 % 994,1 hPa 0,0 mm 8,9 km/h (2 Bft) NW 312 ° 0 min 0,000 mm 2,4 UV-I 341 W/m² 3,1 °C 6,2 °C 14,5 km/h (3 Bft)
04.04.2019 14:11 7,9 °C 73 % 994,1 hPa 0,0 mm 6,9 km/h (2 Bft) W-NW 302 ° 0 min 0,000 mm 2,3 UV-I 320 W/m² 3,4 °C 6,8 °C 14,5 km/h (3 Bft)
04.04.2019 14:12 7,9 °C 74 % 994,2 hPa 0,0 mm 9,8 km/h (2 Bft) NW 325 ° 0 min 0,000 mm 2,0 UV-I 281 W/m² 3,6 °C 6,2 °C 16,1 km/h (3 Bft)
04.04.2019 14:13 7,8 °C 73 % 994,2 hPa 0,0 mm 17,0 km/h (3 Bft) NW 318 ° 0 min 0,000 mm 1,8 UV-I 230 W/m² 3,3 °C 4,9 °C 22,5 km/h (4 Bft)
04.04.2019 14:14 7,9 °C 74 % 994,1 hPa 0,0 mm 14,1 km/h (3 Bft) W-NW 287 ° 0 min 0,000 mm 1,9 UV-I 236 W/m² 3,6 °C 5,4 °C 24,1 km/h (4 Bft)
04.04.2019 14:15 7,9 °C 74 % 994,2 hPa 0,0 mm 11,1 km/h (2 Bft) NW 308 ° 0 min 0,000 mm 1,9 UV-I 250 W/m² 3,6 °C 5,9 °C 19,3 km/h (3 Bft)
04.04.2019 14:16 7,8 °C 72 % 994,2 hPa 0,0 mm 9,0 km/h (2 Bft) W-SW 258 ° 0 min 0,000 mm 2,0 UV-I 271 W/m² 3,1 °C 6,2 °C 12,9 km/h (3 Bft)
04.04.2019 14:17 7,7 °C 74 % 994,3 hPa 0,0 mm 8,3 km/h (2 Bft) NW 304 ° 0 min 0,000 mm 2,1 UV-I 288 W/m² 3,4 °C 6,2 °C 14,5 km/h (3 Bft)
04.04.2019 14:18 7,8 °C 74 % 994,3 hPa 0,0 mm 9,8 km/h (2 Bft) W-SW 257 ° 0 min 0,000 mm 2,2 UV-I 318 W/m² 3,5 °C 6,0 °C 16,1 km/h (3 Bft)
04.04.2019 14:19 7,8 °C 74 % 994,3 hPa 0,0 mm 17,3 km/h (3 Bft) W-NW 282 ° 0 min 0,000 mm 2,2 UV-I 299 W/m² 3,5 °C 4,9 °C 22,5 km/h (4 Bft)
04.04.2019 14:20 7,8 °C 73 % 994,2 hPa 0,0 mm 10,5 km/h (2 Bft) NW 309 ° 0 min 0,000 mm 2,2 UV-I 294 W/m² 3,3 °C 5,9 °C 19,3 km/h (3 Bft)
04.04.2019 14:21 7,7 °C 72 % 994,2 hPa 0,0 mm 14,2 km/h (3 Bft) W-NW 294 ° 0 min 0,000 mm 2,2 UV-I 302 W/m² 3,0 °C 5,2 °C 17,7 km/h (3 Bft)
04.04.2019 14:22 7,6 °C 73 % 994,2 hPa 0,0 mm 11,2 km/h (2 Bft) NW 305 ° 0 min 0,000 mm 2,3 UV-I 320 W/m² 3,1 °C 5,5 °C 16,1 km/h (3 Bft)
04.04.2019 14:23 7,6 °C 74 % 994,1 hPa 0,0 mm 11,7 km/h (2 Bft) W-NW 294 ° 0 min 0,000 mm 2,3 UV-I 320 W/m² 3,3 °C 5,5 °C 17,7 km/h (3 Bft)
04.04.2019 14:24 7,6 °C 74 % 994,1 hPa 0,0 mm 15,5 km/h (3 Bft) W-NW 289 ° 0 min 0,000 mm 2,3 UV-I 301 W/m² 3,3 °C 4,9 °C 19,3 km/h (3 Bft)
04.04.2019 14:25 7,6 °C 73 % 994,2 hPa 0,0 mm 11,3 km/h (2 Bft) W-NW 282 ° 0 min 0,000 mm 2,1 UV-I 271 W/m² 3,1 °C 5,5 °C 17,7 km/h (3 Bft)
04.04.2019 14:26 7,7 °C 74 % 994,2 hPa 0,0 mm 15,0 km/h (3 Bft) W-NW 285 ° 0 min 0,000 mm 1,9 UV-I 272 W/m² 3,4 °C 5,1 °C 20,9 km/h (4 Bft)
04.04.2019 14:27 7,7 °C 74 % 994,3 hPa 0,0 mm 16,3 km/h (3 Bft) W-NW 298 ° 0 min 0,000 mm 1,9 UV-I 283 W/m² 3,4 °C 4,9 °C 24,1 km/h (4 Bft)
04.04.2019 14:28 7,6 °C 73 % 994,4 hPa 0,0 mm 15,5 km/h (3 Bft) W 277 ° 0 min 0,000 mm 1,9 UV-I 269 W/m² 3,1 °C 4,9 °C 24,1 km/h (4 Bft)
04.04.2019 14:29 7,6 °C 73 % 994,4 hPa 0,0 mm 17,6 km/h (3 Bft) W-NW 286 ° 0 min 0,000 mm 1,7 UV-I 246 W/m² 3,1 °C 4,6 °C 22,5 km/h (4 Bft)
04.04.2019 14:30 7,6 °C 74 % 994,5 hPa 0,0 mm 7,9 km/h (2 Bft) NW 314 ° 0 min 0,000 mm 1,7 UV-I 211 W/m² 3,3 °C 6,2 °C 12,9 km/h (3 Bft)
04.04.2019 14:31 7,6 °C 74 % 994,5 hPa 0,0 mm 8,4 km/h (2 Bft) W 268 ° 0 min 0,000 mm 1,4 UV-I 197 W/m² 3,3 °C 6,1 °C 14,5 km/h (3 Bft)
04.04.2019 14:32 7,4 °C 74 % 994,5 hPa 0,0 mm 14,1 km/h (3 Bft) W 274 ° 0 min 0,000 mm 1,4 UV-I 200 W/m² 3,1 °C 4,8 °C 19,3 km/h (3 Bft)
04.04.2019 14:33 7,3 °C 74 % 994,5 hPa 0,0 mm 6,0 km/h (2 Bft) W 271 ° 0 min 0,000 mm 1,4 UV-I 197 W/m² 3,0 °C 6,4 °C 11,3 km/h (2 Bft)
04.04.2019 14:34 7,3 °C 74 % 994,5 hPa 0,0 mm 15,0 km/h (3 Bft) NW 317 ° 0 min 0,000 mm 1,3 UV-I 178 W/m² 3,0 °C 4,6 °C 22,5 km/h (4 Bft)
04.04.2019 14:35 7,2 °C 74 % 994,5 hPa 0,0 mm 12,9 km/h (3 Bft) W-NW 288 ° 0 min 0,000 mm 1,2 UV-I 160 W/m² 2,9 °C 4,8 °C 17,7 km/h (3 Bft)
04.04.2019 14:36 7,2 °C 74 % 994,6 hPa 0,0 mm 14,2 km/h (3 Bft) W-NW 300 ° 0 min 0,000 mm 1,2 UV-I 162 W/m² 2,9 °C 4,6 °C 16,1 km/h (3 Bft)
04.04.2019 14:37 7,1 °C 74 % 994,6 hPa 0,0 mm 12,0 km/h (2 Bft) W-NW 285 ° 0 min 0,000 mm 1,2 UV-I 167 W/m² 2,8 °C 4,8 °C 17,7 km/h (3 Bft)
04.04.2019 14:38 7,1 °C 75 % 994,6 hPa 0,0 mm 12,6 km/h (3 Bft) W 261 ° 0 min 0,000 mm 1,2 UV-I 165 W/m² 3,0 °C 4,7 °C 20,9 km/h (4 Bft)
04.04.2019 14:39 7,1 °C 75 % 994,6 hPa 0,0 mm 11,5 km/h (2 Bft) W 261 ° 0 min 0,000 mm 1,2 UV-I 165 W/m² 3,0 °C 4,9 °C 14,5 km/h (3 Bft)
04.04.2019 14:40 7,1 °C 75 % 994,6 hPa 0,0 mm 16,8 km/h (3 Bft) W 270 ° 0 min 0,000 mm 1,2 UV-I 163 W/m² 3,0 °C 4,1 °C 22,5 km/h (4 Bft)
04.04.2019 14:41 7,1 °C 75 % 994,7 hPa 0,0 mm 14,6 km/h (3 Bft) W-NW 300 ° 0 min 0,000 mm 1,2 UV-I 167 W/m² 3,0 °C 4,4 °C 19,3 km/h (3 Bft)
04.04.2019 14:42 7,1 °C 75 % 994,8 hPa 0,0 mm 12,2 km/h (2 Bft) W 273 ° 0 min 0,000 mm 1,2 UV-I 169 W/m² 3,0 °C 4,8 °C 16,1 km/h (3 Bft)
04.04.2019 14:43 7,1 °C 75 % 994,8 hPa 0,0 mm 12,3 km/h (3 Bft) W 275 ° 0 min 0,000 mm 1,1 UV-I 158 W/m² 3,0 °C 4,8 °C 20,9 km/h (4 Bft)
04.04.2019 14:44 7,1 °C 75 % 994,8 hPa 0,0 mm 14,9 km/h (3 Bft) W-NW 289 ° 0 min 0,000 mm 1,1 UV-I 156 W/m² 3,0 °C 4,4 °C 20,9 km/h (4 Bft)
04.04.2019 14:45 7,1 °C 75 % 994,8 hPa 0,0 mm 14,9 km/h (3 Bft) W 259 ° 0 min 0,000 mm 1,0 UV-I 139 W/m² 3,0 °C 4,4 °C 19,3 km/h (3 Bft)
04.04.2019 14:46 7,1 °C 75 % 994,8 hPa 0,0 mm 8,8 km/h (2 Bft) NW 319 ° 0 min 0,000 mm 0,9 UV-I 111 W/m² 3,0 °C 5,4 °C 14,5 km/h (3 Bft)
04.04.2019 14:47 7,1 °C 75 % 994,8 hPa 0,0 mm 11,8 km/h (2 Bft) W 265 ° 0 min 0,000 mm 0,8 UV-I 104 W/m² 3,0 °C 4,8 °C 19,3 km/h (3 Bft)
04.04.2019 14:48 7,0 °C 75 % 994,8 hPa 0,0 mm 13,0 km/h (3 Bft) W-NW 298 ° 0 min 0,000 mm 0,8 UV-I 120 W/m² 2,9 °C 4,5 °C 16,1 km/h (3 Bft)
04.04.2019 14:49 7,0 °C 75 % 994,9 hPa 0,0 mm 15,0 km/h (3 Bft) W-NW 288 ° 0 min 0,000 mm 0,9 UV-I 130 W/m² 2,9 °C 4,2 °C 22,5 km/h (4 Bft)
04.04.2019 14:50 6,9 °C 75 % 995,0 hPa 0,0 mm 16,2 km/h (3 Bft) W-SW 255 ° 0 min 0,000 mm 1,0 UV-I 135 W/m² 2,8 °C 3,9 °C 25,7 km/h (4 Bft)
04.04.2019 14:51 6,8 °C 75 % 995,1 hPa 0,0 mm 14,8 km/h (3 Bft) W-SW 252 ° 0 min 0,000 mm 1,0 UV-I 135 W/m² 2,7 °C 4,0 °C 20,9 km/h (4 Bft)
04.04.2019 14:52 6,8 °C 75 % 995,1 hPa 0,0 mm 19,7 km/h (3 Bft) W-SW 256 ° 0 min 0,000 mm 0,9 UV-I 130 W/m² 2,7 °C 3,4 °C 27,4 km/h (4 Bft)
04.04.2019 14:53 6,7 °C 75 % 995,2 hPa 0,0 mm 16,5 km/h (3 Bft) W-NW 303 ° 0 min 0,000 mm 0,9 UV-I 120 W/m² 2,6 °C 3,6 °C 27,4 km/h (4 Bft)
04.04.2019 14:54 6,7 °C 76 % 995,3 hPa 0,0 mm 18,8 km/h (3 Bft) NW 317 ° 0 min 0,000 mm 0,8 UV-I 90 W/m² 2,8 °C 3,4 °C 29,0 km/h (5 Bft)
04.04.2019 14:55 6,6 °C 76 % 995,4 hPa 0,0 mm 14,6 km/h (3 Bft) NW 310 ° 0 min 0,000 mm 0,7 UV-I 88 W/m² 2,7 °C 3,8 °C 22,5 km/h (4 Bft)
04.04.2019 14:56 6,5 °C 76 % 995,5 hPa 0,0 mm 16,0 km/h (3 Bft) W-NW 301 ° 0 min 0,000 mm 0,7 UV-I 90 W/m² 2,6 °C 3,5 °C 20,9 km/h (4 Bft)
04.04.2019 14:57 6,4 °C 76 % 995,4 hPa 0,0 mm 11,4 km/h (2 Bft) N-NW 327 ° 0 min 0,000 mm 0,7 UV-I 91 W/m² 2,5 °C 4,1 °C 17,7 km/h (3 Bft)
04.04.2019 14:58 6,4 °C 76 % 995,3 hPa 0,0 mm 10,7 km/h (2 Bft) NW 304 ° 0 min 0,000 mm 0,6 UV-I 77 W/m² 2,5 °C 4,2 °C 16,1 km/h (3 Bft)
04.04.2019 14:59 6,3 °C 76 % 995,4 hPa 0,0 mm 12,7 km/h (3 Bft) NW 315 ° 0 min 0,000 mm 0,5 UV-I 58 W/m² 2,4 °C 3,7 °C 22,5 km/h (4 Bft)
04.04.2019 15:00 6,2 °C 76 % 995,5 hPa 0,0 mm 16,9 km/h (3 Bft) NW 305 ° 0 min 0,000 mm 0,5 UV-I 51 W/m² 2,3 °C 3,0 °C 20,9 km/h (4 Bft)
04.04.2019 15:01 6,2 °C 77 % 995,5 hPa 0,0 mm 17,3 km/h (3 Bft) W 278 ° 0 min 0,127 mm 0,0 UV-I 49 W/m² 2,5 °C 2,9 °C 22,5 km/h (4 Bft)
04.04.2019 15:02 6,1 °C 77 % 995,6 hPa 0,0 mm 15,4 km/h (3 Bft) W-NW 295 ° 0 min 0,000 mm 0,0 UV-I 53 W/m² 2,4 °C 3,0 °C 20,9 km/h (4 Bft)
04.04.2019 15:03 6,0 °C 77 % 995,6 hPa 0,0 mm 14,4 km/h (3 Bft) W 278 ° 0 min 0,000 mm 0,0 UV-I 53 W/m² 2,3 °C 3,1 °C 22,5 km/h (4 Bft)
04.04.2019 15:04 5,9 °C 77 % 995,7 hPa 0,0 mm 20,7 km/h (4 Bft) W-NW 286 ° 0 min 0,000 mm 0,0 UV-I 49 W/m² 2,2 °C 2,1 °C 29,0 km/h (5 Bft)
04.04.2019 15:05 5,8 °C 77 % 995,7 hPa 0,0 mm 14,5 km/h (3 Bft) W 273 ° 0 min 0,000 mm 0,0 UV-I 53 W/m² 2,1 °C 2,8 °C 24,1 km/h (4 Bft)
04.04.2019 15:06 5,8 °C 77 % 995,7 hPa 0,0 mm 16,5 km/h (3 Bft) W-NW 289 ° 0 min 0,000 mm 0,0 UV-I 53 W/m² 2,1 °C 2,5 °C 22,5 km/h (4 Bft)
04.04.2019 15:07 5,7 °C 78 % 995,7 hPa 0,0 mm 17,6 km/h (3 Bft) W 262 ° 0 min 0,000 mm 0,0 UV-I 53 W/m² 2,2 °C 2,2 °C 22,5 km/h (4 Bft)
04.04.2019 15:08 5,7 °C 78 % 995,7 hPa 0,0 mm 13,9 km/h (3 Bft) NW 306 ° 0 min 0,000 mm 0,0 UV-I 54 W/m² 2,2 °C 2,8 °C 24,1 km/h (4 Bft)
04.04.2019 15:09 5,6 °C 78 % 995,8 hPa 0,0 mm 10,9 km/h (2 Bft) W 265 ° 0 min 0,000 mm 0,5 UV-I 58 W/m² 2,1 °C 3,2 °C 29,0 km/h (5 Bft)
04.04.2019 15:10 5,6 °C 78 % 995,7 hPa 0,0 mm 12,4 km/h (3 Bft) W-NW 291 ° 0 min 0,000 mm 0,5 UV-I 65 W/m² 2,1 °C 2,9 °C 19,3 km/h (3 Bft)
04.04.2019 15:11 5,6 °C 78 % 995,8 hPa 0,0 mm 12,7 km/h (3 Bft) W 269 ° 0 min 0,000 mm 0,6 UV-I 74 W/m² 2,1 °C 2,9 °C 19,3 km/h (3 Bft)
04.04.2019 15:12 5,5 °C 78 % 995,8 hPa 0,0 mm 15,6 km/h (3 Bft) W-NW 288 ° 0 min 0,000 mm 0,6 UV-I 67 W/m² 2,0 °C 2,3 °C 19,3 km/h (3 Bft)
04.04.2019 15:13 5,4 °C 78 % 995,9 hPa 0,0 mm 14,3 km/h (3 Bft) W-NW 289 ° 0 min 0,000 mm 0,5 UV-I 63 W/m² 1,9 °C 2,4 °C 24,1 km/h (4 Bft)
04.04.2019 15:14 5,4 °C 79 % 995,9 hPa 0,0 mm 13,3 km/h (3 Bft) W-NW 282 ° 0 min 0,000 mm 0,5 UV-I 62 W/m² 2,1 °C 2,5 °C 20,9 km/h (4 Bft)
04.04.2019 15:15 5,3 °C 79 % 995,9 hPa 0,0 mm 10,8 km/h (2 Bft) W 274 ° 0 min 0,000 mm 0,5 UV-I 58 W/m² 2,0 °C 2,9 °C 17,7 km/h (3 Bft)
04.04.2019 15:16 5,3 °C 79 % 995,9 hPa 0,0 mm 12,1 km/h (2 Bft) W-NW 292 ° 0 min 0,000 mm 0,5 UV-I 56 W/m² 2,0 °C 2,6 °C 17,7 km/h (3 Bft)
04.04.2019 15:17 5,3 °C 80 % 995,9 hPa 0,0 mm 14,4 km/h (3 Bft) NW 307 ° 0 min 0,000 mm 0,0 UV-I 53 W/m² 2,1 °C 2,2 °C 19,3 km/h (3 Bft)
04.04.2019 15:18 5,3 °C 80 % 995,9 hPa 0,0 mm 17,0 km/h (3 Bft) W-NW 285 ° 0 min 0,000 mm 0,0 UV-I 51 W/m² 2,1 °C 1,8 °C 24,1 km/h (4 Bft)
04.04.2019 15:19 5,2 °C 79 % 995,9 hPa 0,0 mm 13,1 km/h (3 Bft) W-NW 286 ° 0 min 0,000 mm 0,0 UV-I 51 W/m² 1,9 °C 2,3 °C 20,9 km/h (4 Bft)
04.04.2019 15:20 5,2 °C 79 % 995,8 hPa 0,0 mm 17,5 km/h (3 Bft) W 265 ° 0 min 0,000 mm 0,0 UV-I 53 W/m² 1,9 °C 1,6 °C 27,4 km/h (4 Bft)
04.04.2019 15:21 5,2 °C 79 % 995,8 hPa 0,0 mm 18,9 km/h (3 Bft) W 279 ° 0 min 0,000 mm 0,0 UV-I 51 W/m² 1,9 °C 1,5 °C 29,0 km/h (5 Bft)
04.04.2019 15:22 5,1 °C 79 % 995,9 hPa 0,0 mm 17,2 km/h (3 Bft) W 280 ° 0 min 0,000 mm 0,0 UV-I 51 W/m² 1,8 °C 1,6 °C 25,7 km/h (4 Bft)
04.04.2019 15:23 5,1 °C 79 % 995,9 hPa 0,0 mm 14,5 km/h (3 Bft) W 277 ° 0 min 0,000 mm 0,0 UV-I 51 W/m² 1,8 °C 2,0 °C 22,5 km/h (4 Bft)
04.04.2019 15:24 5,0 °C 79 % 995,8 hPa 0,0 mm 16,0 km/h (3 Bft) W 277 ° 0 min 0,000 mm 0,0 UV-I 51 W/m² 1,7 °C 1,6 °C 35,4 km/h (5 Bft)
04.04.2019 15:25 4,9 °C 80 % 995,9 hPa 0,0 mm 15,7 km/h (3 Bft) NW 306 ° 0 min 0,000 mm 0,0 UV-I 49 W/m² 1,7 °C 1,5 °C 24,1 km/h (4 Bft)
04.04.2019 15:26 4,8 °C 80 % 996,0 hPa 0,0 mm 20,2 km/h (4 Bft) W 264 ° 0 min 0,000 mm 0,0 UV-I 46 W/m² 1,6 °C 0,8 °C 29,0 km/h (5 Bft)
04.04.2019 15:27 4,8 °C 80 % 996,0 hPa 0,0 mm 12,5 km/h (3 Bft) W 278 ° 0 min 0,000 mm 0,0 UV-I 46 W/m² 1,6 °C 1,9 °C 20,9 km/h (4 Bft)
04.04.2019 15:28 4,7 °C 80 % 996,0 hPa 0,0 mm 9,5 km/h (2 Bft) W-SW 250 ° 0 min 0,000 mm 0,0 UV-I 44 W/m² 1,6 °C 2,4 °C 16,1 km/h (3 Bft)
04.04.2019 15:29 4,7 °C 81 % 995,9 hPa 0,0 mm 15,0 km/h (3 Bft) W-NW 295 ° 0 min 0,000 mm 0,0 UV-I 44 W/m² 1,7 °C 1,4 °C 27,4 km/h (4 Bft)
04.04.2019 15:30 4,7 °C 81 % 996,0 hPa 0,0 mm 20,5 km/h (4 Bft) W-SW 251 ° 0 min 0,000 mm 0,0 UV-I 46 W/m² 1,7 °C 0,6 °C 38,6 km/h (5 Bft)
04.04.2019 15:31 4,6 °C 81 % 996,1 hPa 0,0 mm 16,1 km/h (3 Bft) NW 321 ° 0 min 0,000 mm 0,0 UV-I 47 W/m² 1,6 °C 1,1 °C 25,7 km/h (4 Bft)
04.04.2019 15:32 4,5 °C 81 % 996,2 hPa 0,0 mm 14,9 km/h (3 Bft) W-NW 288 ° 0 min 0,000 mm 0,0 UV-I 49 W/m² 1,5 °C 1,1 °C 20,9 km/h (4 Bft)
04.04.2019 15:33 4,3 °C 81 % 996,2 hPa 0,0 mm 13,5 km/h (3 Bft) W-NW 287 ° 0 min 0,000 mm 0,0 UV-I 51 W/m² 1,3 °C 1,1 °C 17,7 km/h (3 Bft)
04.04.2019 15:34 4,2 °C 82 % 996,3 hPa 0,0 mm 15,8 km/h (3 Bft) W-NW 294 ° 0 min 0,000 mm 0,0 UV-I 54 W/m² 1,4 °C 0,6 °C 25,7 km/h (4 Bft)
04.04.2019 15:35 4,2 °C 82 % 996,4 hPa 0,0 mm 16,7 km/h (3 Bft) W 272 ° 0 min 0,000 mm 0,5 UV-I 74 W/m² 1,4 °C 0,5 °C 24,1 km/h (4 Bft)
04.04.2019 15:36 4,1 °C 82 % 996,3 hPa 0,0 mm 19,9 km/h (4 Bft) W-NW 298 ° 0 min 0,000 mm 0,5 UV-I 77 W/m² 1,3 °C -0,1 °C 25,7 km/h (4 Bft)
04.04.2019 15:37 4,1 °C 82 % 996,3 hPa 0,0 mm 15,0 km/h (3 Bft) N-NW 338 ° 0 min 0,000 mm 0,5 UV-I 77 W/m² 1,3 °C 0,6 °C 25,7 km/h (4 Bft)
04.04.2019 15:38 3,9 °C 82 % 996,2 hPa 0,0 mm 14,6 km/h (3 Bft) W-SW 258 ° 0 min 0,000 mm 0,5 UV-I 74 W/m² 1,1 °C 0,5 °C 22,5 km/h (4 Bft)
04.04.2019 15:39 3,9 °C 82 % 996,4 hPa 0,0 mm 12,2 km/h (2 Bft) W-NW 299 ° 0 min 0,000 mm 0,5 UV-I 62 W/m² 1,1 °C 0,9 °C 17,7 km/h (3 Bft)
04.04.2019 15:40 3,9 °C 82 % 996,4 hPa 0,0 mm 15,2 km/h (3 Bft) W 280 ° 0 min 0,000 mm 0,0 UV-I 54 W/m² 1,1 °C 0,4 °C 19,3 km/h (3 Bft)
04.04.2019 15:41 3,9 °C 82 % 996,4 hPa 0,0 mm 10,0 km/h (2 Bft) W 280 ° 0 min 0,000 mm 0,0 UV-I 51 W/m² 1,1 °C 1,3 °C 14,5 km/h (3 Bft)
04.04.2019 15:42 3,9 °C 83 % 996,6 hPa 0,0 mm 8,2 km/h (2 Bft) W-NW 302 ° 0 min 0,000 mm 0,0 UV-I 51 W/m² 1,3 °C 1,8 °C 12,9 km/h (3 Bft)
04.04.2019 15:43 3,9 °C 83 % 996,6 hPa 0,0 mm 7,6 km/h (2 Bft) NW 319 ° 0 min 0,000 mm 0,0 UV-I 54 W/m² 1,3 °C 2,0 °C 14,5 km/h (3 Bft)
04.04.2019 15:44 3,9 °C 83 % 996,6 hPa 0,0 mm 15,4 km/h (3 Bft) NW 304 ° 0 min 0,000 mm 0,0 UV-I 51 W/m² 1,3 °C 0,3 °C 20,9 km/h (4 Bft)
04.04.2019 15:45 3,9 °C 83 % 996,6 hPa 0,0 mm 19,8 km/h (3 Bft) W-NW 282 ° 0 min 0,000 mm 0,0 UV-I 44 W/m² 1,3 °C -0,3 °C 29,0 km/h (5 Bft)
04.04.2019 15:46 3,8 °C 83 % 996,8 hPa 0,0 mm 18,3 km/h (3 Bft) W-SW 254 ° 0 min 0,000 mm 0,0 UV-I 44 W/m² 1,2 °C -0,2 °C 25,7 km/h (4 Bft)
04.04.2019 15:47 3,8 °C 83 % 996,8 hPa 0,0 mm 13,4 km/h (3 Bft) W-NW 292 ° 0 min 0,000 mm 0,0 UV-I 46 W/m² 1,2 °C 0,5 °C 20,9 km/h (4 Bft)
04.04.2019 15:48 3,7 °C 83 % 996,8 hPa 0,0 mm 18,9 km/h (3 Bft) W-SW 257 ° 0 min 0,000 mm 0,0 UV-I 44 W/m² 1,1 °C -0,4 °C 27,4 km/h (4 Bft)
04.04.2019 15:49 3,7 °C 83 % 996,8 hPa 0,0 mm 17,3 km/h (3 Bft) W-NW 289 ° 0 min 0,000 mm 0,0 UV-I 42 W/m² 1,1 °C -0,2 °C 22,5 km/h (4 Bft)
04.04.2019 15:50 3,7 °C 83 % 996,8 hPa 0,0 mm 20,0 km/h (4 Bft) W 276 ° 0 min 0,000 mm 0,0 UV-I 40 W/m² 1,1 °C -0,6 °C 27,4 km/h (4 Bft)
04.04.2019 15:51 3,7 °C 83 % 996,9 hPa 0,0 mm 18,0 km/h (3 Bft) W 270 ° 0 min 0,000 mm 0,0 UV-I 40 W/m² 1,1 °C -0,3 °C 25,7 km/h (4 Bft)
04.04.2019 15:52 3,6 °C 83 % 996,8 hPa 0,0 mm 14,9 km/h (3 Bft) W-NW 292 ° 0 min 0,000 mm 0,0 UV-I 40 W/m² 1,0 °C 0,0 °C 25,7 km/h (4 Bft)
04.04.2019 15:53 3,6 °C 83 % 996,9 hPa 0,0 mm 14,8 km/h (3 Bft) W-NW 286 ° 0 min 0,000 mm 0,0 UV-I 42 W/m² 1,0 °C 0,1 °C 20,9 km/h (4 Bft)
04.04.2019 15:54 3,6 °C 83 % 996,9 hPa 0,0 mm 14,2 km/h (3 Bft) W-NW 288 ° 0 min 0,000 mm 0,0 UV-I 42 W/m² 1,0 °C 0,2 °C 19,3 km/h (3 Bft)
04.04.2019 15:55 3,6 °C 83 % 997,0 hPa 0,0 mm 13,2 km/h (3 Bft) W-NW 292 ° 0 min 0,000 mm 0,0 UV-I 44 W/m² 1,0 °C 0,3 °C 17,7 km/h (3 Bft)
04.04.2019 15:56 3,6 °C 84 % 997,0 hPa 0,0 mm 12,5 km/h (3 Bft) W 271 ° 0 min 0,000 mm 0,0 UV-I 49 W/m² 1,2 °C 0,5 °C 17,7 km/h (3 Bft)
04.04.2019 15:57 3,6 °C 84 % 997,0 hPa 0,0 mm 12,6 km/h (3 Bft) W 280 ° 0 min 0,000 mm 0,5 UV-I 60 W/m² 1,2 °C 0,4 °C 16,1 km/h (3 Bft)
04.04.2019 15:58 3,6 °C 84 % 997,0 hPa 0,0 mm 11,1 km/h (2 Bft) W-SW 256 ° 0 min 0,000 mm 0,6 UV-I 84 W/m² 1,2 °C 0,7 °C 16,1 km/h (3 Bft)
04.04.2019 15:59 3,6 °C 84 % 997,0 hPa 0,0 mm 15,5 km/h (3 Bft) W-SW 240 ° 0 min 0,000 mm 0,7 UV-I 91 W/m² 1,2 °C -0,1 °C 19,3 km/h (3 Bft)
04.04.2019 16:00 3,6 °C 84 % 996,9 hPa 0,0 mm 16,1 km/h (3 Bft) W-SW 243 ° 0 min 0,000 mm 0,7 UV-I 90 W/m² 1,2 °C -0,2 °C 25,7 km/h (4 Bft)
04.04.2019 16:01 3,6 °C 84 % 996,9 hPa 0,0 mm 22,5 km/h (4 Bft) W 275 ° 0 min 0,051 mm 0,7 UV-I 90 W/m² 1,2 °C -1,0 °C 30,6 km/h (5 Bft)
04.04.2019 16:02 3,6 °C 83 % 997,0 hPa 0,0 mm 19,1 km/h (3 Bft) W 264 ° 0 min 0,000 mm 0,7 UV-I 88 W/m² 1,0 °C -0,6 °C 27,4 km/h (4 Bft)
04.04.2019 16:03 3,6 °C 83 % 997,0 hPa 0,0 mm 13,2 km/h (3 Bft) W-NW 297 ° 0 min 0,000 mm 0,7 UV-I 93 W/m² 1,0 °C 0,3 °C 22,5 km/h (4 Bft)
04.04.2019 16:04 3,6 °C 83 % 997,1 hPa 0,0 mm 19,1 km/h (3 Bft) W-SW 245 ° 0 min 0,000 mm 0,7 UV-I 98 W/m² 1,0 °C -0,6 °C 27,4 km/h (4 Bft)
04.04.2019 16:05 3,6 °C 82 % 997,0 hPa 0,0 mm 19,6 km/h (3 Bft) W-SW 254 ° 0 min 0,000 mm 0,8 UV-I 113 W/m² 0,8 °C -0,6 °C 33,8 km/h (5 Bft)
04.04.2019 16:06 3,6 °C 82 % 997,0 hPa 0,0 mm 20,8 km/h (4 Bft) W 276 ° 0 min 0,000 mm 0,8 UV-I 114 W/m² 0,8 °C -0,8 °C 30,6 km/h (5 Bft)
04.04.2019 16:07 3,6 °C 81 % 996,9 hPa 0,0 mm 15,5 km/h (3 Bft) W 270 ° 0 min 0,000 mm 0,8 UV-I 116 W/m² 0,7 °C -0,1 °C 22,5 km/h (4 Bft)
04.04.2019 16:08 3,6 °C 82 % 996,9 hPa 0,0 mm 11,5 km/h (2 Bft) W-SW 257 ° 0 min 0,000 mm 0,9 UV-I 120 W/m² 0,8 °C 0,7 °C 24,1 km/h (4 Bft)
04.04.2019 16:09 3,6 °C 81 % 996,8 hPa 0,0 mm 21,3 km/h (4 Bft) W-NW 292 ° 0 min 0,000 mm 1,0 UV-I 134 W/m² 0,7 °C -0,9 °C 27,4 km/h (4 Bft)
04.04.2019 16:10 3,6 °C 81 % 996,8 hPa 0,0 mm 18,8 km/h (3 Bft) W-SW 255 ° 0 min 0,000 mm 1,1 UV-I 160 W/m² 0,7 °C -0,5 °C 25,7 km/h (4 Bft)
04.04.2019 16:11 3,7 °C 81 % 996,7 hPa 0,0 mm 18,9 km/h (3 Bft) W-NW 291 ° 0 min 0,000 mm 1,2 UV-I 165 W/m² 0,7 °C -0,4 °C 27,4 km/h (4 Bft)
04.04.2019 16:12 3,7 °C 81 % 996,7 hPa 0,0 mm 15,2 km/h (3 Bft) W 275 ° 0 min 0,000 mm 1,2 UV-I 171 W/m² 0,7 °C 0,1 °C 24,1 km/h (4 Bft)
04.04.2019 16:13 3,7 °C 80 % 996,8 hPa 0,0 mm 18,6 km/h (3 Bft) W-NW 286 ° 0 min 0,000 mm 1,2 UV-I 176 W/m² 0,6 °C -0,4 °C 27,4 km/h (4 Bft)
04.04.2019 16:14 3,7 °C 80 % 996,9 hPa 0,0 mm 17,5 km/h (3 Bft) W 264 ° 0 min 0,000 mm 1,3 UV-I 179 W/m² 0,6 °C -0,2 °C 24,1 km/h (4 Bft)
04.04.2019 16:15 3,8 °C 80 % 996,9 hPa 0,0 mm 13,6 km/h (3 Bft) W 262 ° 0 min 0,000 mm 1,2 UV-I 179 W/m² 0,7 °C 0,5 °C 17,7 km/h (3 Bft)
04.04.2019 16:16 3,8 °C 80 % 997,0 hPa 0,0 mm 15,0 km/h (3 Bft) W-NW 296 ° 0 min 0,000 mm 1,2 UV-I 167 W/m² 0,7 °C 0,3 °C 27,4 km/h (4 Bft)
04.04.2019 16:17 3,9 °C 79 % 997,1 hPa 0,0 mm 11,0 km/h (2 Bft) W 267 ° 0 min 0,000 mm 1,1 UV-I 156 W/m² 0,6 °C 1,1 °C 19,3 km/h (3 Bft)
04.04.2019 16:18 3,9 °C 79 % 997,2 hPa 0,0 mm 7,1 km/h (2 Bft) W-SW 246 ° 0 min 0,000 mm 1,0 UV-I 148 W/m² 0,6 °C 2,1 °C 11,3 km/h (2 Bft)
04.04.2019 16:19 3,9 °C 79 % 997,3 hPa 0,0 mm 14,6 km/h (3 Bft) W 270 ° 0 min 0,000 mm 1,0 UV-I 144 W/m² 0,6 °C 0,5 °C 24,1 km/h (4 Bft)
04.04.2019 16:20 3,9 °C 79 % 997,3 hPa 0,0 mm 17,2 km/h (3 Bft) W-SW 254 ° 0 min 0,000 mm 1,0 UV-I 139 W/m² 0,6 °C 0,1 °C 25,7 km/h (4 Bft)
04.04.2019 16:21 3,9 °C 79 % 997,3 hPa 0,0 mm 14,8 km/h (3 Bft) W-SW 252 ° 0 min 0,000 mm 0,9 UV-I 135 W/m² 0,6 °C 0,4 °C 22,5 km/h (4 Bft)
04.04.2019 16:22 3,9 °C 78 % 997,3 hPa 0,0 mm 16,3 km/h (3 Bft) W 275 ° 0 min 0,000 mm 0,9 UV-I 128 W/m² 0,4 °C 0,2 °C 22,5 km/h (4 Bft)
04.04.2019 16:23 3,9 °C 79 % 997,3 hPa 0,0 mm 16,4 km/h (3 Bft) W 277 ° 0 min 0,000 mm 0,9 UV-I 127 W/m² 0,6 °C 0,2 °C 27,4 km/h (4 Bft)
04.04.2019 16:24 3,9 °C 79 % 997,3 hPa 0,0 mm 14,3 km/h (3 Bft) W-NW 288 ° 0 min 0,000 mm 0,9 UV-I 125 W/m² 0,6 °C 0,5 °C 19,3 km/h (3 Bft)
04.04.2019 16:25 3,9 °C 79 % 997,3 hPa 0,0 mm 9,0 km/h (2 Bft) W-SW 239 ° 0 min 0,000 mm 0,9 UV-I 125 W/m² 0,6 °C 1,6 °C 14,5 km/h (3 Bft)
04.04.2019 16:26 3,9 °C 78 % 997,3 hPa 0,0 mm 12,2 km/h (2 Bft) W 270 ° 0 min 0,000 mm 0,9 UV-I 123 W/m² 0,4 °C 0,9 °C 17,7 km/h (3 Bft)
04.04.2019 16:28 3,9 °C 79 % 997,4 hPa 0,0 mm 15,3 km/h (3 Bft) W-SW 247 ° 0 min 0,000 mm 0,8 UV-I 113 W/m² 0,6 °C 0,3 °C 20,9 km/h (4 Bft)
04.04.2019 16:29 3,9 °C 78 % 997,4 hPa 0,0 mm 12,7 km/h (3 Bft) W 269 ° 0 min 0,000 mm 0,8 UV-I 107 W/m² 0,4 °C 0,8 °C 24,1 km/h (4 Bft)
04.04.2019 16:30 3,9 °C 78 % 997,4 hPa 0,0 mm 6,2 km/h (2 Bft) SW 229 ° 0 min 0,000 mm 0,7 UV-I 104 W/m² 0,4 °C 2,4 °C 12,9 km/h (3 Bft)
04.04.2019 16:31 3,9 °C 78 % 997,4 hPa 0,0 mm 11,9 km/h (2 Bft) W 263 ° 0 min 0,000 mm 0,7 UV-I 104 W/m² 0,4 °C 0,9 °C 16,1 km/h (3 Bft)
04.04.2019 16:32 3,9 °C 79 % 997,4 hPa 0,0 mm 7,6 km/h (2 Bft) N-NW 327 ° 0 min 0,000 mm 0,8 UV-I 105 W/m² 0,6 °C 2,0 °C 11,3 km/h (2 Bft)
04.04.2019 16:33 3,9 °C 79 % 997,4 hPa 0,0 mm 8,0 km/h (2 Bft) W 277 ° 0 min 0,000 mm 0,8 UV-I 109 W/m² 0,6 °C 1,8 °C 14,5 km/h (3 Bft)
04.04.2019 16:34 3,9 °C 78 % 997,3 hPa 0,0 mm 7,2 km/h (2 Bft) NW 323 ° 0 min 0,000 mm 0,8 UV-I 113 W/m² 0,4 °C 2,1 °C 16,1 km/h (3 Bft)
04.04.2019 16:35 3,9 °C 78 % 997,3 hPa 0,0 mm 12,1 km/h (2 Bft) W-NW 296 ° 0 min 0,000 mm 0,8 UV-I 109 W/m² 0,4 °C 0,9 °C 22,5 km/h (4 Bft)
04.04.2019 16:36 3,9 °C 78 % 997,4 hPa 0,0 mm 18,2 km/h (3 Bft) NW 319 ° 0 min 0,000 mm 0,8 UV-I 105 W/m² 0,4 °C -0,1 °C 25,7 km/h (4 Bft)
04.04.2019 16:37 3,9 °C 78 % 997,4 hPa 0,0 mm 8,9 km/h (2 Bft) W-NW 291 ° 0 min 0,000 mm 0,7 UV-I 104 W/m² 0,4 °C 1,6 °C 16,1 km/h (3 Bft)
04.04.2019 16:38 3,9 °C 79 % 997,5 hPa 0,0 mm 6,8 km/h (2 Bft) NW 307 ° 0 min 0,000 mm 0,7 UV-I 104 W/m² 0,6 °C 2,2 °C 16,1 km/h (3 Bft)
04.04.2019 16:39 3,9 °C 79 % 997,5 hPa 0,0 mm 8,4 km/h (2 Bft) W-SW 243 ° 0 min 0,000 mm 0,7 UV-I 107 W/m² 0,6 °C 1,7 °C 12,9 km/h (3 Bft)
04.04.2019 16:40 4,0 °C 78 % 997,5 hPa 0,0 mm 6,6 km/h (2 Bft) W-SW 254 ° 0 min 0,000 mm 0,7 UV-I 109 W/m² 0,5 °C 2,4 °C 12,9 km/h (3 Bft)
04.04.2019 16:41 4,1 °C 78 % 997,5 hPa 0,0 mm 11,2 km/h (2 Bft) W-SW 253 ° 0 min 0,000 mm 0,8 UV-I 114 W/m² 0,6 °C 1,3 °C 16,1 km/h (3 Bft)
04.04.2019 16:42 4,1 °C 78 % 997,5 hPa 0,0 mm 8,1 km/h (2 Bft) W-NW 298 ° 0 min 0,000 mm 0,8 UV-I 120 W/m² 0,6 °C 2,1 °C 11,3 km/h (2 Bft)
04.04.2019 16:43 4,1 °C 79 % 997,5 hPa 0,0 mm 11,5 km/h (2 Bft) W-SW 242 ° 0 min 0,000 mm 0,9 UV-I 128 W/m² 0,8 °C 1,3 °C 19,3 km/h (3 Bft)
04.04.2019 16:44 4,2 °C 78 % 997,5 hPa 0,0 mm 19,3 km/h (3 Bft) W-SW 242 ° 0 min 0,000 mm 1,0 UV-I 139 W/m² 0,7 °C 0,1 °C 24,1 km/h (4 Bft)
04.04.2019 16:45 4,2 °C 77 % 997,4 hPa 0,0 mm 13,4 km/h (3 Bft) W 262 ° 0 min 0,000 mm 1,0 UV-I 148 W/m² 0,5 °C 1,0 °C 17,7 km/h (3 Bft)
04.04.2019 16:46 4,2 °C 77 % 997,4 hPa 0,0 mm 15,6 km/h (3 Bft) W 264 ° 0 min 0,000 mm 1,0 UV-I 142 W/m² 0,5 °C 0,7 °C 24,1 km/h (4 Bft)
04.04.2019 16:47 4,2 °C 77 % 997,4 hPa 0,0 mm 18,5 km/h (3 Bft) W 260 ° 0 min 0,000 mm 0,8 UV-I 128 W/m² 0,5 °C 0,3 °C 22,5 km/h (4 Bft)
04.04.2019 16:48 4,2 °C 77 % 997,5 hPa 0,0 mm 11,7 km/h (2 Bft) SW 217 ° 0 min 0,000 mm 0,8 UV-I 118 W/m² 0,5 °C 1,3 °C 19,3 km/h (3 Bft)
04.04.2019 16:49 4,2 °C 77 % 997,5 hPa 0,0 mm 14,7 km/h (3 Bft) W-SW 248 ° 0 min 0,000 mm 0,7 UV-I 107 W/m² 0,5 °C 0,8 °C 22,5 km/h (4 Bft)
04.04.2019 16:50 4,2 °C 77 % 997,5 hPa 0,0 mm 14,3 km/h (3 Bft) W 269 ° 0 min 0,000 mm 0,7 UV-I 98 W/m² 0,5 °C 0,9 °C 17,7 km/h (3 Bft)
04.04.2019 16:51 4,2 °C 77 % 997,6 hPa 0,0 mm 11,7 km/h (2 Bft) SW 236 ° 0 min 0,000 mm 0,7 UV-I 97 W/m² 0,5 °C 1,3 °C 16,1 km/h (3 Bft)
04.04.2019 16:52 4,1 °C 77 % 997,6 hPa 0,0 mm 13,6 km/h (3 Bft) W 271 ° 0 min 0,000 mm 0,7 UV-I 104 W/m² 0,4 °C 0,9 °C 17,7 km/h (3 Bft)
04.04.2019 16:53 4,1 °C 77 % 997,6 hPa 0,0 mm 11,1 km/h (2 Bft) W 260 ° 0 min 0,000 mm 0,8 UV-I 113 W/m² 0,4 °C 1,3 °C 19,3 km/h (3 Bft)
04.04.2019 16:54 4,1 °C 77 % 997,6 hPa 0,0 mm 18,4 km/h (3 Bft) W-SW 254 ° 0 min 0,000 mm 0,8 UV-I 120 W/m² 0,4 °C 0,1 °C 24,1 km/h (4 Bft)
04.04.2019 16:55 4,2 °C 77 % 997,5 hPa 0,0 mm 15,2 km/h (3 Bft) W-SW 257 ° 0 min 0,000 mm 0,9 UV-I 120 W/m² 0,5 °C 0,7 °C 19,3 km/h (3 Bft)
04.04.2019 16:56 4,1 °C 77 % 997,4 hPa 0,0 mm 16,2 km/h (3 Bft) W-SW 253 ° 0 min 0,000 mm 0,9 UV-I 121 W/m² 0,4 °C 0,5 °C 22,5 km/h (4 Bft)
04.04.2019 16:57 4,1 °C 77 % 997,4 hPa 0,0 mm 18,6 km/h (3 Bft) W-NW 303 ° 0 min 0,000 mm 0,9 UV-I 121 W/m² 0,4 °C 0,1 °C 25,7 km/h (4 Bft)
04.04.2019 16:58 4,1 °C 77 % 997,3 hPa 0,0 mm 17,7 km/h (3 Bft) W 261 ° 0 min 0,000 mm 0,9 UV-I 118 W/m² 0,4 °C 0,2 °C 24,1 km/h (4 Bft)
04.04.2019 16:59 4,1 °C 77 % 997,4 hPa 0,0 mm 14,5 km/h (3 Bft) W-SW 254 ° 0 min 0,000 mm 0,8 UV-I 113 W/m² 0,4 °C 0,7 °C 19,3 km/h (3 Bft)
04.04.2019 17:00 4,2 °C 77 % 997,4 hPa 0,0 mm 11,7 km/h (2 Bft) N-NW 327 ° 0 min 0,000 mm 0,8 UV-I 109 W/m² 0,5 °C 1,3 °C 22,5 km/h (4 Bft)
04.04.2019 17:01 4,2 °C 77 % 997,5 hPa 0,0 mm 12,7 km/h (3 Bft) W-SW 242 ° 0 min 0,076 mm 0,8 UV-I 105 W/m² 0,5 °C 1,2 °C 17,7 km/h (3 Bft)
04.04.2019 17:02 4,2 °C 77 % 997,6 hPa 0,0 mm 14,9 km/h (3 Bft) W-SW 254 ° 0 min 0,000 mm 0,8 UV-I 107 W/m² 0,5 °C 0,8 °C 24,1 km/h (4 Bft)
04.04.2019 17:03 4,1 °C 76 % 997,5 hPa 0,0 mm 10,4 km/h (2 Bft) W 265 ° 0 min 0,000 mm 0,8 UV-I 109 W/m² 0,3 °C 1,5 °C 19,3 km/h (3 Bft)
04.04.2019 17:04 4,1 °C 76 % 997,5 hPa 0,0 mm 20,8 km/h (4 Bft) SW 217 ° 0 min 0,000 mm 0,9 UV-I 109 W/m² 0,3 °C -0,2 °C 24,1 km/h (4 Bft)
04.04.2019 17:05 4,1 °C 77 % 997,3 hPa 0,0 mm 19,2 km/h (3 Bft) W-NW 292 ° 0 min 0,000 mm 0,9 UV-I 114 W/m² 0,4 °C 0,0 °C 25,7 km/h (4 Bft)
04.04.2019 17:06 4,1 °C 77 % 997,3 hPa 0,0 mm 14,0 km/h (3 Bft) W-SW 251 ° 0 min 0,000 mm 0,9 UV-I 120 W/m² 0,4 °C 0,8 °C 20,9 km/h (4 Bft)
04.04.2019 17:07 4,1 °C 77 % 997,4 hPa 0,0 mm 14,7 km/h (3 Bft) W-SW 258 ° 0 min 0,000 mm 0,9 UV-I 121 W/m² 0,4 °C 0,7 °C 25,7 km/h (4 Bft)
04.04.2019 17:08 4,1 °C 77 % 997,3 hPa 0,0 mm 15,1 km/h (3 Bft) W-NW 296 ° 0 min 0,000 mm 0,9 UV-I 123 W/m² 0,4 °C 0,6 °C 22,5 km/h (4 Bft)
04.04.2019 17:09 4,1 °C 77 % 997,3 hPa 0,0 mm 13,7 km/h (3 Bft) W 274 ° 0 min 0,000 mm 0,9 UV-I 128 W/m² 0,4 °C 0,9 °C 27,4 km/h (4 Bft)
04.04.2019 17:10 4,1 °C 77 % 997,2 hPa 0,0 mm 14,6 km/h (3 Bft) NW 306 ° 0 min 0,000 mm 1,0 UV-I 132 W/m² 0,4 °C 0,7 °C 24,1 km/h (4 Bft)
04.04.2019 17:11 4,1 °C 77 % 997,3 hPa 0,0 mm 12,9 km/h (3 Bft) W 269 ° 0 min 0,000 mm 1,0 UV-I 137 W/m² 0,4 °C 1,0 °C 17,7 km/h (3 Bft)
04.04.2019 17:12 4,1 °C 77 % 997,3 hPa 0,0 mm 10,7 km/h (2 Bft) W 260 ° 0 min 0,000 mm 1,0 UV-I 141 W/m² 0,4 °C 1,4 °C 14,5 km/h (3 Bft)
04.04.2019 17:13 4,1 °C 77 % 997,3 hPa 0,0 mm 18,9 km/h (3 Bft) W 281 ° 0 min 0,000 mm 1,0 UV-I 144 W/m² 0,4 °C 0,1 °C 25,7 km/h (4 Bft)
04.04.2019 17:14 4,1 °C 77 % 997,3 hPa 0,0 mm 20,2 km/h (4 Bft) W 261 ° 0 min 0,000 mm 1,0 UV-I 146 W/m² 0,4 °C -0,1 °C 27,4 km/h (4 Bft)
04.04.2019 17:15 4,1 °C 76 % 997,4 hPa 0,0 mm 9,7 km/h (2 Bft) NW 321 ° 0 min 0,000 mm 1,0 UV-I 151 W/m² 0,3 °C 1,7 °C 16,1 km/h (3 Bft)
04.04.2019 17:16 4,1 °C 77 % 997,4 hPa 0,0 mm 5,0 km/h (1 Bft) SW 221 ° 0 min 0,000 mm 1,0 UV-I 156 W/m² 0,4 °C 3,1 °C 9,7 km/h (2 Bft)
04.04.2019 17:17 4,1 °C 77 % 997,5 hPa 0,0 mm 9,2 km/h (2 Bft) W-NW 292 ° 0 min 0,000 mm 1,0 UV-I 155 W/m² 0,4 °C 1,8 °C 12,9 km/h (3 Bft)
04.04.2019 17:18 4,2 °C 77 % 997,5 hPa 0,0 mm 14,6 km/h (3 Bft) W 261 ° 0 min 0,000 mm 1,0 UV-I 155 W/m² 0,5 °C 0,8 °C 24,1 km/h (4 Bft)
04.04.2019 17:19 4,2 °C 76 % 997,5 hPa 0,0 mm 17,7 km/h (3 Bft) W-NW 283 ° 0 min 0,000 mm 1,0 UV-I 156 W/m² 0,4 °C 0,4 °C 25,7 km/h (4 Bft)
04.04.2019 17:20 4,1 °C 76 % 997,5 hPa 0,0 mm 12,3 km/h (3 Bft) W-NW 293 ° 0 min 0,000 mm 1,0 UV-I 155 W/m² 0,3 °C 1,1 °C 20,9 km/h (4 Bft)
04.04.2019 17:21 4,2 °C 76 % 997,6 hPa 0,0 mm 7,0 km/h (2 Bft) NW 322 ° 0 min 0,000 mm 1,0 UV-I 149 W/m² 0,4 °C 2,5 °C 16,1 km/h (3 Bft)
04.04.2019 17:22 4,2 °C 76 % 997,6 hPa 0,0 mm 6,3 km/h (2 Bft) W-SW 240 ° 0 min 0,000 mm 1,0 UV-I 149 W/m² 0,4 °C 2,7 °C 14,5 km/h (3 Bft)
04.04.2019 17:23 4,2 °C 77 % 997,6 hPa 0,0 mm 14,6 km/h (3 Bft) W-NW 298 ° 0 min 0,000 mm 1,0 UV-I 151 W/m² 0,5 °C 0,8 °C 22,5 km/h (4 Bft)
04.04.2019 17:24 4,2 °C 76 % 997,6 hPa 0,0 mm 11,5 km/h (2 Bft) NW 315 ° 0 min 0,000 mm 1,0 UV-I 156 W/m² 0,4 °C 1,4 °C 25,7 km/h (4 Bft)
04.04.2019 17:25 4,2 °C 76 % 997,7 hPa 0,0 mm 14,0 km/h (3 Bft) W 281 ° 0 min 0,000 mm 1,0 UV-I 158 W/m² 0,4 °C 0,9 °C 22,5 km/h (4 Bft)
04.04.2019 17:26 4,2 °C 76 % 997,7 hPa 0,0 mm 20,9 km/h (4 Bft) W 259 ° 0 min 0,000 mm 1,0 UV-I 123 W/m² 0,4 °C -0,1 °C 30,6 km/h (5 Bft)
04.04.2019 17:27 4,2 °C 76 % 997,7 hPa 0,0 mm 12,6 km/h (3 Bft) W 270 ° 0 min 0,000 mm 0,9 UV-I 111 W/m² 0,4 °C 1,2 °C 20,9 km/h (4 Bft)
04.04.2019 17:28 4,2 °C 76 % 997,8 hPa 0,0 mm 15,2 km/h (3 Bft) W-NW 303 ° 0 min 0,000 mm 0,9 UV-I 105 W/m² 0,4 °C 0,7 °C 17,7 km/h (3 Bft)
04.04.2019 17:29 4,2 °C 76 % 997,8 hPa 0,0 mm 9,5 km/h (2 Bft) W 273 ° 0 min 0,000 mm 0,8 UV-I 105 W/m² 0,4 °C 1,8 °C 17,7 km/h (3 Bft)
04.04.2019 17:30 4,1 °C 76 % 997,8 hPa 0,0 mm 6,0 km/h (2 Bft) W-NW 284 ° 0 min 0,000 mm 0,8 UV-I 105 W/m² 0,3 °C 2,7 °C 8,0 km/h (2 Bft)
04.04.2019 17:31 4,1 °C 76 % 997,9 hPa 0,0 mm 6,8 km/h (2 Bft) W 260 ° 0 min 0,000 mm 0,8 UV-I 111 W/m² 0,3 °C 2,4 °C 12,9 km/h (3 Bft)
04.04.2019 17:32 4,2 °C 77 % 997,9 hPa 0,0 mm 11,7 km/h (2 Bft) W-NW 295 ° 0 min 0,000 mm 0,8 UV-I 102 W/m² 0,5 °C 1,3 °C 19,3 km/h (3 Bft)
04.04.2019 17:33 4,2 °C 77 % 998,0 hPa 0,0 mm 11,9 km/h (2 Bft) W-NW 292 ° 0 min 0,000 mm 0,8 UV-I 90 W/m² 0,5 °C 1,3 °C 14,5 km/h (3 Bft)
04.04.2019 17:34 4,2 °C 76 % 997,9 hPa 0,0 mm 10,5 km/h (2 Bft) NW 305 ° 0 min 0,000 mm 0,7 UV-I 83 W/m² 0,4 °C 1,6 °C 17,7 km/h (3 Bft)
04.04.2019 17:35 4,2 °C 76 % 997,9 hPa 0,0 mm 17,0 km/h (3 Bft) W 281 ° 0 min 0,000 mm 0,7 UV-I 86 W/m² 0,4 °C 0,5 °C 24,1 km/h (4 Bft)
04.04.2019 17:36 4,1 °C 76 % 997,9 hPa 0,0 mm 15,1 km/h (3 Bft) W-SW 258 ° 0 min 0,000 mm 0,7 UV-I 95 W/m² 0,3 °C 0,6 °C 24,1 km/h (4 Bft)
04.04.2019 17:37 4,1 °C 77 % 998,0 hPa 0,0 mm 18,5 km/h (3 Bft) W-NW 282 ° 0 min 0,000 mm 0,7 UV-I 95 W/m² 0,4 °C 0,1 °C 27,4 km/h (4 Bft)
04.04.2019 17:38 4,1 °C 77 % 998,0 hPa 0,0 mm 14,5 km/h (3 Bft) W-SW 255 ° 0 min 0,000 mm 0,7 UV-I 84 W/m² 0,4 °C 0,7 °C 19,3 km/h (3 Bft)
04.04.2019 17:39 4,1 °C 77 % 998,0 hPa 0,0 mm 15,3 km/h (3 Bft) W-NW 285 ° 0 min 0,000 mm 0,7 UV-I 83 W/m² 0,4 °C 0,6 °C 20,9 km/h (4 Bft)
04.04.2019 17:40 4,1 °C 77 % 998,0 hPa 0,0 mm 13,9 km/h (3 Bft) W 280 ° 0 min 0,000 mm 0,7 UV-I 84 W/m² 0,4 °C 0,8 °C 22,5 km/h (4 Bft)
04.04.2019 17:41 4,0 °C 77 % 998,0 hPa 0,0 mm 18,6 km/h (3 Bft) W-SW 240 ° 0 min 0,000 mm 0,7 UV-I 88 W/m² 0,3 °C -0,0 °C 24,1 km/h (4 Bft)
04.04.2019 17:42 4,0 °C 76 % 998,0 hPa 0,0 mm 12,5 km/h (3 Bft) W-NW 300 ° 0 min 0,000 mm 0,7 UV-I 91 W/m² 0,2 °C 0,9 °C 19,3 km/h (3 Bft)
04.04.2019 17:43 3,9 °C 76 % 998,0 hPa 0,0 mm 10,4 km/h (2 Bft) W 268 ° 0 min 0,000 mm 0,7 UV-I 97 W/m² 0,1 °C 1,3 °C 20,9 km/h (4 Bft)
04.04.2019 17:44 3,9 °C 77 % 998,0 hPa 0,0 mm 16,0 km/h (3 Bft) W-NW 289 ° 0 min 0,000 mm 0,7 UV-I 105 W/m² 0,2 °C 0,2 °C 22,5 km/h (4 Bft)
04.04.2019 17:45 3,9 °C 77 % 998,0 hPa 0,0 mm 15,5 km/h (3 Bft) NW 306 ° 0 min 0,000 mm 0,8 UV-I 109 W/m² 0,2 °C 0,3 °C 20,9 km/h (4 Bft)
04.04.2019 17:46 3,9 °C 77 % 998,1 hPa 0,0 mm 12,7 km/h (3 Bft) W-SW 258 ° 0 min 0,000 mm 0,8 UV-I 116 W/m² 0,2 °C 0,8 °C 20,9 km/h (4 Bft)
04.04.2019 17:47 3,9 °C 76 % 998,1 hPa 0,0 mm 19,1 km/h (3 Bft) W 264 ° 0 min 0,000 mm 0,8 UV-I 121 W/m² 0,1 °C -0,2 °C 24,1 km/h (4 Bft)
04.04.2019 17:48 3,9 °C 76 % 998,0 hPa 0,0 mm 11,5 km/h (2 Bft) SW 222 ° 0 min 0,000 mm 0,8 UV-I 127 W/m² 0,1 °C 1,0 °C 20,9 km/h (4 Bft)
04.04.2019 17:49 3,8 °C 76 % 998,0 hPa 0,0 mm 14,7 km/h (3 Bft) W 267 ° 0 min 0,000 mm 0,8 UV-I 132 W/m² -0,0 °C 0,3 °C 20,9 km/h (4 Bft)
04.04.2019 17:50 3,9 °C 77 % 998,1 hPa 0,0 mm 16,8 km/h (3 Bft) W-SW 239 ° 0 min 0,000 mm 0,7 UV-I 132 W/m² 0,2 °C 0,1 °C 24,1 km/h (4 Bft)
04.04.2019 17:51 3,9 °C 77 % 998,1 hPa 0,0 mm 12,8 km/h (3 Bft) W 259 ° 0 min 0,000 mm 0,7 UV-I 130 W/m² 0,2 °C 0,8 °C 20,9 km/h (4 Bft)
04.04.2019 17:52 3,8 °C 76 % 998,1 hPa 0,0 mm 12,6 km/h (3 Bft) SW 236 ° 0 min 0,000 mm 0,7 UV-I 128 W/m² -0,0 °C 0,7 °C 17,7 km/h (3 Bft)
04.04.2019 17:53 3,9 °C 76 % 998,1 hPa 0,0 mm 12,0 km/h (2 Bft) NW 311 ° 0 min 0,000 mm 0,6 UV-I 121 W/m² 0,1 °C 0,9 °C 17,7 km/h (3 Bft)
04.04.2019 17:54 3,9 °C 76 % 998,2 hPa 0,0 mm 8,5 km/h (2 Bft) W-NW 284 ° 0 min 0,000 mm 0,6 UV-I 114 W/m² 0,1 °C 1,7 °C 16,1 km/h (3 Bft)
04.04.2019 17:55 3,9 °C 76 % 998,2 hPa 0,0 mm 11,3 km/h (2 Bft) NW 313 ° 0 min 0,000 mm 0,6 UV-I 114 W/m² 0,1 °C 1,1 °C 27,4 km/h (4 Bft)
04.04.2019 17:56 3,8 °C 76 % 998,3 hPa 0,0 mm 13,5 km/h (3 Bft) W 279 ° 0 min 0,000 mm 0,6 UV-I 111 W/m² -0,0 °C 0,5 °C 32,2 km/h (5 Bft)
04.04.2019 17:57 3,8 °C 76 % 998,3 hPa 0,0 mm 8,3 km/h (2 Bft) W 260 ° 0 min 0,000 mm 0,6 UV-I 111 W/m² -0,0 °C 1,6 °C 17,7 km/h (3 Bft)
04.04.2019 17:58 3,8 °C 76 % 998,3 hPa 0,0 mm 10,2 km/h (2 Bft) SW 234 ° 0 min 0,000 mm 0,6 UV-I 114 W/m² -0,0 °C 1,2 °C 16,1 km/h (3 Bft)
04.04.2019 17:59 3,8 °C 77 % 998,3 hPa 0,0 mm 11,2 km/h (2 Bft) W-NW 288 ° 0 min 0,000 mm 0,6 UV-I 116 W/m² 0,1 °C 1,0 °C 19,3 km/h (3 Bft)
04.04.2019 18:00 3,8 °C 77 % 998,3 hPa 0,0 mm 12,7 km/h (3 Bft) W 262 ° 0 min 0,000 mm 0,6 UV-I 118 W/m² 0,1 °C 0,7 °C 22,5 km/h (4 Bft)
04.04.2019 18:01 3,8 °C 76 % 998,4 hPa 0,0 mm 11,0 km/h (2 Bft) W-NW 288 ° 0 min 0,076 mm 0,6 UV-I 113 W/m² -0,0 °C 1,0 °C 17,7 km/h (3 Bft)
04.04.2019 18:02 3,8 °C 76 % 998,4 hPa 0,0 mm 13,4 km/h (3 Bft) W-NW 286 ° 0 min 0,000 mm 0,6 UV-I 95 W/m² -0,0 °C 0,5 °C 16,1 km/h (3 Bft)
04.04.2019 18:03 3,8 °C 76 % 998,4 hPa 0,0 mm 11,3 km/h (2 Bft) W 259 ° 0 min 0,000 mm 0,5 UV-I 84 W/m² -0,0 °C 0,9 °C 16,1 km/h (3 Bft)
04.04.2019 18:04 3,8 °C 76 % 998,5 hPa 0,0 mm 11,1 km/h (2 Bft) W 265 ° 0 min 0,000 mm 0,5 UV-I 74 W/m² -0,0 °C 1,0 °C 17,7 km/h (3 Bft)
04.04.2019 18:05 3,8 °C 77 % 998,5 hPa 0,0 mm 8,6 km/h (2 Bft) W-SW 257 ° 0 min 0,000 mm 0,0 UV-I 67 W/m² 0,1 °C 1,6 °C 14,5 km/h (3 Bft)
04.04.2019 18:06 3,8 °C 77 % 998,5 hPa 0,0 mm 12,7 km/h (3 Bft) W-SW 254 ° 0 min 0,000 mm 0,0 UV-I 62 W/m² 0,1 °C 0,7 °C 16,1 km/h (3 Bft)
04.04.2019 18:07 3,8 °C 77 % 998,6 hPa 0,0 mm 10,1 km/h (2 Bft) NW 311 ° 0 min 0,000 mm 0,0 UV-I 60 W/m² 0,1 °C 1,2 °C 17,7 km/h (3 Bft)
04.04.2019 18:08 3,8 °C 77 % 998,6 hPa 0,0 mm 13,2 km/h (3 Bft) W-SW 254 ° 0 min 0,000 mm 0,0 UV-I 60 W/m² 0,1 °C 0,6 °C 22,5 km/h (4 Bft)
04.04.2019 18:09 3,7 °C 77 % 998,6 hPa 0,0 mm 16,5 km/h (3 Bft) W 267 ° 0 min 0,000 mm 0,0 UV-I 56 W/m² 0,1 °C -0,1 °C 22,5 km/h (4 Bft)
04.04.2019 18:10 3,7 °C 77 % 998,6 hPa 0,0 mm 11,8 km/h (2 Bft) W 269 ° 0 min 0,000 mm 0,0 UV-I 51 W/m² 0,1 °C 0,7 °C 16,1 km/h (3 Bft)
04.04.2019 18:11 3,7 °C 77 % 998,8 hPa 0,0 mm 10,6 km/h (2 Bft) W-SW 242 ° 0 min 0,000 mm 0,0 UV-I 47 W/m² 0,1 °C 1,0 °C 16,1 km/h (3 Bft)
04.04.2019 18:12 3,7 °C 77 % 998,8 hPa 0,0 mm 12,8 km/h (3 Bft) W 276 ° 0 min 0,000 mm 0,0 UV-I 44 W/m² 0,1 °C 0,5 °C 27,4 km/h (4 Bft)
04.04.2019 18:13 3,6 °C 77 % 998,8 hPa 0,0 mm 20,9 km/h (4 Bft) W-NW 290 ° 0 min 0,000 mm 0,0 UV-I 42 W/m² -0,0 °C -0,8 °C 33,8 km/h (5 Bft)
04.04.2019 18:14 3,6 °C 77 % 998,8 hPa 0,0 mm 16,3 km/h (3 Bft) W 267 ° 0 min 0,000 mm 0,0 UV-I 44 W/m² -0,0 °C -0,2 °C 25,7 km/h (4 Bft)
04.04.2019 18:15 3,6 °C 77 % 998,8 hPa 0,0 mm 17,1 km/h (3 Bft) W 267 ° 0 min 0,000 mm 0,0 UV-I 46 W/m² -0,0 °C -0,3 °C 24,1 km/h (4 Bft)
04.04.2019 18:16 3,6 °C 77 % 998,8 hPa 0,0 mm 14,9 km/h (3 Bft) W-NW 302 ° 0 min 0,000 mm 0,0 UV-I 47 W/m² -0,0 °C 0,0 °C 24,1 km/h (4 Bft)
04.04.2019 18:17 3,5 °C 77 % 998,8 hPa 0,0 mm 11,9 km/h (2 Bft) W-SW 258 ° 0 min 0,000 mm 0,0 UV-I 49 W/m² -0,1 °C 0,5 °C 19,3 km/h (3 Bft)
04.04.2019 18:18 3,5 °C 77 % 998,8 hPa 0,0 mm 15,1 km/h (3 Bft) W 268 ° 0 min 0,000 mm 0,0 UV-I 51 W/m² -0,1 °C -0,1 °C 20,9 km/h (4 Bft)
04.04.2019 18:19 3,4 °C 77 % 998,7 hPa 0,0 mm 20,9 km/h (4 Bft) W-SW 256 ° 0 min 0,000 mm 0,0 UV-I 53 W/m² -0,2 °C -1,1 °C 30,6 km/h (5 Bft)
04.04.2019 18:20 3,4 °C 77 % 998,7 hPa 0,0 mm 17,1 km/h (3 Bft) W-NW 292 ° 0 min 0,000 mm 0,0 UV-I 51 W/m² -0,2 °C -0,6 °C 29,0 km/h (5 Bft)
04.04.2019 18:21 3,4 °C 77 % 998,8 hPa 0,0 mm 19,0 km/h (3 Bft) W 277 ° 0 min 0,000 mm 0,0 UV-I 49 W/m² -0,2 °C -0,8 °C 29,0 km/h (5 Bft)
04.04.2019 18:22 3,4 °C 77 % 998,8 hPa 0,0 mm 19,8 km/h (3 Bft) W 275 ° 0 min 0,000 mm 0,0 UV-I 47 W/m² -0,2 °C -0,9 °C 25,7 km/h (4 Bft)
04.04.2019 18:23 3,4 °C 77 % 998,8 hPa 0,0 mm 18,5 km/h (3 Bft) SW 224 ° 0 min 0,000 mm 0,0 UV-I 46 W/m² -0,2 °C -0,8 °C 48,3 km/h (6 Bft)
04.04.2019 18:24 3,3 °C 77 % 999,0 hPa 0,0 mm 20,2 km/h (4 Bft) W-SW 253 ° 0 min 0,000 mm 0,0 UV-I 46 W/m² -0,3 °C -1,1 °C 25,7 km/h (4 Bft)
04.04.2019 18:25 3,3 °C 77 % 999,0 hPa 0,0 mm 15,2 km/h (3 Bft) W 265 ° 0 min 0,000 mm 0,0 UV-I 44 W/m² -0,3 °C -0,4 °C 22,5 km/h (4 Bft)
04.04.2019 18:26 3,3 °C 77 % 998,9 hPa 0,0 mm 12,7 km/h (3 Bft) NW 326 ° 0 min 0,000 mm 0,0 UV-I 42 W/m² -0,3 °C 0,1 °C 17,7 km/h (3 Bft)
04.04.2019 18:27 3,3 °C 77 % 998,9 hPa 0,0 mm 13,3 km/h (3 Bft) W-NW 300 ° 0 min 0,000 mm 0,0 UV-I 42 W/m² -0,3 °C -0,1 °C 20,9 km/h (4 Bft)
04.04.2019 18:28 3,3 °C 77 % 998,9 hPa 0,0 mm 17,1 km/h (3 Bft) NW 304 ° 0 min 0,000 mm 0,0 UV-I 40 W/m² -0,3 °C -0,7 °C 27,4 km/h (4 Bft)
04.04.2019 18:29 3,3 °C 77 % 999,0 hPa 0,0 mm 17,2 km/h (3 Bft) NW 323 ° 0 min 0,000 mm 0,0 UV-I 40 W/m² -0,3 °C -0,7 °C 24,1 km/h (4 Bft)
04.04.2019 18:30 3,3 °C 77 % 999,0 hPa 0,0 mm 16,0 km/h (3 Bft) SW 236 ° 0 min 0,000 mm 0,0 UV-I 39 W/m² -0,3 °C -0,5 °C 29,0 km/h (5 Bft)
04.04.2019 18:31 3,2 °C 77 % 999,1 hPa 0,0 mm 18,4 km/h (3 Bft) W 278 ° 0 min 0,000 mm 0,0 UV-I 37 W/m² -0,4 °C -1,0 °C 25,7 km/h (4 Bft)
04.04.2019 18:32 3,2 °C 77 % 999,1 hPa 0,0 mm 16,7 km/h (3 Bft) W-NW 284 ° 0 min 0,000 mm 0,0 UV-I 35 W/m² -0,4 °C -0,7 °C 20,9 km/h (4 Bft)
04.04.2019 18:33 3,2 °C 77 % 999,1 hPa 0,0 mm 14,2 km/h (3 Bft) W 267 ° 0 min 0,000 mm 0,0 UV-I 33 W/m² -0,4 °C -0,3 °C 20,9 km/h (4 Bft)
04.04.2019 18:34 3,1 °C 77 % 999,1 hPa 0,0 mm 19,7 km/h (3 Bft) W-NW 290 ° 0 min 0,000 mm 0,0 UV-I 32 W/m² -0,5 °C -1,3 °C 24,1 km/h (4 Bft)
04.04.2019 18:35 3,2 °C 78 % 999,2 hPa 0,0 mm 13,0 km/h (3 Bft) W 267 ° 0 min 0,000 mm 0,0 UV-I 32 W/m² -0,3 °C -0,1 °C 19,3 km/h (3 Bft)
04.04.2019 18:36 3,1 °C 78 % 999,3 hPa 0,0 mm 13,3 km/h (3 Bft) W-NW 296 ° 0 min 0,000 mm 0,0 UV-I 33 W/m² -0,4 °C -0,3 °C 17,7 km/h (3 Bft)
04.04.2019 18:37 3,1 °C 78 % 999,3 hPa 0,0 mm 14,1 km/h (3 Bft) W-SW 257 ° 0 min 0,000 mm 0,0 UV-I 30 W/m² -0,4 °C -0,4 °C 20,9 km/h (4 Bft)
04.04.2019 18:38 3,1 °C 78 % 999,4 hPa 0,0 mm 10,9 km/h (2 Bft) NW 307 ° 0 min 0,000 mm 0,0 UV-I 28 W/m² -0,4 °C 0,2 °C 17,7 km/h (3 Bft)
04.04.2019 18:39 3,1 °C 78 % 999,4 hPa 0,0 mm 9,0 km/h (2 Bft) W-SW 248 ° 0 min 0,000 mm 0,0 UV-I 26 W/m² -0,4 °C 0,6 °C 12,9 km/h (3 Bft)
04.04.2019 18:40 3,0 °C 78 % 999,4 hPa 0,0 mm 14,1 km/h (3 Bft) W-SW 256 ° 0 min 0,000 mm 0,0 UV-I 25 W/m² -0,5 °C -0,6 °C 20,9 km/h (4 Bft)
04.04.2019 18:41 3,0 °C 78 % 999,5 hPa 0,0 mm 16,4 km/h (3 Bft) W-NW 285 ° 0 min 0,000 mm 0,0 UV-I 25 W/m² -0,5 °C -0,9 °C 22,5 km/h (4 Bft)
04.04.2019 18:42 3,0 °C 78 % 999,5 hPa 0,0 mm 13,2 km/h (3 Bft) NW 306 ° 0 min 0,000 mm 0,0 UV-I 25 W/m² -0,5 °C -0,4 °C 17,7 km/h (3 Bft)
04.04.2019 18:43 3,0 °C 78 % 999,5 hPa 0,0 mm 6,3 km/h (2 Bft) W 275 ° 0 min 0,000 mm 0,0 UV-I 28 W/m² -0,5 °C 1,3 °C 16,1 km/h (3 Bft)
04.04.2019 18:44 3,0 °C 78 % 999,5 hPa 0,0 mm 5,4 km/h (1 Bft) SW 234 ° 0 min 0,000 mm 0,0 UV-I 30 W/m² -0,5 °C 1,7 °C 9,7 km/h (2 Bft)
04.04.2019 18:45 2,9 °C 79 % 999,4 hPa 0,0 mm 6,2 km/h (2 Bft) W-NW 297 ° 0 min 0,000 mm 0,0 UV-I 30 W/m² -0,4 °C 1,2 °C 14,5 km/h (3 Bft)
04.04.2019 18:46 3,0 °C 79 % 999,5 hPa 0,0 mm 9,3 km/h (2 Bft) W-SW 244 ° 0 min 0,000 mm 0,0 UV-I 28 W/m² -0,3 °C 0,4 °C 17,7 km/h (3 Bft)
04.04.2019 18:47 3,0 °C 79 % 999,6 hPa 0,0 mm 17,2 km/h (3 Bft) W 267 ° 0 min 0,000 mm 0,0 UV-I 25 W/m² -0,3 °C -1,1 °C 25,7 km/h (4 Bft)
04.04.2019 18:48 3,0 °C 79 % 999,6 hPa 0,0 mm 8,2 km/h (2 Bft) W 263 ° 0 min 0,000 mm 0,0 UV-I 23 W/m² -0,3 °C 0,7 °C 12,9 km/h (3 Bft)
04.04.2019 18:49 3,0 °C 79 % 999,7 hPa 0,0 mm 17,2 km/h (3 Bft) W-NW 285 ° 0 min 0,000 mm 0,0 UV-I 25 W/m² -0,3 °C -1,1 °C 25,7 km/h (4 Bft)
04.04.2019 18:50 2,9 °C 78 % 999,6 hPa 0,0 mm 11,9 km/h (2 Bft) W-NW 292 ° 0 min 0,000 mm 0,0 UV-I 26 W/m² -0,5 °C -0,3 °C 16,1 km/h (3 Bft)
04.04.2019 18:51 3,0 °C 78 % 999,6 hPa 0,0 mm 11,6 km/h (2 Bft) W-NW 297 ° 0 min 0,000 mm 0,0 UV-I 26 W/m² -0,5 °C -0,1 °C 14,5 km/h (3 Bft)
04.04.2019 18:52 2,9 °C 78 % 999,5 hPa 0,0 mm 13,9 km/h (3 Bft) W-NW 284 ° 0 min 0,000 mm 0,0 UV-I 28 W/m² -0,5 °C -0,6 °C 20,9 km/h (4 Bft)
04.04.2019 18:53 2,9 °C 78 % 999,5 hPa 0,0 mm 11,2 km/h (2 Bft) W 261 ° 0 min 0,000 mm 0,0 UV-I 28 W/m² -0,5 °C -0,1 °C 19,3 km/h (3 Bft)
04.04.2019 18:54 2,9 °C 78 % 999,5 hPa 0,0 mm 12,7 km/h (3 Bft) W-NW 298 ° 0 min 0,000 mm 0,0 UV-I 26 W/m² -0,5 °C -0,4 °C 16,1 km/h (3 Bft)
04.04.2019 18:55 2,9 °C 78 % 999,5 hPa 0,0 mm 10,2 km/h (2 Bft) W 271 ° 0 min 0,000 mm 0,0 UV-I 26 W/m² -0,5 °C 0,1 °C 14,5 km/h (3 Bft)
04.04.2019 18:56 2,9 °C 78 % 999,6 hPa 0,0 mm 9,7 km/h (2 Bft) W 271 ° 0 min 0,000 mm 0,0 UV-I 25 W/m² -0,5 °C 0,2 °C 16,1 km/h (3 Bft)
04.04.2019 18:57 2,9 °C 78 % 999,6 hPa 0,0 mm 7,7 km/h (2 Bft) W-NW 288 ° 0 min 0,000 mm 0,0 UV-I 25 W/m² -0,5 °C 0,8 °C 11,3 km/h (2 Bft)
04.04.2019 18:58 2,9 °C 78 % 999,7 hPa 0,0 mm 11,0 km/h (2 Bft) W 279 ° 0 min 0,000 mm 0,0 UV-I 23 W/m² -0,5 °C -0,1 °C 19,3 km/h (3 Bft)
04.04.2019 18:59 2,9 °C 78 % 999,7 hPa 0,0 mm 11,2 km/h (2 Bft) W 265 ° 0 min 0,000 mm 0,0 UV-I 21 W/m² -0,5 °C -0,1 °C 19,3 km/h (3 Bft)
04.04.2019 19:00 2,9 °C 78 % 999,8 hPa 0,0 mm 8,0 km/h (2 Bft) W 279 ° 0 min 0,000 mm 0,0 UV-I 19 W/m² -0,5 °C 0,7 °C 12,9 km/h (3 Bft)
04.04.2019 19:01 2,9 °C 78 % 999,8 hPa 0,0 mm 8,0 km/h (2 Bft) W 259 ° 0 min 0,051 mm 0,0 UV-I 19 W/m² -0,5 °C 0,7 °C 14,5 km/h (3 Bft)
04.04.2019 19:02 2,9 °C 78 % 999,8 hPa 0,0 mm 10,0 km/h (2 Bft) W 279 ° 0 min 0,000 mm 0,0 UV-I 19 W/m² -0,5 °C 0,1 °C 16,1 km/h (3 Bft)
04.04.2019 19:03 2,9 °C 78 % 999,9 hPa 0,0 mm 10,3 km/h (2 Bft) W 267 ° 0 min 0,000 mm 0,0 UV-I 18 W/m² -0,5 °C 0,1 °C 14,5 km/h (3 Bft)
04.04.2019 19:04 2,9 °C 78 % 999,9 hPa 0,0 mm 8,6 km/h (2 Bft) W 262 ° 0 min 0,000 mm 0,0 UV-I 16 W/m² -0,5 °C 0,5 °C 12,9 km/h (3 Bft)
04.04.2019 19:05 2,8 °C 78 % 1000,0 hPa 0,0 mm 10,9 km/h (2 Bft) W-NW 287 ° 0 min 0,000 mm 0,0 UV-I 16 W/m² -0,6 °C -0,2 °C 17,7 km/h (3 Bft)
04.04.2019 19:06 2,8 °C 78 % 1000,0 hPa 0,0 mm 8,4 km/h (2 Bft) W 268 ° 0 min 0,000 mm 0,0 UV-I 14 W/m² -0,6 °C 0,4 °C 12,9 km/h (3 Bft)
04.04.2019 19:07 2,8 °C 78 % 1000,0 hPa 0,0 mm 5,2 km/h (1 Bft) NW 324 ° 0 min 0,000 mm 0,0 UV-I 14 W/m² -0,6 °C 1,5 °C 14,5 km/h (3 Bft)
04.04.2019 19:08 2,8 °C 79 % 1000,0 hPa 0,0 mm 10,5 km/h (2 Bft) W-SW 257 ° 0 min 0,000 mm 0,0 UV-I 14 W/m² -0,5 °C -0,1 °C 14,5 km/h (3 Bft)
04.04.2019 19:09 2,8 °C 79 % 1000,0 hPa 0,0 mm 15,6 km/h (3 Bft) NW 309 ° 0 min 0,000 mm 0,0 UV-I 16 W/m² -0,5 °C -1,1 °C 24,1 km/h (4 Bft)
04.04.2019 19:10 2,8 °C 79 % 999,9 hPa 0,0 mm 14,6 km/h (3 Bft) W-SW 255 ° 0 min 0,000 mm 0,0 UV-I 16 W/m² -0,5 °C -0,9 °C 19,3 km/h (3 Bft)
04.04.2019 19:11 2,8 °C 79 % 999,9 hPa 0,0 mm 8,5 km/h (2 Bft) W 271 ° 0 min 0,000 mm 0,0 UV-I 16 W/m² -0,5 °C 0,4 °C 16,1 km/h (3 Bft)
04.04.2019 19:12 2,8 °C 79 % 999,9 hPa 0,0 mm 9,0 km/h (2 Bft) W-SW 257 ° 0 min 0,000 mm 0,0 UV-I 14 W/m² -0,5 °C 0,3 °C 12,9 km/h (3 Bft)
04.04.2019 19:13 2,7 °C 79 % 999,8 hPa 0,0 mm 11,3 km/h (2 Bft) W-NW 290 ° 0 min 0,000 mm 0,0 UV-I 14 W/m² -0,6 °C -0,4 °C 20,9 km/h (4 Bft)
04.04.2019 19:14 2,7 °C 79 % 999,8 hPa 0,0 mm 12,6 km/h (3 Bft) W-NW 302 ° 0 min 0,000 mm 0,0 UV-I 14 W/m² -0,6 °C -0,6 °C 19,3 km/h (3 Bft)
04.04.2019 19:15 2,7 °C 79 % 999,8 hPa 0,0 mm 9,8 km/h (2 Bft) W 271 ° 0 min 0,000 mm 0,0 UV-I 12 W/m² -0,6 °C -0,0 °C 14,5 km/h (3 Bft)
04.04.2019 19:16 2,7 °C 79 % 999,8 hPa 0,0 mm 9,0 km/h (2 Bft) NW 313 ° 0 min 0,000 mm 0,0 UV-I 12 W/m² -0,6 °C 0,2 °C 12,9 km/h (3 Bft)
04.04.2019 19:17 2,7 °C 79 % 999,8 hPa 0,0 mm 12,5 km/h (3 Bft) W-NW 294 ° 0 min 0,000 mm 0,0 UV-I 12 W/m² -0,6 °C -0,6 °C 16,1 km/h (3 Bft)
04.04.2019 19:18 2,7 °C 79 % 999,8 hPa 0,0 mm 8,9 km/h (2 Bft) W-NW 292 ° 0 min 0,000 mm 0,0 UV-I 12 W/m² -0,6 °C 0,2 °C 12,9 km/h (3 Bft)
04.04.2019 19:19 2,7 °C 79 % 999,8 hPa 0,0 mm 14,0 km/h (3 Bft) W-NW 300 ° 0 min 0,000 mm 0,0 UV-I 12 W/m² -0,6 °C -0,9 °C 17,7 km/h (3 Bft)
04.04.2019 19:20 2,7 °C 79 % 999,8 hPa 0,0 mm 11,8 km/h (2 Bft) W 259 ° 0 min 0,000 mm 0,0 UV-I 11 W/m² -0,6 °C -0,5 °C 17,7 km/h (3 Bft)
04.04.2019 19:21 2,7 °C 79 % 999,8 hPa 0,0 mm 10,3 km/h (2 Bft) W 271 ° 0 min 0,000 mm 0,0 UV-I 11 W/m² -0,6 °C -0,2 °C 16,1 km/h (3 Bft)
04.04.2019 19:22 2,6 °C 79 % 999,8 hPa 0,0 mm 9,7 km/h (2 Bft) W-NW 297 ° 0 min 0,000 mm 0,0 UV-I 11 W/m² -0,7 °C -0,1 °C 16,1 km/h (3 Bft)
04.04.2019 19:23 2,6 °C 79 % 999,8 hPa 0,0 mm 8,6 km/h (2 Bft) W-NW 290 ° 0 min 0,000 mm 0,0 UV-I 11 W/m² -0,7 °C 0,1 °C 16,1 km/h (3 Bft)
04.04.2019 19:24 2,6 °C 79 % 999,8 hPa 0,0 mm 7,2 km/h (2 Bft) W-SW 257 ° 0 min 0,000 mm 0,0 UV-I 11 W/m² -0,7 °C 0,6 °C 11,3 km/h (2 Bft)
04.04.2019 19:25 2,6 °C 79 % 999,9 hPa 0,0 mm 11,0 km/h (2 Bft) W-NW 300 ° 0 min 0,000 mm 0,0 UV-I 9 W/m² -0,7 °C -0,4 °C 14,5 km/h (3 Bft)
04.04.2019 19:26 2,6 °C 79 % 999,9 hPa 0,0 mm 7,6 km/h (2 Bft) W-NW 284 ° 0 min 0,000 mm 0,0 UV-I 9 W/m² -0,7 °C 0,4 °C 9,7 km/h (2 Bft)
04.04.2019 19:27 2,6 °C 80 % 999,9 hPa 0,0 mm 6,3 km/h (2 Bft) W-SW 248 ° 0 min 0,000 mm 0,0 UV-I 9 W/m² -0,5 °C 0,9 °C 11,3 km/h (2 Bft)
04.04.2019 19:28 2,6 °C 80 % 1000,0 hPa 0,0 mm 7,2 km/h (2 Bft) W-SW 249 ° 0 min 0,000 mm 0,0 UV-I 9 W/m² -0,5 °C 0,6 °C 11,3 km/h (2 Bft)
04.04.2019 19:29 2,6 °C 80 % 1000,0 hPa 0,0 mm 5,0 km/h (1 Bft) S-SW 213 ° 0 min 0,000 mm 0,0 UV-I 9 W/m² -0,5 °C 1,4 °C 8,0 km/h (2 Bft)
04.04.2019 19:30 2,6 °C 80 % 1000,0 hPa 0,0 mm 9,5 km/h (2 Bft) W 281 ° 0 min 0,000 mm 0,0 UV-I 7 W/m² -0,5 °C -0,1 °C 14,5 km/h (3 Bft)
04.04.2019 19:31 2,6 °C 80 % 1000,0 hPa 0,0 mm 8,8 km/h (2 Bft) W 277 ° 0 min 0,000 mm 0,0 UV-I 7 W/m² -0,5 °C 0,1 °C 14,5 km/h (3 Bft)
04.04.2019 19:32 2,6 °C 80 % 1000,0 hPa 0,0 mm 9,1 km/h (2 Bft) W 261 ° 0 min 0,000 mm 0,0 UV-I 7 W/m² -0,5 °C 0,0 °C 17,7 km/h (3 Bft)
04.04.2019 19:33 2,6 °C 80 % 1000,0 hPa 0,0 mm 12,8 km/h (3 Bft) W 259 ° 0 min 0,000 mm 0,0 UV-I 5 W/m² -0,5 °C -0,8 °C 17,7 km/h (3 Bft)
04.04.2019 19:34 2,6 °C 80 % 1000,1 hPa 0,0 mm 12,0 km/h (2 Bft) W-NW 288 ° 0 min 0,000 mm 0,0 UV-I 5 W/m² -0,5 °C -0,7 °C 16,1 km/h (3 Bft)
04.04.2019 19:35 2,6 °C 80 % 1000,1 hPa 0,0 mm 9,3 km/h (2 Bft) W 270 ° 0 min 0,000 mm 0,0 UV-I 5 W/m² -0,5 °C -0,0 °C 14,5 km/h (3 Bft)
04.04.2019 19:36 2,6 °C 80 % 1000,1 hPa 0,0 mm 5,8 km/h (2 Bft) W 274 ° 0 min 0,000 mm 0,0 UV-I 0 W/m² -0,5 °C 1,0 °C 9,7 km/h (2 Bft)
04.04.2019 19:37 2,6 °C 80 % 1000,1 hPa 0,0 mm 8,0 km/h (2 Bft) W-NW 289 ° 0 min 0,000 mm 0,0 UV-I 0 W/m² -0,5 °C 0,3 °C 11,3 km/h (2 Bft)
04.04.2019 19:38 2,6 °C 80 % 1000,2 hPa 0,0 mm 4,9 km/h (1 Bft) W 267 ° 0 min 0,000 mm 0,0 UV-I 0 W/m² -0,5 °C 1,4 °C 8,0 km/h (2 Bft)
04.04.2019 19:39 2,6 °C 80 % 1000,2 hPa 0,0 mm 13,1 km/h (3 Bft) W-NW 294 ° 0 min 0,000 mm 0,0 UV-I 0 W/m² -0,5 °C -0,9 °C 17,7 km/h (3 Bft)
04.04.2019 19:40 2,5 °C 80 % 1000,2 hPa 0,0 mm 11,6 km/h (2 Bft) W-NW 282 ° 0 min 0,000 mm 0,0 UV-I 0 W/m² -0,6 °C -0,7 °C 14,5 km/h (3 Bft)
04.04.2019 19:41 2,5 °C 80 % 1000,3 hPa 0,0 mm 7,5 km/h (2 Bft) W 280 ° 0 min 0,000 mm 0,0 UV-I 0 W/m² -0,6 °C 0,3 °C 12,9 km/h (3 Bft)
04.04.2019 19:42 2,4 °C 80 % 1000,2 hPa 0,0 mm 8,2 km/h (2 Bft) W 267 ° 0 min 0,000 mm 0,0 UV-I 0 W/m² -0,7 °C 0,0 °C 16,1 km/h (3 Bft)
04.04.2019 19:43 2,5 °C 81 % 1000,3 hPa 0,0 mm 9,7 km/h (2 Bft) W-SW 243 ° 0 min 0,000 mm 0,0 UV-I 0 W/m² -0,4 °C -0,3 °C 17,7 km/h (3 Bft)
04.04.2019 19:44 2,4 °C 81 % 1000,3 hPa 0,0 mm 11,8 km/h (2 Bft) W-SW 250 ° 0 min 0,000 mm 0,0 UV-I 0 W/m² -0,5 °C -0,9 °C 19,3 km/h (3 Bft)
04.04.2019 19:45 2,4 °C 81 % 1000,4 hPa 0,0 mm 9,5 km/h (2 Bft) NW 310 ° 0 min 0,000 mm 0,0 UV-I 0 W/m² -0,5 °C -0,3 °C 19,3 km/h (3 Bft)
04.04.2019 19:46 2,4 °C 81 % 1000,5 hPa 0,0 mm 8,2 km/h (2 Bft) W 263 ° 0 min 0,000 mm 0,0 UV-I 0 W/m² -0,5 °C 0,0 °C 12,9 km/h (3 Bft)
04.04.2019 19:47 2,4 °C 81 % 1000,6 hPa 0,0 mm 7,8 km/h (2 Bft) S-SW 207 ° 0 min 0,000 mm 0,0 UV-I 0 W/m² -0,5 °C 0,1 °C 11,3 km/h (2 Bft)
04.04.2019 19:48 2,4 °C 81 % 1000,7 hPa 0,0 mm 9,3 km/h (2 Bft) W-SW 257 ° 0 min 0,000 mm 0,0 UV-I 0 W/m² -0,5 °C -0,3 °C 16,1 km/h (3 Bft)
04.04.2019 19:49 2,3 °C 81 % 1000,7 hPa 0,0 mm 16,9 km/h (3 Bft) W 265 ° 0 min 0,000 mm 0,0 UV-I 0 W/m² -0,6 °C -1,9 °C 19,3 km/h (3 Bft)
04.04.2019 19:50 2,3 °C 82 % 1000,8 hPa 0,0 mm 11,3 km/h (2 Bft) W 271 ° 0 min 0,000 mm 0,0 UV-I 0 W/m² -0,4 °C -0,9 °C 14,5 km/h (3 Bft)
04.04.2019 19:51 2,4 °C 82 % 1000,8 hPa 0,0 mm 10,0 km/h (2 Bft) W 279 ° 0 min 0,000 mm 0,0 UV-I 0 W/m² -0,4 °C -0,4 °C 12,9 km/h (3 Bft)
04.04.2019 19:52 2,3 °C 82 % 1000,8 hPa 0,0 mm 8,5 km/h (2 Bft) W 268 ° 0 min 0,000 mm 0,0 UV-I 0 W/m² -0,4 °C -0,2 °C 12,9 km/h (3 Bft)
04.04.2019 19:53 2,3 °C 82 % 1000,8 hPa 0,0 mm 6,2 km/h (2 Bft) W 277 ° 0 min 0,000 mm 0,0 UV-I 0 W/m² -0,4 °C 0,5 °C 9,7 km/h (2 Bft)
04.04.2019 19:54 2,3 °C 82 % 1000,8 hPa 0,0 mm 10,4 km/h (2 Bft) W-NW 288 ° 0 min 0,000 mm 0,0 UV-I 0 W/m² -0,4 °C -0,7 °C 17,7 km/h (3 Bft)
04.04.2019 19:55 2,3 °C 82 % 1000,8 hPa 0,0 mm 13,6 km/h (3 Bft) W-NW 292 ° 0 min 0,000 mm 0,0 UV-I 0 W/m² -0,4 °C -1,3 °C 17,7 km/h (3 Bft)
04.04.2019 19:56 2,3 °C 82 % 1000,7 hPa 0,0 mm 11,4 km/h (2 Bft) W 269 ° 0 min 0,000 mm 0,0 UV-I 0 W/m² -0,4 °C -0,9 °C 17,7 km/h (3 Bft)
04.04.2019 19:57 2,3 °C 82 % 1000,8 hPa 0,0 mm 8,8 km/h (2 Bft) SW 234 ° 0 min 0,000 mm 0,0 UV-I 0 W/m² -0,4 °C -0,3 °C 14,5 km/h (3 Bft)
04.04.2019 19:58 2,3 °C 82 % 1000,8 hPa 0,0 mm 10,3 km/h (2 Bft) S-SW 202 ° 0 min 0,000 mm 0,0 UV-I 0 W/m² -0,4 °C -0,6 °C 17,7 km/h (3 Bft)
04.04.2019 19:59 2,3 °C 82 % 1000,8 hPa 0,0 mm 13,8 km/h (3 Bft) W-NW 296 ° 0 min 0,000 mm 0,0 UV-I 0 W/m² -0,4 °C -1,4 °C 17,7 km/h (3 Bft)
04.04.2019 20:00 2,3 °C 82 % 1000,7 hPa 0,0 mm 5,0 km/h (1 Bft) W 281 ° 0 min 0,000 mm 0,0 UV-I 0 W/m² -0,4 °C 1,0 °C 11,3 km/h (2 Bft)
04.04.2019 20:01 2,3 °C 82 % 1000,7 hPa 0,0 mm 6,8 km/h (2 Bft) W 263 ° 0 min 0,026 mm 0,0 UV-I 0 W/m² -0,4 °C 0,3 °C 11,3 km/h (2 Bft)
04.04.2019 20:02 2,3 °C 83 % 1000,7 hPa 0,0 mm 8,6 km/h (2 Bft) W-NW 297 ° 0 min 0,000 mm 0,0 UV-I 0 W/m² -0,3 °C -0,2 °C 11,3 km/h (2 Bft)
04.04.2019 20:03 2,3 °C 83 % 1000,7 hPa 0,0 mm 13,1 km/h (3 Bft) W 271 ° 0 min 0,000 mm 0,0 UV-I 0 W/m² -0,3 °C -1,2 °C 17,7 km/h (3 Bft)
04.04.2019 20:04 2,3 °C 83 % 1000,7 hPa 0,0 mm 8,6 km/h (2 Bft) W-NW 296 ° 0 min 0,000 mm 0,0 UV-I 0 W/m² -0,3 °C -0,2 °C 12,9 km/h (3 Bft)
04.04.2019 20:05 2,3 °C 83 % 1000,8 hPa 0,0 mm 10,2 km/h (2 Bft) W-NW 288 ° 0 min 0,000 mm 0,0 UV-I 0 W/m² -0,3 °C -0,6 °C 14,5 km/h (3 Bft)
04.04.2019 20:06 2,3 °C 83 % 1000,8 hPa 0,0 mm 11,8 km/h (2 Bft) W-NW 286 ° 0 min 0,000 mm 0,0 UV-I 0 W/m² -0,3 °C -1,0 °C 16,1 km/h (3 Bft)
04.04.2019 20:07 2,2 °C 83 % 1000,8 hPa 0,0 mm 9,7 km/h (2 Bft) W-NW 290 ° 0 min 0,000 mm 0,0 UV-I 0 W/m² -0,4 °C -0,6 °C 12,9 km/h (3 Bft)
04.04.2019 20:08 2,2 °C 83 % 1000,8 hPa 0,0 mm 3,6 km/h (1 Bft) W-NW 292 ° 0 min 0,000 mm 0,0 UV-I 0 W/m² -0,4 °C 2,2 °C 6,4 km/h (2 Bft)
04.04.2019 20:09 2,2 °C 83 % 1000,8 hPa 0,0 mm 6,2 km/h (2 Bft) W-NW 290 ° 0 min 0,000 mm 0,0 UV-I 0 W/m² -0,4 °C 0,4 °C 11,3 km/h (2 Bft)
04.04.2019 20:10 2,2 °C 84 % 1000,8 hPa 0,0 mm 7,1 km/h (2 Bft) W 260 ° 0 min 0,000 mm 0,0 UV-I 0 W/m² -0,2 °C 0,1 °C 11,3 km/h (2 Bft)
04.04.2019 20:11 2,2 °C 84 % 1000,8 hPa 0,0 mm 8,9 km/h (2 Bft) W 265 ° 0 min 0,000 mm 0,0 UV-I 0 W/m² -0,2 °C -0,4 °C 14,5 km/h (3 Bft)
04.04.2019 20:12 2,2 °C 84 % 1000,9 hPa 0,0 mm 11,8 km/h (2 Bft) W 267 ° 0 min 0,000 mm 0,0 UV-I 0 W/m² -0,2 °C -1,1 °C 14,5 km/h (3 Bft)
04.04.2019 20:13 2,2 °C 84 % 1000,9 hPa 0,0 mm 8,4 km/h (2 Bft) W-SW 248 ° 0 min 0,000 mm 0,0 UV-I 0 W/m² -0,2 °C -0,3 °C 11,3 km/h (2 Bft)
04.04.2019 20:14 2,2 °C 84 % 1000,9 hPa 0,0 mm 5,8 km/h (2 Bft) W 263 ° 0 min 0,000 mm 0,0 UV-I 0 W/m² -0,2 °C 0,6 °C 9,7 km/h (2 Bft)
04.04.2019 20:15 2,2 °C 84 % 1000,9 hPa 0,0 mm 7,2 km/h (2 Bft) W 281 ° 0 min 0,000 mm 0,0 UV-I 0 W/m² -0,2 °C 0,1 °C 14,5 km/h (3 Bft)
04.04.2019 20:16 2,2 °C 84 % 1001,0 hPa 0,0 mm 9,8 km/h (2 Bft) W 262 ° 0 min 0,000 mm 0,0 UV-I 0 W/m² -0,2 °C -0,6 °C 14,5 km/h (3 Bft)
04.04.2019 20:17 2,2 °C 84 % 1001,0 hPa 0,0 mm 7,0 km/h (2 Bft) W 267 ° 0 min 0,000 mm 0,0 UV-I 0 W/m² -0,2 °C 0,2 °C 11,3 km/h (2 Bft)
04.04.2019 20:18 2,1 °C 84 % 1001,1 hPa 0,0 mm 6,0 km/h (2 Bft) W-SW 253 ° 0 min 0,000 mm 0,0 UV-I 0 W/m² -0,3 °C 0,4 °C 11,3 km/h (2 Bft)
04.04.2019 20:19 2,1 °C 84 % 1001,1 hPa 0,0 mm 11,2 km/h (2 Bft) W-NW 288 ° 0 min 0,000 mm 0,0 UV-I 0 W/m² -0,3 °C -1,1 °C 14,5 km/h (3 Bft)
04.04.2019 20:20 2,2 °C 84 % 1001,2 hPa 0,0 mm 5,0 km/h (1 Bft) W 280 ° 0 min 0,000 mm 0,0 UV-I 0 W/m² -0,2 °C 0,9 °C 6,4 km/h (2 Bft)
04.04.2019 20:21 2,1 °C 84 % 1001,2 hPa 0,0 mm 4,5 km/h (1 Bft) W 264 ° 0 min 0,000 mm 0,0 UV-I 0 W/m² -0,3 °C 2,1 °C 6,4 km/h (2 Bft)
04.04.2019 20:22 2,1 °C 84 % 1001,2 hPa 0,0 mm 7,4 km/h (2 Bft) W 259 ° 0 min 0,000 mm 0,0 UV-I 0 W/m² -0,3 °C -0,1 °C 14,5 km/h (3 Bft)
04.04.2019 20:23 2,1 °C 84 % 1001,3 hPa 0,0 mm 7,4 km/h (2 Bft) W 263 ° 0 min 0,000 mm 0,0 UV-I 0 W/m² -0,3 °C -0,1 °C 11,3 km/h (2 Bft)
04.04.2019 20:24 2,2 °C 84 % 1001,3 hPa 0,0 mm 4,2 km/h (1 Bft) W 259 ° 0 min 0,000 mm 0,0 UV-I 0 W/m² -0,2 °C 2,2 °C 6,4 km/h (2 Bft)
04.04.2019 20:25 2,1 °C 84 % 1001,4 hPa 0,0 mm 6,5 km/h (2 Bft) W-NW 284 ° 0 min 0,000 mm 0,0 UV-I 0 W/m² -0,3 °C 0,2 °C 11,3 km/h (2 Bft)
04.04.2019 20:26 2,1 °C 85 % 1001,4 hPa 0,0 mm 4,0 km/h (1 Bft) NW 306 ° 0 min 0,000 mm 0,0 UV-I 0 W/m² -0,2 °C 2,1 °C 6,4 km/h (2 Bft)
04.04.2019 20:27 2,1 °C 85 % 1001,4 hPa 0,0 mm 5,2 km/h (1 Bft) W-SW 255 ° 0 min 0,000 mm 0,0 UV-I 0 W/m² -0,2 °C 0,7 °C 11,3 km/h (2 Bft)
04.04.2019 20:28 2,1 °C 85 % 1001,4 hPa 0,0 mm 8,2 km/h (2 Bft) W 271 ° 0 min 0,000 mm 0,0 UV-I 0 W/m² -0,2 °C -0,3 °C 16,1 km/h (3 Bft)
04.04.2019 20:29 2,1 °C 85 % 1001,4 hPa 0,0 mm 9,8 km/h (2 Bft) W 259 ° 0 min 0,000 mm 0,0 UV-I 0 W/m² -0,2 °C -0,8 °C 14,5 km/h (3 Bft)
04.04.2019 20:30 2,1 °C 85 % 1001,4 hPa 0,0 mm 9,2 km/h (2 Bft) W 267 ° 0 min 0,000 mm 0,0 UV-I 0 W/m² -0,2 °C -0,6 °C 12,9 km/h (3 Bft)
04.04.2019 20:31 2,1 °C 85 % 1001,5 hPa 0,0 mm 8,6 km/h (2 Bft) W-NW 288 ° 0 min 0,000 mm 0,0 UV-I 0 W/m² -0,2 °C -0,4 °C 12,9 km/h (3 Bft)
04.04.2019 20:32 2,1 °C 85 % 1001,5 hPa 0,0 mm 8,4 km/h (2 Bft) W-NW 298 ° 0 min 0,000 mm 0,0 UV-I 0 W/m² -0,2 °C -0,4 °C 14,5 km/h (3 Bft)
04.04.2019 20:33 2,1 °C 85 % 1001,6 hPa 0,0 mm 4,1 km/h (1 Bft) W 269 ° 0 min 0,000 mm 0,0 UV-I 0 W/m² -0,2 °C 2,1 °C 9,7 km/h (2 Bft)
04.04.2019 20:34 2,1 °C 85 % 1001,6 hPa 0,0 mm 7,2 km/h (2 Bft) W-SW 237 ° 0 min 0,000 mm 0,0 UV-I 0 W/m² -0,2 °C -0,0 °C 11,3 km/h (2 Bft)
04.04.2019 20:35 2,1 °C 85 % 1001,7 hPa 0,0 mm 5,6 km/h (1 Bft) W-NW 291 ° 0 min 0,000 mm 0,0 UV-I 0 W/m² -0,2 °C 0,5 °C 9,7 km/h (2 Bft)
04.04.2019 20:36 2,1 °C 85 % 1001,7 hPa 0,0 mm 2,8 km/h (1 Bft) NW 304 ° 0 min 0,000 mm 0,0 UV-I 0 W/m² -0,2 °C 2,1 °C 8,0 km/h (2 Bft)
04.04.2019 20:37 2,0 °C 85 % 1001,8 hPa 0,0 mm 4,5 km/h (1 Bft) W-NW 294 ° 0 min 0,000 mm 0,0 UV-I 0 W/m² -0,3 °C 2,0 °C 6,4 km/h (2 Bft)
04.04.2019 20:38 2,0 °C 85 % 1001,8 hPa 0,0 mm 6,4 km/h (2 Bft) W 275 ° 0 min 0,000 mm 0,0 UV-I 0 W/m² -0,3 °C 0,1 °C 9,7 km/h (2 Bft)
04.04.2019 20:39 2,0 °C 85 % 1001,8 hPa 0,0 mm 8,1 km/h (2 Bft) NW 306 ° 0 min 0,000 mm 0,0 UV-I 0 W/m² -0,3 °C -0,4 °C 12,9 km/h (3 Bft)
04.04.2019 20:40 2,0 °C 85 % 1001,8 hPa 0,0 mm 7,6 km/h (2 Bft) W 277 ° 0 min 0,000 mm 0,0 UV-I 0 W/m² -0,3 °C -0,3 °C 11,3 km/h (2 Bft)
04.04.2019 20:41 2,0 °C 85 % 1001,8 hPa 0,0 mm 10,3 km/h (2 Bft) W-SW 257 ° 0 min 0,000 mm 0,0 UV-I 0 W/m² -0,3 °C -1,0 °C 12,9 km/h (3 Bft)
04.04.2019 20:42 1,9 °C 86 % 1001,8 hPa 0,0 mm 9,8 km/h (2 Bft) W 271 ° 0 min 0,000 mm 0,0 UV-I 0 W/m² -0,2 °C -1,0 °C 12,9 km/h (3 Bft)
04.04.2019 20:43 1,9 °C 86 % 1001,9 hPa 0,0 mm 6,9 km/h (2 Bft) W-SW 243 ° 0 min 0,000 mm 0,0 UV-I 0 W/m² -0,2 °C -0,2 °C 11,3 km/h (2 Bft)
04.04.2019 20:44 1,9 °C 86 % 1001,8 hPa 0,0 mm 8,8 km/h (2 Bft) W-SW 256 ° 0 min 0,000 mm 0,0 UV-I 0 W/m² -0,2 °C -0,7 °C 12,9 km/h (3 Bft)
04.04.2019 20:45 1,9 °C 86 % 1001,9 hPa 0,0 mm 10,0 km/h (2 Bft) W-SW 253 ° 0 min 0,000 mm 0,0 UV-I 0 W/m² -0,2 °C -1,0 °C 12,9 km/h (3 Bft)
04.04.2019 20:46 1,8 °C 86 % 1001,8 hPa 0,0 mm 11,5 km/h (2 Bft) W-SW 254 ° 0 min 0,000 mm 0,0 UV-I 0 W/m² -0,3 °C -1,5 °C 14,5 km/h (3 Bft)
04.04.2019 20:47 1,8 °C 86 % 1001,8 hPa 0,0 mm 9,2 km/h (2 Bft) W 269 ° 0 min 0,000 mm 0,0 UV-I 0 W/m² -0,3 °C -1,0 °C 12,9 km/h (3 Bft)
04.04.2019 20:48 1,8 °C 86 % 1001,8 hPa 0,0 mm 10,9 km/h (2 Bft) W 262 ° 0 min 0,000 mm 0,0 UV-I 0 W/m² -0,3 °C -1,4 °C 17,7 km/h (3 Bft)
04.04.2019 20:49 1,8 °C 86 % 1001,8 hPa 0,0 mm 8,9 km/h (2 Bft) W 278 ° 0 min 0,000 mm 0,0 UV-I 0 W/m² -0,3 °C -0,9 °C 12,9 km/h (3 Bft)
04.04.2019 20:50 1,7 °C 86 % 1001,8 hPa 0,0 mm 5,6 km/h (1 Bft) W 264 ° 0 min 0,000 mm 0,0 UV-I 0 W/m² -0,4 °C 0,1 °C 8,0 km/h (2 Bft)
04.04.2019 20:51 1,7 °C 87 % 1001,8 hPa 0,0 mm 5,4 km/h (1 Bft) W-NW 286 ° 0 min 0,000 mm 0,0 UV-I 0 W/m² -0,2 °C 0,2 °C 12,9 km/h (3 Bft)
04.04.2019 20:52 1,7 °C 87 % 1001,9 hPa 0,0 mm 6,4 km/h (2 Bft) W-SW 254 ° 0 min 0,000 mm 0,0 UV-I 0 W/m² -0,2 °C -0,2 °C 9,7 km/h (2 Bft)
04.04.2019 20:53 1,7 °C 87 % 1001,9 hPa 0,0 mm 2,5 km/h (1 Bft) W-SW 254 ° 0 min 0,000 mm 0,0 UV-I 0 W/m² -0,2 °C 1,7 °C 3,2 km/h (1 Bft)
04.04.2019 20:54 1,7 °C 87 % 1001,9 hPa 0,0 mm 3,1 km/h (1 Bft) W-SW 252 ° 0 min 0,000 mm 0,0 UV-I 0 W/m² -0,2 °C 1,7 °C 6,4 km/h (2 Bft)
04.04.2019 20:55 1,7 °C 87 % 1002,0 hPa 0,0 mm 5,7 km/h (1 Bft) W 261 ° 0 min 0,000 mm 0,0 UV-I 0 W/m² -0,2 °C 0,0 °C 9,7 km/h (2 Bft)
04.04.2019 20:56 1,6 °C 87 % 1002,0 hPa 0,0 mm 7,5 km/h (2 Bft) W 270 ° 0 min 0,000 mm 0,0 UV-I 0 W/m² -0,3 °C -0,7 °C 11,3 km/h (2 Bft)
04.04.2019 20:57 1,6 °C 87 % 1002,0 hPa 0,0 mm 5,2 km/h (1 Bft) W-NW 284 ° 0 min 0,000 mm 0,0 UV-I 0 W/m² -0,3 °C 0,1 °C 11,3 km/h (2 Bft)
04.04.2019 20:58 1,6 °C 87 % 1002,0 hPa 0,0 mm 4,0 km/h (1 Bft) W 277 ° 0 min 0,000 mm 0,0 UV-I 0 W/m² -0,3 °C 1,6 °C 4,8 km/h (1 Bft)
04.04.2019 20:59 1,6 °C 88 % 1002,1 hPa 0,0 mm 5,1 km/h (1 Bft) W 262 ° 0 min 0,000 mm 0,0 UV-I 0 W/m² -0,2 °C 0,2 °C 6,4 km/h (2 Bft)
04.04.2019 21:00 1,6 °C 88 % 1002,0 hPa 0,0 mm 7,3 km/h (2 Bft) W-NW 288 ° 0 min 0,025 mm 0,0 UV-I 0 W/m² -0,2 °C -0,6 °C 11,3 km/h (2 Bft)
04.04.2019 21:01 1,5 °C 88 % 1002,1 hPa 0,0 mm 5,6 km/h (1 Bft) W 271 ° 0 min 0,000 mm 0,0 UV-I 0 W/m² -0,3 °C -0,1 °C 9,7 km/h (2 Bft)
04.04.2019 21:02 1,4 °C 88 % 1002,1 hPa 0,0 mm 7,6 km/h (2 Bft) W-SW 256 ° 0 min 0,000 mm 0,0 UV-I 0 W/m² -0,4 °C -1,0 °C 11,3 km/h (2 Bft)
04.04.2019 21:03 1,5 °C 88 % 1002,1 hPa 0,0 mm 7,0 km/h (2 Bft) W-SW 252 ° 0 min 0,000 mm 0,0 UV-I 0 W/m² -0,3 °C -0,7 °C 9,7 km/h (2 Bft)
04.04.2019 21:04 1,4 °C 88 % 1002,2 hPa 0,0 mm 8,0 km/h (2 Bft) W-SW 254 ° 0 min 0,000 mm 0,0 UV-I 0 W/m² -0,4 °C -1,1 °C 11,3 km/h (2 Bft)
04.04.2019 21:05 1,4 °C 88 % 1002,2 hPa 0,0 mm 4,1 km/h (1 Bft) W 260 ° 0 min 0,000 mm 0,0 UV-I 0 W/m² -0,4 °C 1,4 °C 4,8 km/h (1 Bft)
04.04.2019 21:06 1,4 °C 88 % 1002,3 hPa 0,0 mm 4,4 km/h (1 Bft) W 259 ° 0 min 0,000 mm 0,0 UV-I 0 W/m² -0,4 °C 1,4 °C 6,4 km/h (2 Bft)
04.04.2019 21:07 1,3 °C 89 % 1002,3 hPa 0,0 mm 6,0 km/h (2 Bft) SW 234 ° 0 min 0,000 mm 0,0 UV-I 0 W/m² -0,3 °C -0,5 °C 8,0 km/h (2 Bft)
04.04.2019 21:08 1,3 °C 89 % 1002,3 hPa 0,0 mm 2,9 km/h (1 Bft) W-SW 249 ° 0 min 0,000 mm 0,0 UV-I 0 W/m² -0,3 °C 1,3 °C 6,4 km/h (2 Bft)
04.04.2019 21:09 1,3 °C 89 % 1002,3 hPa 0,0 mm 5,4 km/h (1 Bft) SW 215 ° 0 min 0,000 mm 0,0 UV-I 0 W/m² -0,3 °C -0,3 °C 6,4 km/h (2 Bft)
04.04.2019 21:10 1,3 °C 89 % 1002,4 hPa 0,0 mm 5,2 km/h (1 Bft) W 261 ° 0 min 0,000 mm 0,0 UV-I 0 W/m² -0,3 °C -0,2 °C 6,4 km/h (2 Bft)
04.04.2019 21:11 1,3 °C 89 % 1002,4 hPa 0,0 mm 5,6 km/h (1 Bft) W 263 ° 0 min 0,000 mm 0,0 UV-I 0 W/m² -0,3 °C -0,4 °C 9,7 km/h (2 Bft)
04.04.2019 21:12 1,3 °C 89 % 1002,3 hPa 0,0 mm 5,5 km/h (1 Bft) W 264 ° 0 min 0,000 mm 0,0 UV-I 0 W/m² -0,3 °C -0,3 °C 9,7 km/h (2 Bft)
04.04.2019 21:13 1,2 °C 89 % 1002,4 hPa 0,0 mm 4,1 km/h (1 Bft) W 267 ° 0 min 0,000 mm 0,0 UV-I 0 W/m² -0,4 °C 1,2 °C 6,4 km/h (2 Bft)
04.04.2019 21:14 1,2 °C 89 % 1002,4 hPa 0,0 mm 4,3 km/h (1 Bft) W 267 ° 0 min 0,000 mm 0,0 UV-I 0 W/m² -0,4 °C 1,2 °C 6,4 km/h (2 Bft)
04.04.2019 21:15 1,2 °C 89 % 1002,4 hPa 0,0 mm 6,4 km/h (2 Bft) W 259 ° 0 min 0,000 mm 0,0 UV-I 0 W/m² -0,4 °C -0,8 °C 9,7 km/h (2 Bft)
04.04.2019 21:16 1,2 °C 89 % 1002,4 hPa 0,0 mm 4,2 km/h (1 Bft) W 269 ° 0 min 0,000 mm 0,0 UV-I 0 W/m² -0,4 °C 1,2 °C 4,8 km/h (1 Bft)
04.04.2019 21:17 1,2 °C 89 % 1002,4 hPa 0,0 mm 6,6 km/h (2 Bft) W 265 ° 0 min 0,000 mm 0,0 UV-I 0 W/m² -0,4 °C -0,9 °C 9,7 km/h (2 Bft)
04.04.2019 21:18 1,1 °C 89 % 1002,4 hPa 0,0 mm 4,8 km/h (1 Bft) W 273 ° 0 min 0,000 mm 0,0 UV-I 0 W/m² -0,5 °C -0,2 °C 6,4 km/h (2 Bft)
04.04.2019 21:19 1,1 °C 89 % 1002,5 hPa 0,0 mm 5,2 km/h (1 Bft) W-SW 250 ° 0 min 0,000 mm 0,0 UV-I 0 W/m² -0,5 °C -0,4 °C 9,7 km/h (2 Bft)
04.04.2019 21:20 1,1 °C 89 % 1002,4 hPa 0,0 mm 8,2 km/h (2 Bft) W-NW 285 ° 0 min 0,000 mm 0,0 UV-I 0 W/m² -0,5 °C -1,5 °C 11,3 km/h (2 Bft)
04.04.2019 21:21 1,1 °C 90 % 1002,4 hPa 0,0 mm 4,0 km/h (1 Bft) W 279 ° 0 min 0,000 mm 0,0 UV-I 0 W/m² -0,4 °C 1,1 °C 6,4 km/h (2 Bft)
04.04.2019 21:22 1,1 °C 90 % 1002,4 hPa 0,0 mm 3,0 km/h (1 Bft) W 279 ° 0 min 0,000 mm 0,0 UV-I 0 W/m² -0,4 °C 1,1 °C 4,8 km/h (1 Bft)
04.04.2019 21:23 1,1 °C 90 % 1002,3 hPa 0,0 mm 5,0 km/h (1 Bft) W-SW 257 ° 0 min 0,000 mm 0,0 UV-I 0 W/m² -0,4 °C -0,3 °C 6,4 km/h (2 Bft)
04.04.2019 21:24 1,1 °C 90 % 1002,3 hPa 0,0 mm 4,1 km/h (1 Bft) W 275 ° 0 min 0,000 mm 0,0 UV-I 0 W/m² -0,4 °C 1,1 °C 4,8 km/h (1 Bft)
04.04.2019 21:25 1,1 °C 90 % 1002,4 hPa 0,0 mm 5,2 km/h (1 Bft) W-SW 253 ° 0 min 0,000 mm 0,0 UV-I 0 W/m² -0,4 °C -0,4 °C 9,7 km/h (2 Bft)
04.04.2019 21:26 1,1 °C 90 % 1002,4 hPa 0,0 mm 4,1 km/h (1 Bft) W 277 ° 0 min 0,000 mm 0,0 UV-I 0 W/m² -0,4 °C 1,1 °C 6,4 km/h (2 Bft)
04.04.2019 21:27 1,1 °C 90 % 1002,4 hPa 0,0 mm 4,9 km/h (1 Bft) W 268 ° 0 min 0,000 mm 0,0 UV-I 0 W/m² -0,4 °C -0,3 °C 6,4 km/h (2 Bft)
04.04.2019 21:28 1,1 °C 90 % 1002,4 hPa 0,0 mm 4,8 km/h (1 Bft) W 267 ° 0 min 0,000 mm 0,0 UV-I 0 W/m² -0,4 °C -0,2 °C 6,4 km/h (2 Bft)
04.04.2019 21:29 1,1 °C 90 % 1002,3 hPa 0,0 mm 5,7 km/h (1 Bft) W 273 ° 0 min 0,000 mm 0,0 UV-I 0 W/m² -0,4 °C -0,6 °C 9,7 km/h (2 Bft)
04.04.2019 21:30 1,1 °C 90 % 1002,4 hPa 0,0 mm 5,3 km/h (1 Bft) W 264 ° 0 min 0,000 mm 0,0 UV-I 0 W/m² -0,4 °C -0,5 °C 9,7 km/h (2 Bft)
04.04.2019 21:31 1,0 °C 90 % 1002,4 hPa 0,0 mm 8,4 km/h (2 Bft) W 265 ° 0 min 0,000 mm 0,0 UV-I 0 W/m² -0,5 °C -1,7 °C 11,3 km/h (2 Bft)
04.04.2019 21:32 1,0 °C 90 % 1002,4 hPa 0,0 mm 4,6 km/h (1 Bft) W 268 ° 0 min 0,000 mm 0,0 UV-I 0 W/m² -0,5 °C -0,3 °C 6,4 km/h (2 Bft)
04.04.2019 21:33 1,0 °C 90 % 1002,4 hPa 0,0 mm 4,6 km/h (1 Bft) W 277 ° 0 min 0,000 mm 0,0 UV-I 0 W/m² -0,5 °C -0,3 °C 9,7 km/h (2 Bft)
04.04.2019 21:34 0,9 °C 90 % 1002,4 hPa 0,0 mm 6,8 km/h (2 Bft) W 262 ° 0 min 0,000 mm 0,0 UV-I 0 W/m² -0,6 °C -1,3 °C 11,3 km/h (2 Bft)
04.04.2019 21:35 1,0 °C 90 % 1002,4 hPa 0,0 mm 5,7 km/h (1 Bft) W 279 ° 0 min 0,000 mm 0,0 UV-I 0 W/m² -0,5 °C -0,8 °C 6,4 km/h (2 Bft)
04.04.2019 21:36 1,0 °C 90 % 1002,4 hPa 0,0 mm 4,1 km/h (1 Bft) W 271 ° 0 min 0,000 mm 0,0 UV-I 0 W/m² -0,5 °C 1,0 °C 6,4 km/h (2 Bft)
04.04.2019 21:37 0,9 °C 90 % 1002,4 hPa 0,0 mm 9,2 km/h (2 Bft) W-SW 248 ° 0 min 0,000 mm 0,0 UV-I 0 W/m² -0,6 °C -2,0 °C 12,9 km/h (3 Bft)
04.04.2019 21:38 0,9 °C 90 % 1002,4 hPa 0,0 mm 6,6 km/h (2 Bft) W-SW 254 ° 0 min 0,000 mm 0,0 UV-I 0 W/m² -0,6 °C -1,2 °C 9,7 km/h (2 Bft)
04.04.2019 21:39 0,9 °C 90 % 1002,3 hPa 0,0 mm 3,2 km/h (1 Bft) W 263 ° 0 min 0,000 mm 0,0 UV-I 0 W/m² -0,6 °C 0,9 °C 4,8 km/h (1 Bft)
04.04.2019 21:40 0,9 °C 90 % 1002,4 hPa 0,0 mm 7,9 km/h (2 Bft) W 281 ° 0 min 0,000 mm 0,0 UV-I 0 W/m² -0,6 °C -1,7 °C 11,3 km/h (2 Bft)
04.04.2019 21:41 0,9 °C 91 % 1002,4 hPa 0,0 mm 4,1 km/h (1 Bft) W-SW 255 ° 0 min 0,000 mm 0,0 UV-I 0 W/m² -0,4 °C 0,9 °C 4,8 km/h (1 Bft)
04.04.2019 21:42 0,9 °C 90 % 1002,4 hPa 0,0 mm 3,5 km/h (1 Bft) W 279 ° 0 min 0,000 mm 0,0 UV-I 0 W/m² -0,6 °C 0,9 °C 4,8 km/h (1 Bft)
04.04.2019 21:43 0,9 °C 90 % 1002,5 hPa 0,0 mm 1,9 km/h (1 Bft) W 279 ° 0 min 0,000 mm 0,0 UV-I 0 W/m² -0,6 °C 0,9 °C 3,2 km/h (1 Bft)
04.04.2019 21:44 0,9 °C 90 % 1002,5 hPa 0,0 mm 3,8 km/h (1 Bft) W 275 ° 0 min 0,000 mm 0,0 UV-I 0 W/m² -0,6 °C 0,9 °C 6,4 km/h (2 Bft)
04.04.2019 21:45 0,9 °C 90 % 1002,5 hPa 0,0 mm 3,9 km/h (1 Bft) W 271 ° 0 min 0,000 mm 0,0 UV-I 0 W/m² -0,6 °C 0,9 °C 6,4 km/h (2 Bft)
04.04.2019 21:46 0,8 °C 90 % 1002,5 hPa 0,0 mm 6,1 km/h (2 Bft) W 269 ° 0 min 0,000 mm 0,0 UV-I 0 W/m² -0,6 °C -1,1 °C 9,7 km/h (2 Bft)
04.04.2019 21:47 0,8 °C 91 % 1002,5 hPa 0,0 mm 5,0 km/h (1 Bft) W 261 ° 0 min 0,000 mm 0,0 UV-I 0 W/m² -0,5 °C -0,7 °C 9,7 km/h (2 Bft)
04.04.2019 21:48 0,8 °C 91 % 1002,5 hPa 0,0 mm 7,8 km/h (2 Bft) W-SW 258 ° 0 min 0,000 mm 0,0 UV-I 0 W/m² -0,5 °C -1,7 °C 12,9 km/h (3 Bft)
04.04.2019 21:49 0,8 °C 91 % 1002,5 hPa 0,0 mm 7,1 km/h (2 Bft) W 271 ° 0 min 0,000 mm 0,0 UV-I 0 W/m² -0,5 °C -1,5 °C 11,3 km/h (2 Bft)
04.04.2019 21:50 0,8 °C 91 % 1002,5 hPa 0,0 mm 7,3 km/h (2 Bft) W-SW 246 ° 0 min 0,000 mm 0,0 UV-I 0 W/m² -0,5 °C -1,6 °C 9,7 km/h (2 Bft)
04.04.2019 21:51 0,8 °C 91 % 1002,5 hPa 0,0 mm 5,7 km/h (1 Bft) W-SW 257 ° 0 min 0,000 mm 0,0 UV-I 0 W/m² -0,5 °C -1,0 °C 8,0 km/h (2 Bft)
04.04.2019 21:52 0,8 °C 91 % 1002,5 hPa 0,0 mm 5,6 km/h (1 Bft) W-SW 250 ° 0 min 0,000 mm 0,0 UV-I 0 W/m² -0,5 °C -0,9 °C 6,4 km/h (2 Bft)
04.04.2019 21:53 0,8 °C 91 % 1002,5 hPa 0,0 mm 4,1 km/h (1 Bft) W-SW 250 ° 0 min 0,000 mm 0,0 UV-I 0 W/m² -0,5 °C 0,8 °C 8,0 km/h (2 Bft)
04.04.2019 21:54 0,8 °C 91 % 1002,5 hPa 0,0 mm 7,5 km/h (2 Bft) W-NW 284 ° 0 min 0,000 mm 0,0 UV-I 0 W/m² -0,5 °C -1,6 °C 9,7 km/h (2 Bft)
04.04.2019 21:55 0,7 °C 91 % 1002,5 hPa 0,0 mm 5,2 km/h (1 Bft) W 268 ° 0 min 0,000 mm 0,0 UV-I 0 W/m² -0,6 °C -0,9 °C 9,7 km/h (2 Bft)
04.04.2019 21:56 0,8 °C 91 % 1002,6 hPa 0,0 mm 8,5 km/h (2 Bft) W 264 ° 0 min 0,000 mm 0,0 UV-I 0 W/m² -0,5 °C -1,9 °C 11,3 km/h (2 Bft)
04.04.2019 21:57 0,8 °C 91 % 1002,5 hPa 0,0 mm 7,8 km/h (2 Bft) W-SW 258 ° 0 min 0,000 mm 0,0 UV-I 0 W/m² -0,5 °C -1,7 °C 11,3 km/h (2 Bft)
04.04.2019 21:58 0,7 °C 91 % 1002,6 hPa 0,0 mm 5,4 km/h (1 Bft) SW 215 ° 0 min 0,000 mm 0,0 UV-I 0 W/m² -0,6 °C -1,0 °C 11,3 km/h (2 Bft)
04.04.2019 21:59 0,7 °C 91 % 1002,6 hPa 0,0 mm 4,8 km/h (1 Bft) W 262 ° 0 min 0,000 mm 0,0 UV-I 0 W/m² -0,6 °C -0,7 °C 8,0 km/h (2 Bft)
04.04.2019 22:00 0,7 °C 91 % 1002,5 hPa 0,0 mm 4,2 km/h (1 Bft) W 262 ° 0 min 0,000 mm 0,0 UV-I 0 W/m² -0,6 °C 0,7 °C 6,4 km/h (2 Bft)
04.04.2019 22:01 0,7 °C 91 % 1002,6 hPa 0,0 mm 6,2 km/h (2 Bft) W 271 ° 0 min 0,000 mm 0,0 UV-I 0 W/m² -0,6 °C -1,3 °C 9,7 km/h (2 Bft)
04.04.2019 22:02 0,7 °C 91 % 1002,6 hPa 0,0 mm 2,7 km/h (1 Bft) W 270 ° 0 min 0,000 mm 0,0 UV-I 0 W/m² -0,6 °C 0,7 °C 4,8 km/h (1 Bft)
04.04.2019 22:03 0,7 °C 91 % 1002,6 hPa 0,0 mm 4,4 km/h (1 Bft) W 275 ° 0 min 0,000 mm 0,0 UV-I 0 W/m² -0,6 °C 0,7 °C 8,0 km/h (2 Bft)
04.04.2019 22:04 0,7 °C 91 % 1002,7 hPa 0,0 mm 5,2 km/h (1 Bft) W 268 ° 0 min 0,000 mm 0,0 UV-I 0 W/m² -0,6 °C -0,9 °C 6,4 km/h (2 Bft)
04.04.2019 22:05 0,7 °C 91 % 1002,7 hPa 0,0 mm 6,2 km/h (2 Bft) W-SW 252 ° 0 min 0,000 mm 0,0 UV-I 0 W/m² -0,6 °C -1,3 °C 8,0 km/h (2 Bft)
04.04.2019 22:06 0,7 °C 91 % 1002,7 hPa 0,0 mm 4,7 km/h (1 Bft) W-NW 288 ° 0 min 0,000 mm 0,0 UV-I 0 W/m² -0,6 °C -0,7 °C 8,0 km/h (2 Bft)
04.04.2019 22:07 0,7 °C 91 % 1002,7 hPa 0,0 mm 4,3 km/h (1 Bft) W 265 ° 0 min 0,000 mm 0,0 UV-I 0 W/m² -0,6 °C 0,7 °C 6,4 km/h (2 Bft)
04.04.2019 22:08 0,7 °C 91 % 1002,7 hPa 0,0 mm 4,4 km/h (1 Bft) W 262 ° 0 min 0,000 mm 0,0 UV-I 0 W/m² -0,6 °C 0,7 °C 6,4 km/h (2 Bft)
04.04.2019 22:09 0,7 °C 91 % 1002,7 hPa 0,0 mm 4,8 km/h (1 Bft) W 266 ° 0 min 0,000 mm 0,0 UV-I 0 W/m² -0,6 °C -0,7 °C 6,4 km/h (2 Bft)
04.04.2019 22:10 0,7 °C 91 % 1002,7 hPa 0,0 mm 4,7 km/h (1 Bft) W-SW 253 ° 0 min 0,000 mm 0,0 UV-I 0 W/m² -0,6 °C -0,7 °C 6,4 km/h (2 Bft)
04.04.2019 22:11 0,7 °C 91 % 1002,8 hPa 0,0 mm 5,5 km/h (1 Bft) W 262 ° 0 min 0,000 mm 0,0 UV-I 0 W/m² -0,6 °C -1,0 °C 14,5 km/h (3 Bft)
04.04.2019 22:12 0,7 °C 91 % 1002,8 hPa 0,0 mm 8,3 km/h (2 Bft) W 265 ° 0 min 0,000 mm 0,0 UV-I 0 W/m² -0,6 °C -2,0 °C 12,9 km/h (3 Bft)
04.04.2019 22:13 0,6 °C 91 % 1002,8 hPa 0,0 mm 5,2 km/h (1 Bft) W 271 ° 0 min 0,000 mm 0,0 UV-I 0 W/m² -0,7 °C -1,0 °C 11,3 km/h (2 Bft)
04.04.2019 22:14 0,7 °C 91 % 1002,8 hPa 0,0 mm 6,6 km/h (2 Bft) W 265 ° 0 min 0,000 mm 0,0 UV-I 0 W/m² -0,6 °C -1,4 °C 9,7 km/h (2 Bft)
04.04.2019 22:15 0,6 °C 91 % 1002,8 hPa 0,0 mm 8,0 km/h (2 Bft) W 279 ° 0 min 0,000 mm 0,0 UV-I 0 W/m² -0,7 °C -2,0 °C 11,3 km/h (2 Bft)
04.04.2019 22:16 0,6 °C 91 % 1002,9 hPa 0,0 mm 10,3 km/h (2 Bft) W-NW 290 ° 0 min 0,000 mm 0,0 UV-I 0 W/m² -0,7 °C -2,7 °C 14,5 km/h (3 Bft)
04.04.2019 22:17 0,6 °C 91 % 1002,8 hPa 0,0 mm 5,2 km/h (1 Bft) W 271 ° 0 min 0,000 mm 0,0 UV-I 0 W/m² -0,7 °C -1,0 °C 6,4 km/h (2 Bft)
04.04.2019 22:18 0,6 °C 91 % 1002,9 hPa 0,0 mm 6,6 km/h (2 Bft) W 260 ° 0 min 0,000 mm 0,0 UV-I 0 W/m² -0,7 °C -1,6 °C 12,9 km/h (3 Bft)
04.04.2019 22:19 0,6 °C 91 % 1002,9 hPa 0,0 mm 10,7 km/h (2 Bft) W 263 ° 0 min 0,000 mm 0,0 UV-I 0 W/m² -0,7 °C -2,8 °C 12,9 km/h (3 Bft)
04.04.2019 22:20 0,6 °C 91 % 1002,8 hPa 0,0 mm 7,2 km/h (2 Bft) W-NW 290 ° 0 min 0,000 mm 0,0 UV-I 0 W/m² -0,7 °C -1,8 °C 9,7 km/h (2 Bft)
04.04.2019 22:21 0,6 °C 91 % 1002,9 hPa 0,0 mm 7,2 km/h (2 Bft) W-SW 258 ° 0 min 0,000 mm 0,0 UV-I 0 W/m² -0,7 °C -1,8 °C 11,3 km/h (2 Bft)
04.04.2019 22:22 0,6 °C 91 % 1002,9 hPa 0,0 mm 3,9 km/h (1 Bft) W-NW 290 ° 0 min 0,000 mm 0,0 UV-I 0 W/m² -0,7 °C 0,6 °C 11,3 km/h (2 Bft)
04.04.2019 22:23 0,6 °C 91 % 1002,9 hPa 0,0 mm 1,7 km/h (1 Bft) W-NW 294 ° 0 min 0,000 mm 0,0 UV-I 0 W/m² -0,7 °C 0,6 °C 3,2 km/h (1 Bft)
04.04.2019 22:24 0,6 °C 91 % 1002,9 hPa 0,0 mm 8,6 km/h (2 Bft) W-NW 285 ° 0 min 0,000 mm 0,0 UV-I 0 W/m² -0,7 °C -2,2 °C 14,5 km/h (3 Bft)
04.04.2019 22:25 0,6 °C 91 % 1002,9 hPa 0,0 mm 6,8 km/h (2 Bft) W-SW 258 ° 0 min 0,000 mm 0,0 UV-I 0 W/m² -0,7 °C -1,6 °C 9,7 km/h (2 Bft)
04.04.2019 22:26 0,6 °C 91 % 1002,9 hPa 0,0 mm 4,5 km/h (1 Bft) W 263 ° 0 min 0,000 mm 0,0 UV-I 0 W/m² -0,7 °C 0,6 °C 6,4 km/h (2 Bft)
04.04.2019 22:27 0,6 °C 91 % 1002,9 hPa 0,0 mm 4,4 km/h (1 Bft) W-SW 253 ° 0 min 0,000 mm 0,0 UV-I 0 W/m² -0,7 °C 0,6 °C 6,4 km/h (2 Bft)
04.04.2019 22:28 0,6 °C 91 % 1003,0 hPa 0,0 mm 8,1 km/h (2 Bft) W-SW 254 ° 0 min 0,000 mm 0,0 UV-I 0 W/m² -0,7 °C -2,1 °C 11,3 km/h (2 Bft)
04.04.2019 22:29 0,6 °C 91 % 1003,0 hPa 0,0 mm 9,0 km/h (2 Bft) W-SW 249 ° 0 min 0,000 mm 0,0 UV-I 0 W/m² -0,7 °C -2,3 °C 12,9 km/h (3 Bft)
04.04.2019 22:30 0,6 °C 91 % 1003,0 hPa 0,0 mm 4,9 km/h (1 Bft) W-SW 255 ° 0 min 0,000 mm 0,0 UV-I 0 W/m² -0,7 °C -0,9 °C 11,3 km/h (2 Bft)
04.04.2019 22:31 0,6 °C 91 % 1003,1 hPa 0,0 mm 1,9 km/h (1 Bft) S 186 ° 0 min 0,000 mm 0,0 UV-I 0 W/m² -0,7 °C 0,6 °C 3,2 km/h (1 Bft)
04.04.2019 22:32 0,6 °C 91 % 1003,2 hPa 0,0 mm 7,3 km/h (2 Bft) W 276 ° 0 min 0,000 mm 0,0 UV-I 0 W/m² -0,7 °C -1,8 °C 11,3 km/h (2 Bft)
04.04.2019 22:33 0,6 °C 91 % 1003,1 hPa 0,0 mm 5,2 km/h (1 Bft) W-SW 249 ° 0 min 0,000 mm 0,0 UV-I 0 W/m² -0,7 °C -1,0 °C 6,4 km/h (2 Bft)
04.04.2019 22:34 0,6 °C 91 % 1003,2 hPa 0,0 mm 5,0 km/h (1 Bft) W 263 ° 0 min 0,000 mm 0,0 UV-I 0 W/m² -0,7 °C -0,9 °C 6,4 km/h (2 Bft)
04.04.2019 22:35 0,6 °C 91 % 1003,2 hPa 0,0 mm 6,0 km/h (2 Bft) W 264 ° 0 min 0,000 mm 0,0 UV-I 0 W/m² -0,7 °C -1,3 °C 9,7 km/h (2 Bft)
04.04.2019 22:36 0,6 °C 91 % 1003,1 hPa 0,0 mm 6,3 km/h (2 Bft) W-SW 256 ° 0 min 0,000 mm 0,0 UV-I 0 W/m² -0,7 °C -1,5 °C 12,9 km/h (3 Bft)
04.04.2019 22:37 0,6 °C 91 % 1003,1 hPa 0,0 mm 8,3 km/h (2 Bft) W-SW 256 ° 0 min 0,000 mm 0,0 UV-I 0 W/m² -0,7 °C -2,1 °C 14,5 km/h (3 Bft)
04.04.2019 22:38 0,6 °C 91 % 1003,1 hPa 0,0 mm 9,2 km/h (2 Bft) W-SW 250 ° 0 min 0,000 mm 0,0 UV-I 0 W/m² -0,7 °C -2,4 °C 12,9 km/h (3 Bft)
04.04.2019 22:39 0,6 °C 91 % 1003,1 hPa 0,0 mm 7,7 km/h (2 Bft) SW 215 ° 0 min 0,000 mm 0,0 UV-I 0 W/m² -0,7 °C -1,9 °C 11,3 km/h (2 Bft)
04.04.2019 22:40 0,6 °C 91 % 1003,1 hPa 0,0 mm 4,1 km/h (1 Bft) W 268 ° 0 min 0,000 mm 0,0 UV-I 0 W/m² -0,7 °C 0,6 °C 8,0 km/h (2 Bft)
04.04.2019 22:41 0,5 °C 91 % 1003,1 hPa 0,0 mm 3,4 km/h (1 Bft) W 268 ° 0 min 0,000 mm 0,0 UV-I 0 W/m² -0,8 °C 0,5 °C 4,8 km/h (1 Bft)
04.04.2019 22:42 0,6 °C 91 % 1003,1 hPa 0,0 mm 4,2 km/h (1 Bft) W 274 ° 0 min 0,000 mm 0,0 UV-I 0 W/m² -0,7 °C 0,6 °C 6,4 km/h (2 Bft)
04.04.2019 22:43 0,5 °C 91 % 1003,1 hPa 0,0 mm 4,4 km/h (1 Bft) W 273 ° 0 min 0,000 mm 0,0 UV-I 0 W/m² -0,8 °C 0,5 °C 11,3 km/h (2 Bft)
04.04.2019 22:44 0,5 °C 91 % 1003,2 hPa 0,0 mm 3,9 km/h (1 Bft) W 270 ° 0 min 0,000 mm 0,0 UV-I 0 W/m² -0,8 °C 0,5 °C 6,4 km/h (2 Bft)
04.04.2019 22:45 0,5 °C 91 % 1003,2 hPa 0,0 mm 8,0 km/h (2 Bft) W 271 ° 0 min 0,000 mm 0,0 UV-I 0 W/m² -0,8 °C -2,2 °C 14,5 km/h (3 Bft)
04.04.2019 22:46 0,5 °C 91 % 1003,1 hPa 0,0 mm 8,4 km/h (2 Bft) W 264 ° 0 min 0,000 mm 0,0 UV-I 0 W/m² -0,8 °C -2,3 °C 11,3 km/h (2 Bft)
04.04.2019 22:47 0,5 °C 91 % 1003,2 hPa 0,0 mm 3,9 km/h (1 Bft) W 263 ° 0 min 0,000 mm 0,0 UV-I 0 W/m² -0,8 °C 0,5 °C 4,8 km/h (1 Bft)
04.04.2019 22:48 0,5 °C 91 % 1003,2 hPa 0,0 mm 4,2 km/h (1 Bft) W 263 ° 0 min 0,000 mm 0,0 UV-I 0 W/m² -0,8 °C 0,5 °C 6,4 km/h (2 Bft)
04.04.2019 22:49 0,5 °C 91 % 1003,2 hPa 0,0 mm 3,6 km/h (1 Bft) W-NW 292 ° 0 min 0,000 mm 0,0 UV-I 0 W/m² -0,8 °C 0,5 °C 6,4 km/h (2 Bft)
04.04.2019 22:50 0,4 °C 91 % 1003,2 hPa 0,0 mm 2,1 km/h (1 Bft) W-NW 298 ° 0 min 0,000 mm 0,0 UV-I 0 W/m² -0,9 °C 0,4 °C 3,2 km/h (1 Bft)
04.04.2019 22:51 0,5 °C 92 % 1003,2 hPa 0,0 mm 2,4 km/h (1 Bft) W 280 ° 0 min 0,000 mm 0,0 UV-I 0 W/m² -0,6 °C 0,5 °C 4,8 km/h (1 Bft)
04.04.2019 22:52 0,4 °C 91 % 1003,3 hPa 0,0 mm 5,2 km/h (1 Bft) W-NW 291 ° 0 min 0,000 mm 0,0 UV-I 0 W/m² -0,9 °C -1,2 °C 11,3 km/h (2 Bft)
04.04.2019 22:53 0,5 °C 91 % 1003,3 hPa 0,0 mm 3,8 km/h (1 Bft) W-NW 293 ° 0 min 0,000 mm 0,0 UV-I 0 W/m² -0,8 °C 0,5 °C 4,8 km/h (1 Bft)
04.04.2019 22:54 0,4 °C 91 % 1003,3 hPa 0,0 mm 4,9 km/h (1 Bft) W 279 ° 0 min 0,000 mm 0,0 UV-I 0 W/m² -0,9 °C -1,1 °C 11,3 km/h (2 Bft)
04.04.2019 22:55 0,4 °C 92 % 1003,3 hPa 0,0 mm 5,4 km/h (1 Bft) W-SW 257 ° 0 min 0,000 mm 0,0 UV-I 0 W/m² -0,7 °C -1,3 °C 9,7 km/h (2 Bft)
04.04.2019 22:56 0,4 °C 92 % 1003,4 hPa 0,0 mm 4,1 km/h (1 Bft) W 263 ° 0 min 0,000 mm 0,0 UV-I 0 W/m² -0,7 °C 0,4 °C 9,7 km/h (2 Bft)
04.04.2019 22:57 0,4 °C 91 % 1003,4 hPa 0,0 mm 6,0 km/h (2 Bft) S-SW 202 ° 0 min 0,000 mm 0,0 UV-I 0 W/m² -0,9 °C -1,6 °C 11,3 km/h (2 Bft)
04.04.2019 22:58 0,4 °C 92 % 1003,3 hPa 0,0 mm 8,6 km/h (2 Bft) W 266 ° 0 min 0,000 mm 0,0 UV-I 0 W/m² -0,7 °C -2,5 °C 11,3 km/h (2 Bft)
04.04.2019 22:59 0,4 °C 92 % 1003,3 hPa 0,0 mm 4,4 km/h (1 Bft) W 268 ° 0 min 0,000 mm 0,0 UV-I 0 W/m² -0,7 °C 0,4 °C 4,8 km/h (1 Bft)
04.04.2019 23:00 0,4 °C 92 % 1003,3 hPa 0,0 mm 6,1 km/h (2 Bft) W 278 ° 0 min 0,000 mm 0,0 UV-I 0 W/m² -0,7 °C -1,6 °C 11,3 km/h (2 Bft)
04.04.2019 23:01 0,4 °C 92 % 1003,3 hPa 0,0 mm 6,5 km/h (2 Bft) W 259 ° 0 min 0,000 mm 0,0 UV-I 0 W/m² -0,7 °C -1,8 °C 11,3 km/h (2 Bft)
04.04.2019 23:02 0,4 °C 92 % 1003,3 hPa 0,0 mm 6,1 km/h (2 Bft) W-NW 282 ° 0 min 0,000 mm 0,0 UV-I 0 W/m² -0,7 °C -1,6 °C 9,7 km/h (2 Bft)
04.04.2019 23:03 0,4 °C 92 % 1003,3 hPa 0,0 mm 4,8 km/h (1 Bft) W 265 ° 0 min 0,000 mm 0,0 UV-I 0 W/m² -0,7 °C -1,0 °C 6,4 km/h (2 Bft)
04.04.2019 23:04 0,4 °C 92 % 1003,3 hPa 0,0 mm 3,7 km/h (1 Bft) W 265 ° 0 min 0,000 mm 0,0 UV-I 0 W/m² -0,7 °C 0,4 °C 4,8 km/h (1 Bft)
04.04.2019 23:05 0,4 °C 92 % 1003,3 hPa 0,0 mm 4,8 km/h (1 Bft) W-SW 242 ° 0 min 0,000 mm 0,0 UV-I 0 W/m² -0,7 °C -1,0 °C 6,4 km/h (2 Bft)
04.04.2019 23:06 0,4 °C 92 % 1003,3 hPa 0,0 mm 5,5 km/h (1 Bft) W 267 ° 0 min 0,000 mm 0,0 UV-I 0 W/m² -0,7 °C -1,4 °C 8,0 km/h (2 Bft)
04.04.2019 23:07 0,4 °C 92 % 1003,3 hPa 0,0 mm 4,1 km/h (1 Bft) W 259 ° 0 min 0,000 mm 0,0 UV-I 0 W/m² -0,7 °C 0,4 °C 4,8 km/h (1 Bft)
04.04.2019 23:08 0,4 °C 92 % 1003,3 hPa 0,0 mm 3,4 km/h (1 Bft) W 259 ° 0 min 0,000 mm 0,0 UV-I 0 W/m² -0,7 °C 0,4 °C 4,8 km/h (1 Bft)
04.04.2019 23:09 0,4 °C 92 % 1003,3 hPa 0,0 mm 1,9 km/h (1 Bft) W-SW 254 ° 0 min 0,000 mm 0,0 UV-I 0 W/m² -0,7 °C 0,4 °C 3,2 km/h (1 Bft)
04.04.2019 23:10 0,4 °C 92 % 1003,4 hPa 0,0 mm 3,8 km/h (1 Bft) W 259 ° 0 min 0,000 mm 0,0 UV-I 0 W/m² -0,7 °C 0,4 °C 4,8 km/h (1 Bft)
04.04.2019 23:11 0,4 °C 92 % 1003,4 hPa 0,0 mm 3,6 km/h (1 Bft) W 259 ° 0 min 0,000 mm 0,0 UV-I 0 W/m² -0,7 °C 0,4 °C 4,8 km/h (1 Bft)
04.04.2019 23:12 0,4 °C 92 % 1003,4 hPa 0,0 mm 4,4 km/h (1 Bft) W-SW 254 ° 0 min 0,000 mm 0,0 UV-I 0 W/m² -0,7 °C 0,4 °C 4,8 km/h (1 Bft)
04.04.2019 23:13 0,4 °C 92 % 1003,4 hPa 0,0 mm 3,4 km/h (1 Bft) SW 230 ° 0 min 0,000 mm 0,0 UV-I 0 W/m² -0,7 °C 0,4 °C 4,8 km/h (1 Bft)
04.04.2019 23:14 0,4 °C 92 % 1003,4 hPa 0,0 mm 4,0 km/h (1 Bft) W-SW 244 ° 0 min 0,000 mm 0,0 UV-I 0 W/m² -0,7 °C 0,4 °C 6,4 km/h (2 Bft)
04.04.2019 23:15 0,4 °C 92 % 1003,4 hPa 0,0 mm 3,8 km/h (1 Bft) W-SW 255 ° 0 min 0,000 mm 0,0 UV-I 0 W/m² -0,7 °C 0,4 °C 4,8 km/h (1 Bft)
04.04.2019 23:16 0,4 °C 92 % 1003,4 hPa 0,0 mm 2,8 km/h (1 Bft) W 267 ° 0 min 0,000 mm 0,0 UV-I 0 W/m² -0,7 °C 0,4 °C 4,8 km/h (1 Bft)
04.04.2019 23:17 0,4 °C 92 % 1003,4 hPa 0,0 mm 1,0 km/h (0 Bft) W 262 ° 0 min 0,000 mm 0,0 UV-I 0 W/m² -0,7 °C 0,4 °C 3,2 km/h (1 Bft)
04.04.2019 23:18 0,4 °C 92 % 1003,4 hPa 0,0 mm 3,6 km/h (1 Bft) W 270 ° 0 min 0,000 mm 0,0 UV-I 0 W/m² -0,7 °C 0,4 °C 4,8 km/h (1 Bft)
04.04.2019 23:19 0,4 °C 92 % 1003,4 hPa 0,0 mm 1,1 km/h (1 Bft) W 270 ° 0 min 0,000 mm 0,0 UV-I 0 W/m² -0,7 °C 0,4 °C 3,2 km/h (1 Bft)
04.04.2019 23:20 0,4 °C 92 % 1003,5 hPa 0,0 mm 2,2 km/h (1 Bft) W 269 ° 0 min 0,000 mm 0,0 UV-I 0 W/m² -0,7 °C 0,4 °C 4,8 km/h (1 Bft)
04.04.2019 23:21 0,4 °C 92 % 1003,4 hPa 0,0 mm 0,6 km/h (0 Bft) W 267 ° 0 min 0,000 mm 0,0 UV-I 0 W/m² -0,7 °C 0,4 °C 3,2 km/h (1 Bft)
04.04.2019 23:22 0,4 °C 92 % 1003,4 hPa 0,0 mm 0,0 km/h (0 Bft) W 267 ° 0 min 0,000 mm 0,0 UV-I 0 W/m² -0,7 °C 0,4 °C 0,0 km/h (0 Bft)
04.04.2019 23:23 0,4 °C 92 % 1003,4 hPa 0,0 mm 0,1 km/h (0 Bft) W 267 ° 0 min 0,000 mm 0,0 UV-I 0 W/m² -0,7 °C 0,4 °C 1,6 km/h (1 Bft)
04.04.2019 23:24 0,4 °C 92 % 1003,4 hPa 0,0 mm 1,9 km/h (1 Bft) W 265 ° 0 min 0,000 mm 0,0 UV-I 0 W/m² -0,7 °C 0,4 °C 3,2 km/h (1 Bft)
04.04.2019 23:25 0,4 °C 92 % 1003,5 hPa 0,0 mm 2,5 km/h (1 Bft) W 265 ° 0 min 0,000 mm 0,0 UV-I 0 W/m² -0,7 °C 0,4 °C 4,8 km/h (1 Bft)
04.04.2019 23:26 0,4 °C 92 % 1003,5 hPa 0,0 mm 7,9 km/h (2 Bft) W-SW 255 ° 0 min 0,000 mm 0,0 UV-I 0 W/m² -0,7 °C -2,2 °C 11,3 km/h (2 Bft)
04.04.2019 23:27 0,4 °C 92 % 1003,5 hPa 0,0 mm 3,6 km/h (1 Bft) W 269 ° 0 min 0,000 mm 0,0 UV-I 0 W/m² -0,7 °C 0,4 °C 6,4 km/h (2 Bft)
04.04.2019 23:28 0,4 °C 92 % 1003,5 hPa 0,0 mm 3,8 km/h (1 Bft) W 277 ° 0 min 0,000 mm 0,0 UV-I 0 W/m² -0,7 °C 0,4 °C 6,4 km/h (2 Bft)
04.04.2019 23:29 0,4 °C 92 % 1003,5 hPa 0,0 mm 3,2 km/h (1 Bft) W 273 ° 0 min 0,000 mm 0,0 UV-I 0 W/m² -0,7 °C 0,4 °C 4,8 km/h (1 Bft)
04.04.2019 23:30 0,4 °C 92 % 1003,6 hPa 0,0 mm 1,7 km/h (1 Bft) W 273 ° 0 min 0,000 mm 0,0 UV-I 0 W/m² -0,7 °C 0,4 °C 3,2 km/h (1 Bft)
04.04.2019 23:31 0,4 °C 92 % 1003,6 hPa 0,0 mm 0,7 km/h (0 Bft) W-SW 250 ° 0 min 0,000 mm 0,0 UV-I 0 W/m² -0,7 °C 0,4 °C 3,2 km/h (1 Bft)
04.04.2019 23:32 0,4 °C 92 % 1003,6 hPa 0,0 mm 1,2 km/h (1 Bft) SW 221 ° 0 min 0,000 mm 0,0 UV-I 0 W/m² -0,7 °C 0,4 °C 3,2 km/h (1 Bft)
04.04.2019 23:33 0,4 °C 92 % 1003,6 hPa 0,0 mm 0,0 km/h (0 Bft) SW 221 ° 0 min 0,000 mm 0,0 UV-I 0 W/m² -0,7 °C 0,4 °C 0,0 km/h (0 Bft)
04.04.2019 23:34 0,4 °C 92 % 1003,7 hPa 0,0 mm 1,7 km/h (1 Bft) SW 220 ° 0 min 0,000 mm 0,0 UV-I 0 W/m² -0,7 °C 0,4 °C 3,2 km/h (1 Bft)
04.04.2019 23:35 0,4 °C 92 % 1003,7 hPa 0,0 mm 1,4 km/h (1 Bft) SW 225 ° 0 min 0,000 mm 0,0 UV-I 0 W/m² -0,7 °C 0,4 °C 3,2 km/h (1 Bft)
04.04.2019 23:36 0,4 °C 92 % 1003,7 hPa 0,0 mm 0,0 km/h (0 Bft) SW 225 ° 0 min 0,000 mm 0,0 UV-I 0 W/m² -0,7 °C 0,4 °C 0,0 km/h (0 Bft)
04.04.2019 23:37 0,4 °C 92 % 1003,7 hPa 0,0 mm 0,0 km/h (0 Bft) SW 225 ° 0 min 0,000 mm 0,0 UV-I 0 W/m² -0,7 °C 0,4 °C 0,0 km/h (0 Bft)
04.04.2019 23:38 0,4 °C 92 % 1003,7 hPa 0,0 mm 1,6 km/h (1 Bft) SW 225 ° 0 min 0,000 mm 0,0 UV-I 0 W/m² -0,7 °C 0,4 °C 3,2 km/h (1 Bft)
04.04.2019 23:39 0,5 °C 92 % 1003,7 hPa 0,0 mm 0,0 km/h (0 Bft) SW 225 ° 0 min 0,000 mm 0,0 UV-I 0 W/m² -0,6 °C 0,5 °C 0,0 km/h (0 Bft)
04.04.2019 23:40 0,4 °C 92 % 1003,7 hPa 0,0 mm 0,0 km/h (0 Bft) SW 225 ° 0 min 0,000 mm 0,0 UV-I 0 W/m² -0,7 °C 0,4 °C 0,0 km/h (0 Bft)
04.04.2019 23:41 0,5 °C 92 % 1003,7 hPa 0,0 mm 0,0 km/h (0 Bft) SW 225 ° 0 min 0,000 mm 0,0 UV-I 0 W/m² -0,6 °C 0,5 °C 0,0 km/h (0 Bft)
04.04.2019 23:42 0,5 °C 92 % 1003,7 hPa 0,0 mm 0,0 km/h (0 Bft) SW 225 ° 0 min 0,000 mm 0,0 UV-I 0 W/m² -0,6 °C 0,5 °C 0,0 km/h (0 Bft)
04.04.2019 23:43 0,5 °C 92 % 1003,7 hPa 0,0 mm 0,1 km/h (0 Bft) SW 225 ° 0 min 0,000 mm 0,0 UV-I 0 W/m² -0,6 °C 0,5 °C 1,6 km/h (1 Bft)
04.04.2019 23:44 0,5 °C 92 % 1003,7 hPa 0,0 mm 1,2 km/h (1 Bft) SW 225 ° 0 min 0,000 mm 0,0 UV-I 0 W/m² -0,6 °C 0,5 °C 3,2 km/h (1 Bft)
04.04.2019 23:45 0,5 °C 92 % 1003,7 hPa 0,0 mm 0,2 km/h (0 Bft) SW 225 ° 0 min 0,000 mm 0,0 UV-I 0 W/m² -0,6 °C 0,5 °C 1,6 km/h (1 Bft)
04.04.2019 23:46 0,5 °C 92 % 1003,7 hPa 0,0 mm 1,3 km/h (1 Bft) SW 225 ° 0 min 0,000 mm 0,0 UV-I 0 W/m² -0,6 °C 0,5 °C 4,8 km/h (1 Bft)
04.04.2019 23:47 0,5 °C 92 % 1003,7 hPa 0,0 mm 0,0 km/h (0 Bft) SW 225 ° 0 min 0,000 mm 0,0 UV-I 0 W/m² -0,6 °C 0,5 °C 0,0 km/h (0 Bft)
04.04.2019 23:48 0,5 °C 92 % 1003,6 hPa 0,0 mm 0,0 km/h (0 Bft) SW 225 ° 0 min 0,000 mm 0,0 UV-I 0 W/m² -0,6 °C 0,5 °C 0,0 km/h (0 Bft)
04.04.2019 23:49 0,5 °C 92 % 1003,6 hPa 0,0 mm 0,0 km/h (0 Bft) SW 225 ° 0 min 0,000 mm 0,0 UV-I 0 W/m² -0,6 °C 0,5 °C 0,0 km/h (0 Bft)
04.04.2019 23:50 0,5 °C 92 % 1003,7 hPa 0,0 mm 0,0 km/h (0 Bft) SW 225 ° 0 min 0,000 mm 0,0 UV-I 0 W/m² -0,6 °C 0,5 °C 0,0 km/h (0 Bft)
04.04.2019 23:51 0,5 °C 92 % 1003,6 hPa 0,0 mm 0,0 km/h (0 Bft) SW 225 ° 0 min 0,000 mm 0,0 UV-I 0 W/m² -0,6 °C 0,5 °C 0,0 km/h (0 Bft)
04.04.2019 23:52 0,6 °C 92 % 1003,6 hPa 0,0 mm 0,0 km/h (0 Bft) SW 225 ° 0 min 0,000 mm 0,0 UV-I 0 W/m² -0,5 °C 0,6 °C 0,0 km/h (0 Bft)
04.04.2019 23:53 0,5 °C 92 % 1003,6 hPa 0,0 mm 0,0 km/h (0 Bft) SW 225 ° 0 min 0,000 mm 0,0 UV-I 0 W/m² -0,6 °C 0,5 °C 0,0 km/h (0 Bft)
04.04.2019 23:54 0,6 °C 92 % 1003,7 hPa 0,0 mm 0,0 km/h (0 Bft) SW 225 ° 0 min 0,000 mm 0,0 UV-I 0 W/m² -0,5 °C 0,6 °C 0,0 km/h (0 Bft)
04.04.2019 23:55 0,5 °C 92 % 1003,6 hPa 0,0 mm 0,4 km/h (0 Bft) SW 225 ° 0 min 0,000 mm 0,0 UV-I 0 W/m² -0,6 °C 0,5 °C 3,2 km/h (1 Bft)
04.04.2019 23:56 0,5 °C 92 % 1003,7 hPa 0,0 mm 0,3 km/h (0 Bft) SW 225 ° 0 min 0,000 mm 0,0 UV-I 0 W/m² -0,6 °C 0,5 °C 1,6 km/h (1 Bft)
04.04.2019 23:57 0,5 °C 92 % 1003,7 hPa 0,0 mm 0,0 km/h (0 Bft) SW 225 ° 0 min 0,000 mm 0,0 UV-I 0 W/m² -0,6 °C 0,5 °C 0,0 km/h (0 Bft)
04.04.2019 23:58 0,5 °C 92 % 1003,7 hPa 0,0 mm 0,0 km/h (0 Bft) SW 225 ° 0 min 0,000 mm 0,0 UV-I 0 W/m² -0,6 °C 0,5 °C 0,0 km/h (0 Bft)
04.04.2019 23:59 0,5 °C 92 % 1003,7 hPa 0,0 mm 0,0 km/h (0 Bft) SW 225 ° 0 min 0,000 mm 0,0 UV-I 0 W/m² -0,6 °C 0,5 °C 0,0 km/h (0 Bft)
_ Min-Zeit 23:40 14:21 09:03 - 23:59 - - - - - - 22:57 22:19 23:59
Minimum _ 0,4 °C 72 % 990,8 hPa - 0,0 km/h (0 Bft) - - - - - - -0,9 °C -2,8 °C 0,0 km/h (0 Bft)
_ Max-Zeit 14:04 23:59 23:59 23:59 16:01 - - 14:01 13:00 13:28 12:38 12:45 14:04 18:23
Maximum _ 8,3 °C 92 % 1003,7 hPa 0,0 mm 22,5 km/h
W (4 Bft)
- - 1 min 0,279 mm 5,5 UV-I 951 W/m² 3,8 °C 7,7 °C 48,3 km/h
W (6 Bft)
Durchschnitt _ 3,4 °C 84 % 996,4 hPa #0,0 mm 7,2 km/h (2 Bft) W - #59 min. #1,270 mm 2,0 UV-I 100 W/m² 0,9 °C 1,8 °C 11,3 km/h (2 Bft)